     2              OBSERVATION DATA    GPS                 RINEX VERSION / TYPE
ASHTORIN USGS 12 - MAY - 93 12:12                           PGM / RUN BY / DATE
                                                            COMMENT
Original Marker Name: bonn Bonnie_DWR                       COMMENT
Campaign Name: USGS Parkfield                               COMMENT
4-Character Station Name: BONN                              COMMENT
6-Character Antenna Code: ASHP12                            COMMENT
Vertical Measurement Point: EGP                             COMMENT
Vertical Offset to Rinex Ref. Point: 0.0593                 COMMENT
Radial Measurement Point: EGP                               COMMENT
Radial Offset to Rinex Ref. Point: 0.1425                   COMMENT
Antenna Height from Field Measurement: 1.3170 m             COMMENT
Additional Antenna Identification Info.:                    COMMENT
Ashtech L1/L2 Revision B (700228DE)                         COMMENT
Original XYZ: -2607901.5900 -4469335.8500 3717603.7000      COMMENT
New XYZ position is based on association with SCEC monument COMMENT
E1F1N3I3+0011. Position of that monument is believed to be  COMMENT
valid to within 1 m horizontally; vertical accuracy         COMMENT
should be no worse than 3-times this value.                 COMMENT
                                                            COMMENT
Revised Rinex header created by UCSD GPS archive for        COMMENT
GSAC on 11-Jul-2000 (2000:193) 00:53:43 GMT                 COMMENT
For assistance contact dagnew@ucsd.edu                      COMMENT
or anderson@python.ucsd.edu                                 COMMENT
                                                            COMMENT
DWR BONNIE                                                  MARKER NAME
                                                            MARKER NUMBER
WKG US GEOLOGICAL SURVEY                                    OBSERVER / AGENCY
099 ASHTECH L-XII 6M24                                      REC # / TYPE / VERS
036 ASHTECH GEODETIC P                                      ANT # / TYPE
 -2607898.5463 -4469355.8058  3717643.1420                  APPROX POSITION XYZ
        1.2500        0.0000        0.0000                  ANTENNA: DELTA H/E/N
     1     2     0                                          WAVELENGTH FACT L1/2
     4    L1    L2    C1    D1                              # / TYPES OF OBSERV
    30                                                      INTERVAL
  1993     5    10     3     0   30.000000                  TIME OF FIRST OBS
  1993     5    10    13    30    0.000000                  TIME OF LAST OBS
    18                                                      # OF SATELLITES
           1   735   735   735   735                        PRN / # OF OBS
           3   562   562   562   562                        PRN / # OF OBS
          12   211   211   211   211                        PRN / # OF OBS
          14   378   378   378   378                        PRN / # OF OBS
          15   564   564   564   564                        PRN / # OF OBS
          16   227   227   227   227                        PRN / # OF OBS
          17   703   703   703   703                        PRN / # OF OBS
          18   100   100   100   100                        PRN / # OF OBS
          20   235   235   235   235                        PRN / # OF OBS
          21   801   801   801   801                        PRN / # OF OBS
          22   624   624   624   624                        PRN / # OF OBS
          23   776   776   776   776                        PRN / # OF OBS
          24    46    46    46    46                        PRN / # OF OBS
          25   569   569   569   569                        PRN / # OF OBS
          26   449   449   449   449                        PRN / # OF OBS
          28   557   557   557   557                        PRN / # OF OBS
          29   327   327   327   327                        PRN / # OF OBS
                                                            END OF HEADER
 93  5 10  3  0 30.0000000  0  5 17  3 16 20 24                      0.000974760
  -9192483.69416  -7171244.01015  22632317.295       -2250.093
 -13954278.90517 -10879066.68415  22597452.060       -1702.440
 -23079290.49418 -18009506.58817  21717063.339        1119.014
 -30422468.47318 -19631830.70118  21025505.015        1780.269
  -6380654.82716  -6239171.44415  24296548.541        2951.279
 93  5 10  3  1  0.0000000  0  5 17  3 16 20 24                      0.000977490
  -9259813.916 6  -7223709.038 5  22619504.573       -2238.570
 -14005296.666 7 -10918820.761 5  22587743.641       -1698.955
 -23045417.731 8 -17983112.213 7  21723508.977        1139.160
 -30368767.934 8 -19589986.133 8  21035723.902        1799.819
  -6292100.170 6  -6170167.797 5  24313399.956        2952.472
 93  5 10  3  1 30.0000000  0  5 17  3 16 20 24                      0.000980280
  -9326802.827 6  -7275908.126 5  22606757.025       -2227.466
 -14056209.270 7 -10958492.902 5  22578055.568       -1695.431
 -23010938.839 8 -17956245.543 6  21730070.325        1159.569
 -30314483.615 8 -19547686.677 8  21046053.881        1819.186
  -6203502.062 6  -6101130.281 5  24330259.555        2954.207
 93  5 10  3  2  0.0000000  0  5 17  3 16 20 24                      0.000983130
  -9393462.716 6  -7327850.861 5  22594072.509       -2216.694
 -14107013.024 7 -10998080.187 6  22568387.630       -1691.747
 -22975837.363 8 -17928893.726 7  21736749.971        1180.441
 -30259613.801 8 -19504930.983 8  21056495.062        1838.725
  -6114847.687 6  -6032048.978 5  24347129.522        2956.062
 93  5 10  3  2 30.0000000  0  5 17  3 16 20 24                      0.000986000
  -9459808.481 6  -7379548.801 5  22581447.479       -2206.431
 -14157705.973 7 -11037581.167 6  22558741.219       -1687.970
 -22940113.106 8 -17901056.639 7  21743548.015        1201.255
 -30204158.946 8 -19461719.429 8  21067047.677        1858.282
  -6026140.247 5  -5962926.325 5  24364009.870        2957.671
 93  5 10  3  3  0.0000000  0  5 17  3 16 20 24                      0.000988900
  -9525858.820 6  -7431016.531 5  22568878.518       -2196.903
 -14208287.692 7 -11076995.473 6  22549115.542       -1684.336
 -22903766.107 8 -17872734.291 7  21750464.556        1221.750
 -30148120.473 8 -19418053.091 8  21077711.642        1877.660
  -5937388.043 5  -5893768.753 5  24380899.045        2959.171
 93  5 10  3  3 30.0000000  0  5 17  3 16 20 24                      0.000991800
  -9591624.293 7  -7482262.302 5  22556363.654       -2187.392
 -14258764.115 7 -11116327.718 6  22539510.292       -1680.888
 -22866820.029 8 -17843945.126 7  21757495.349        1241.261
 -30091506.079 8 -19373937.993 8  21088485.196        1896.729
  -5848595.906 5  -5824580.116 5  24397795.867        2960.401
 93  5 10  3  4  0.0000000  0  5 17  3 16 20 24                      0.000994730
  -9657106.214 6  -7533287.130 5  22543902.604       -2178.048
 -14309136.549 7 -11155578.949 6  22529924.804       -1677.601
 -22829296.184 8 -17814705.759 7  21764636.086        1260.272
 -30034319.747 8 -19329377.225 8  21099367.382        1915.612
  -5759764.979 6  -5755361.209 5  24414700.143        2961.445
 93  5 10  3  4 30.0000000  0  5 17  3 16 20 24                      0.000997680
  -9722298.213 7  -7584086.056 5  22531496.857       -2168.024
 -14359410.384 7 -11194753.343 6  22520357.830       -1674.119
 -22791197.914 8 -17785018.788 7  21771885.807        1279.910
 -29976568.863 8 -19284376.540 8  21110356.795        1934.560
  -5670913.279 5  -5686126.130 5  24431607.773        2962.198
 93  5 10  3  5  0.0010000  0  5 17  3 16 20 24                      0.001000650
  -9787196.502 7  -7634656.089 5  22519146.989       -2158.319
 -14409580.242 7 -11233846.720 6  22510811.040       -1670.608
 -22752507.557 8 -17754870.444 7  21779248.099        1299.362
 -29918246.410 8 -19238930.482 8  21121455.210        1953.494
  -5582030.834 5  -5616867.061 5  24448521.392        2963.141
 93  5 10  3  5 30.0010000  0  5 17  3 16 20 24                      0.001003640
  -9851805.355 7  -7685000.594 5  22506852.349       -2148.995
 -14459644.051 7 -11272857.451 6  22501284.214       -1667.133
 -22713234.849 8 -17724268.339 7  21786721.447        1318.936
 -29859360.484 8 -19193045.347 8  21132661.152        1972.317
  -5493119.105 5  -5547585.201 5  24465440.214        2964.378
 93  5 10  3  6  0.0010000  0  5 17  3 16 20 24                      0.001006630
  -9916142.135 7  -7735133.073 5  22494609.555       -2139.976
 -14509606.199 7 -11311788.960 6  22491776.787       -1663.798
 -22673371.587 8 -17693206.030 7  21794307.246        1338.894
 -29799913.762 8 -19146723.237 8  21143973.532        1990.869
  -5404176.721 5  -5478279.482 5  24482365.082        2965.037
 93  5 10  3  6 30.0010000  0  5 17  3 16 20 24                      0.001009620
  -9980208.212 7  -7785054.647 5  22482418.557       -2131.084
 -14559469.755 7 -11350643.669 6  22482288.106       -1660.491
 -22632909.070 8 -17661676.781 7  21802007.115        1358.689
 -29739911.380 8 -19099968.140 8  21155391.597        2009.395
  -5315219.699 5  -5408962.323 5  24499293.073        2965.718
 93  5 10  3  7  0.0010000  0  5 17  3 16 20 24                      0.001012620
 -10044007.249 7  -7834768.161 5  22470277.819       -2121.924
 -14609233.618 7 -11389420.668 6  22472818.291       -1657.221
 -22591858.093 8 -17629688.999 7  21809818.979        1378.064
 -29679354.948 8 -19052781.319 8  21166914.940        2027.782
  -5226235.594 5  -5339624.047 5  24516227.445        2966.636
 93  5 10  3  7 30.0010000  0  5 17  3 16 20 24                      0.001015630
 -10107513.680 7  -7884253.599 5  22458192.674       -2111.707
 -14658894.593 7 -11428117.502 6  22463368.234       -1653.671
 -22550219.616 8 -17597243.406 7  21817742.281        1397.846
 -29618243.506 8 -19005162.017 8  21178543.940        2046.379
  -5137214.815 5  -5270257.197 5  24533167.217        2968.089
 93  5 10  3  8  0.0010000  0  5 17  3 16 20 24                      0.001018680
 -10170703.356 7  -7933492.298 5  22446168.002       -2100.845
 -14708450.557 7 -11466732.513 6  22453937.953       -1650.207
 -22507991.555 8 -17564338.416 7  21825778.088        1417.512
 -29556577.539 8 -18957110.620 8  21190278.645        2064.740
  -5048167.178 5  -5200869.482 5  24550112.087        2968.433
 93  5 10  3  8 30.0010000  0  5 17  3 16 20 24                      0.001021760
 -10233568.344 7  -7982477.921 5  22434205.212       -2090.114
 -14757903.566 7 -11505267.308 6  22444527.397       -1646.842
 -22465174.964 8 -17530974.815 7  21833925.728        1436.946
 -29494361.516 8 -18908630.605 8  21202118.018        2083.029
  -4959110.799 5  -5131474.884 5  24567058.960        2968.781
 93  5 10  3  9  0.0010000  0  5 17  3 16 20 24                      0.001024870
 -10296102.068 7  -8031205.448 5  22422305.440       -2078.800
 -14807253.876 7 -11543722.047 6  22435136.109       -1643.405
 -22421772.803 8 -17497154.940 6  21842184.890        1456.445
 -29431598.073 8 -18859724.045 8  21214061.752        2101.199
  -4870040.920 5  -5062069.814 5  24584008.220        2969.016
 93  5 10  3  9 30.0010000  0  5 17  3 16 20 24                      0.001028010
 -10358299.364 7  -8079670.797 5  22410469.724       -2067.935
 -14856498.589 7 -11582094.508 6  22425765.105       -1639.854
 -22377785.568 8 -17462879.161 6  21850555.205        1475.887
 -29368286.624 8 -18810390.454 8  21226109.291        2119.521
  -4780963.724 5  -4992659.015 5  24600959.737        2969.283
 93  5 10  3 10  0.0010000  0  5 17  3 16 20 24                      0.001031170
 -10420176.122 7  -8127886.400 5  22398695.136       -2057.226
 -14905633.650 7 -11620381.561 6  22416415.059       -1636.195
 -22333216.782 8 -17428150.231 6  21859036.433        1495.224
 -29304425.477 8 -18760628.534 8  21238261.359        2137.774
  -4691885.587 5  -4923247.505 5  24617911.394        2969.354
 93  5 10  3 10 30.0010000  0  5 17  3 16 20 24                      0.001034340
 -10481738.294 7  -8175856.872 5  22386979.997       -2046.908
 -14954659.509 7 -11658583.512 6  22407085.736       -1632.516
 -22288074.848 8 -17392974.693 6  21867626.687        1514.018
 -29240018.181 8 -18710441.038 8  21250517.781        2155.977
  -4602792.549 5  -4853824.400 5  24634864.982        2970.160
 93  5 10  3 11  0.0010000  0  5 17  3 16 20 24                      0.001037570
 -10542983.821 7  -8223580.599 5  22375325.474       -2036.234
 -15003575.624 8 -11696699.929 6  22397777.211       -1628.768
 -22242378.302 8 -17357366.972 6  21876322.486        1532.284
 -29175066.578 8 -18659829.411 8  21262877.896        2174.134
  -4513670.763 5  -4784378.865 5  24651823.707        2971.148
 93  5 10  3 11 30.0010000  0  5 17  3 16 20 24                      0.001040840
 -10603923.809 7  -8271066.244 5  22363728.983       -2026.369
 -15052383.985 8 -11734732.385 6  22388489.201       -1625.331
 -22196141.995 8 -17321338.694 6  21885120.717        1550.172
 -29109575.262 8 -18608797.224 8  21275340.607        2191.966
  -4424530.589 6  -4714918.948 5  24668786.458        2971.531
 93  5 10  3 12  0.0010000  0  5 17  3 16 20 24                      0.001044150
 -10664565.341 7  -8318319.334 5  22352189.160       -2016.265
 -15101087.692 8 -11772683.326 6  22379221.358       -1621.819
 -22149367.606 8 -17284891.127 6  21894021.644        1568.102
 -29043550.102 8 -18557349.065 8  21287904.700        2209.706
  -4335380.220 5  -4645451.206 4  24685751.001        2971.655
 93  5 10  3 12 30.0010000  0  5 17  3 16 20 24                      0.001047480
 -10724905.989 7  -8365337.967 5  22340706.373       -2006.496
 -15149690.173 8 -11810555.344 6  22369972.561       -1618.527
 -22102054.880 8 -17248024.072 6  21903024.972        1586.164
 -28976997.427 8 -18505489.848 8  21300569.183        2227.142
  -4246230.644 6  -4575983.999 4  24702716.123        2971.475
 93  5 10  3 13  0.0010000  0  5 17  3 16 20 24                      0.001050820
 -10784951.989 7  -8412126.993 5  22329279.601       -1996.717
 -15198196.302 8 -11848352.313 6  22360742.080       -1615.543
 -22054192.945 8 -17210729.054 6  21912132.756        1604.632
 -28909924.695 8 -18453225.394 8  21313332.687        2244.245
  -4157098.572 5  -4506530.396 4  24719677.243        2970.404
 93  5 10  3 13 30.0010000  0  5 17  3 16 20 24                      0.001054120
 -10844718.406 7  -8458698.173 5  22317906.573       -1987.665
 -15246622.730 8 -11886087.196 6  22351526.610       -1613.106
 -22005778.045 8 -17173003.166 6  21921345.757        1622.990
 -28842351.091 8 -18400570.641 8  21326191.725        2260.667
  -4068014.743 5  -4437114.470 5  24736629.041        2968.529
 93  5 10  3 14  0.0010000  0  5 17  3 16 20 24                      0.001057390
 -10904212.065 7  -8505056.793 5  22306585.394       -1978.433
 -15294975.444 8 -11923764.602 6  22342325.340       -1610.650
 -21956816.981 8 -17134851.705 6  21930662.798        1641.158
 -28774285.400 8 -18347532.446 8  21339144.318        2277.039
  -3978983.363 6  -4367739.384 5  24753571.134        2967.009
 93  5 10  3 14 30.0010000  0  5 17  3 16 20 24                      0.001060640
 -10963434.030 7  -8551203.705 5  22295315.954       -1969.704
 -15343260.090 8 -11961388.978 6  22333137.242       -1608.446
 -21907314.927 8 -17096278.665 6  21940082.856        1659.001
 -28705735.898 8 -18294117.253 8  21352188.708        2293.010
  -3889992.681 6  -4298396.051 5  24770506.006        2965.872
 93  5 10  3 15  0.0010000  0  5 17  3 16 20 24                      0.001063870
 -11022394.658 7  -8597146.996 5  22284096.254       -1960.983
 -15391476.491 8 -11998960.181 6  22323961.993       -1606.160
 -21857284.802 8 -17057294.160 6  21949603.196        1676.347
 -28636705.619 8 -18240327.438 8  21365324.493        2309.014
  -3801033.490 6  -4229077.212 5  24787434.445        2964.820
 93  5 10  3 15 30.0010000  0  5 17  3 16 20 24                      0.001067100
 -11081110.496 7  -8642899.542 5  22272922.966       -1953.433
 -15439624.620 8 -12036478.179 6  22314799.696       -1603.945
 -21806746.116 8 -17017913.372 6  21959220.308        1692.878
 -28567197.409 8 -18186165.203 7  21378551.806        2324.833
  -3712097.020 6  -4159776.025 5  24804357.960        2964.297
 93  5 10  3 16  0.0010000  0  5 17  3 16 20 24                      0.001070330
 -11139605.282 7  -8688479.848 5  22261791.422       -1946.111
 -15487708.552 8 -12073946.128 6  22305649.649       -1601.905
 -21755715.980 8 -16978149.631 6  21968931.315        1709.228
 -28497218.091 8 -18131635.883 7  21391868.519        2340.443
  -3623173.671 5  -4090485.150 5  24821279.646        2964.017
 93  5 10  3 16 30.0010000  0  5 17  3 16 20 24                      0.001073570
 -11197881.626 7  -8733889.947 5  22250701.742       -1939.069
 -15535730.162 8 -12111365.542 6  22296511.327       -1599.801
 -21704194.447 8 -16938002.990 6  21978735.509        1725.503
 -28426772.179 8 -18076742.979 7  21405273.608        2355.933
  -3534261.828 5  -4021203.256 5  24838199.023        2963.229
 93  5 10  3 17  0.0010000  0  5 17  3 16 20 24                      0.001076790
 -11255947.846 7  -8779136.284 5  22239652.138       -1931.908
 -15583690.680 8 -12148737.355 6  22287384.734       -1597.754
 -21652186.454 8 -16897477.295 6  21988632.337        1741.858
 -28355863.870 8 -18021489.766 7  21418767.045        2371.320
  -3445387.516 5  -3951950.576 5  24855111.313        2961.749
 93  5 10  3 17 30.0010000  0  5 17  3 16 20 24                      0.001079980
 -11313800.310 7  -8824216.080 5  22228643.061       -1924.669
 -15631589.709 8 -12186061.231 6  22278269.943       -1595.682
 -21599684.591 7 -16856566.753 6  21998623.090        1758.287
 -28284495.712 8 -17965878.223 7  21432348.167        2386.631
  -3356553.044 5  -3882728.979 5  24872015.910        2960.377
 93  5 10  3 18  0.0010000  0  5 17  3 16 20 24                      0.001083150
 -11371418.676 7  -8869113.442 6  22217678.371       -1916.419
 -15679429.811 8 -12223339.204 6  22269166.019       -1593.834
 -21546692.865 7 -16815274.505 6  22008707.079        1774.488
 -28212673.705 8 -17909913.036 7  21446015.243        2401.578
  -3267776.101 5  -3813552.147 5  24888909.896        2958.179
 93  5 10  3 18 30.0010000  0  5 17  3 16 20 24                      0.001086290
 -11428781.554 7  -8913811.745 6  22206762.618       -1907.794
 -15727213.543 8 -12260573.277 6  22260073.092       -1592.035
 -21493214.525 7 -16773603.066 6  22018883.515        1790.615
 -28140403.006 8 -17853598.214 7  21459767.992        2416.417
  -3179072.936 5  -3744432.859 5  24905789.591        2955.295
 93  5 10  3 19  0.0010000  0  5 17  3 16 20 24                      0.001089400
 -11485881.049 7  -8958304.805 6  22195896.931       -1898.806
 -15774941.688 8 -12297764.009 6  22250990.758       -1590.149
 -21439253.723 7 -16731555.700 6  22029151.915        1806.536
 -28067687.418 8 -17796936.735 7  21473605.260        2431.165
  -3090449.436 5  -3675375.598 5  24922654.336        2952.863
 93  5 10  3 19 30.0010000  0  5 17  3 16 20 24                      0.001092510
 -11542704.870 7  -9002583.049 6  22185084.097       -1889.454
 -15822613.761 8 -12334911.041 6  22241919.180       -1588.196
 -21384819.733 8 -16689139.606 6  22039510.645        1822.343
 -27994529.964 8 -17739930.951 7  21487526.764        2445.963
  -3001891.333 5  -3606369.339 5  24939506.469        2950.883
 93  5 10  3 20  0.0010000  0  5 17  3 16 20 24                      0.001095620
 -11599242.103 7  -9046637.992 6  22174325.473       -1879.909
 -15870226.966 7 -12372012.214 6  22232858.512       -1586.196
 -21329911.418 7 -16646353.904 6  22049959.429        1838.320
 -27920930.304 8 -17682580.576 7  21501532.389        2460.681
  -2913394.928 5  -3537411.172 5  24956346.441        2948.972
 93  5 10  3 20 30.0010000  0  5 17  3 16 20 24                      0.001098740
 -11655500.728 7  -9090475.825 6  22163619.884       -1870.721
 -15917774.094 8 -12409061.905 6  22223810.505       -1583.839
 -21274516.852 7 -16603189.313 6  22060500.682        1854.579
 -27846884.923 8 -17624882.893 7  21515622.945        2475.618
  -2824945.421 5  -3468489.467 5  24973177.615        2947.619
 93  5 10  3 21  0.0010000  0  5 17  3 16 20 24                      0.001101860
 -11711490.862 7  -9134104.466 6  22152965.231       -1862.088
 -15965249.694 8 -12446055.829 6  22214776.201       -1581.396
 -21218635.951 7 -16559645.778 6  22071134.261        1870.802
 -27772391.403 8 -17566836.011 7  21529798.353        2490.548
  -2736534.132 5  -3399597.609 5  24990001.664        2946.325
 93  5 10  3 21 30.0010000  0  5 17  3 16 20 24                      0.001104970
 -11767226.171 7  -9177534.512 6  22142358.755       -1853.691
 -16012651.133 7 -12482991.981 6  22205756.183       -1578.925
 -21162259.225 7 -16515715.870 6  22081862.255        1887.578
 -27697450.374 8 -17508440.428 7  21544059.218        2505.469
  -2648164.334 5  -3330738.019 5  25006818.468        2944.916
 93  5 10  3 22  0.0010000  0  5 17  3 16 20 24                      0.001108060
 -11822710.399 7  -9220768.915 6  22131800.433       -1845.304
 -16059977.513 7 -12519869.657 6  22196750.260       -1576.419
 -21105383.313 7 -16471396.973 6  22092685.340        1904.097
 -27622064.005 8 -17449697.810 7  21558404.997        2520.231
  -2559842.399 5  -3261915.779 5  25023625.823        2943.158
 93  5 10  3 22 30.0010000  0  5 17  3 16 20 24                      0.001111110
 -11877946.502 7  -9263809.993 6  22121289.200       -1837.125
 -16107230.293 8 -12556689.970 6  22187758.275       -1574.121
 -21048015.676 7 -16426694.932 6  22103602.264        1920.241
 -27546236.714 8 -17390611.626 7  21572834.558        2534.769
  -2471576.811 5  -3193137.423 5  25040422.185        2941.091
 93  5 10  3 23  0.0010000  0  5 17  3 16 20 24                      0.001114140
 -11932936.846 7  -9306659.559 6  22110825.176       -1828.956
 -16154409.260 8 -12593452.775 6  22178780.480       -1571.547
 -20990162.374 7 -16381614.432 6  22114611.282        1936.482
 -27469971.899 8 -17331184.519 7  21587347.023        2549.422
  -2383368.600 5  -3124403.836 5  25057206.830        2939.270
 93  5 10  3 23 30.0010000  0  4 17  3 16 20                         0.001117630
 -11987674.951 7  -9349312.579 6  22100408.945       -1820.367
 -16201512.441 8 -12630156.511 6  22169816.865       -1568.958
 -20931827.753 8 -16336158.899 6  22125712.029        1952.253
 -27393270.541 8 -17271417.266 7  21601942.656        2563.923
 93  5 10  3 24  0.0010000  0  4 17  3 16 20                         0.001120750
 -12042161.106 7  -9391769.257 6  22090040.403       -1812.022
 -16248542.406 8 -12666803.219 6  22160867.402       -1566.524
 -20873039.402 7 -16290349.795 6  22136898.991        1967.123
 -27316138.530 8 -17211314.403 7  21616620.523        2578.293
 93  5 10  3 24 30.0010000  0  5 26 17  3 16 20                      0.001123120
    -65284.20515    -60121.05411  24797198.155       -2373.597
 -12096405.405 7  -9434037.496 6  22079718.070       -1804.327
 -16295498.116 8 -12703392.059 6  22151932.017       -1564.105
 -20813805.681 7 -16244193.639 6  22148170.911        1981.726
 -27238578.332 8 -17150877.914 7  21631379.987        2592.397
 93  5 10  3 25  0.0010000  0  5 26 17  3 16 20                      0.001126120
   -136473.334 5   -115592.979 1  24783651.189       -2372.370
 -12150418.240 7  -9476125.374 6  22069439.706       -1796.542
 -16342381.410 8 -12739924.460 6  22143010.523       -1561.757
 -20754135.480 7 -16197697.405 6  22159525.849        1996.233
 -27160594.946 8 -17090111.670 7  21646219.772        2606.397
 93  5 10  3 25 30.0010000  0  5 26 17  3 16 20                      0.001129130
   -207626.075 5   -171036.594 2  24770110.532       -2371.067
 -12204184.237 7  -9518020.899 6  22059208.308       -1787.880
 -16389190.252 8 -12776398.854 6  22134102.950       -1559.081
 -20694031.758 7 -16150863.349 6  22170963.331        2010.787
 -27082189.992 8 -17029016.909 7  21661139.684        2620.583
 93  5 10  3 26  0.0010000  0  5 26 17  3 16 20                      0.001132140
   -278737.544 5   -226447.985 3  24756578.987       -2369.943
 -12257687.516 7  -9559711.711 6  22049026.827       -1778.983
 -16435919.956 8 -12812811.593 6  22125210.576       -1556.537
 -20633487.870 7 -16103686.294 6  22182484.306        2025.620
 -27003361.791 8 -16967592.354 7  21676140.400        2634.575
 93  5 10  3 26 30.0010000  0  5 26 17  3 16 20                      0.001135130
   -349815.012 5   -281832.953 3  24743052.773       -2368.683
 -12310919.022 7  -9601190.765 6  22038896.789       -1769.958
 -16482569.733 8 -12849162.027 6  22116333.429       -1553.902
 -20572483.933 7 -16056150.761 6  22194093.029        2041.044
 -26924113.229 8 -16905840.255 7  21691220.821        2648.450
 93  5 10  3 27  0.0010000  0  5 26 17  3 16 20                      0.001138120
   -420854.232 5   -337188.104 4  24729534.520       -2367.398
 -12363876.708 7  -9642456.437 6  22028819.057       -1760.597
 -16529143.642 8 -12885453.373 6  22107470.686       -1551.371
 -20511018.231 7 -16008255.418 6  22205789.381        2056.601
 -26844451.729 8 -16843766.369 7  21706379.836        2662.201
 93  5 10  3 27 30.0010000  0  5 26 17  3 16 20                      0.001141100
   -491853.738 5   -392512.369 4  24716023.493       -2366.107
 -12416560.145 7  -9683508.428 6  22018793.987       -1751.762
 -16575642.814 8 -12921686.474 6  22098622.322       -1548.741
 -20449087.029 7 -15959997.355 6  22217574.503        2072.202
 -26764381.776 8 -16781374.221 7  21721616.598        2675.874
 93  5 10  3 28  0.0010000  0  5 26 17  3 16 20                      0.001144050
   -562814.747 5   -447806.558 4  24702519.763       -2364.825
 -12468993.910 7  -9724365.837 6  22008816.153       -1743.890
 -16622064.114 8 -12957858.871 6  22089788.428       -1546.246
 -20386682.343 7 -15911370.316 6  22229449.891        2087.988
 -26683904.106 8 -16718664.374 7  21736930.976        2689.282
 93  5 10  3 28 30.0010000  0  6 26 17  3 16 23 20                   0.001146750
   -633733.861 5   -503068.173 4  24689024.617       -2363.106
 -12521195.508 7  -9765042.348 6  21998882.571       -1736.244
 -16668408.021 8 -12993970.989 6  22080969.592       -1543.596
 -20323804.278 7 -15862374.429 6  22241415.379        2103.742
  -2568423.35615   -205083.36512  24683199.945       -3438.658
 -26603022.407 7 -16655639.688 7  21752322.300        2702.783
 93  5 10  3 29  0.0010000  0  6 26 17  3 16 23 20                   0.001149610
   -704604.409 5   -558291.875 4  24675538.147       -2361.689
 -12573171.394 7  -9805543.000 6  21988992.187       -1728.706
 -16714672.447 8 -13030021.185 6  22072165.808       -1540.898
 -20260460.068 7 -15813015.316 6  22253469.152        2119.358
  -2671551.084 5   -285442.452 4  24663575.665       -3436.514
 -26521738.348 8 -16592301.489 7  21767790.153        2716.171
 93  5 10  3 29 30.0010000  0  6 26 17  3 16 23 20                   0.001152460
   -775437.834 5   -613486.715 4  24662059.243       -2360.528
 -12624925.053 7  -9845870.489 6  21979143.606       -1721.401
 -16760856.968 8 -13066009.093 6  22063377.012       -1538.214
 -20196649.159 7 -15763292.525 6  22265611.969        2134.722
  -2774608.089 5   -365746.451 5  24643964.266       -3433.882
 -26440055.194 7 -16528652.285 7  21783334.001        2729.476
 93  5 10  3 30  0.0010000  0  6 26 17  3 16 23 20                   0.001155290
   -846232.789 5   -668651.562 4  24648587.591       -2359.148
 -12676445.456 7  -9886016.209 6  21969339.704       -1713.074
 -16806959.078 8 -13101932.779 6  22054603.845       -1535.505
 -20132382.806 7 -15713214.824 6  22277841.501        2149.595
  -2877578.217 5   -445982.703 5  24624369.586       -3430.925
 -26357973.576 8 -16464692.620 7  21798953.548        2742.626
 93  5 10  3 30 30.0010000  0  6 26 17  3 16 23 20                   0.001158120
   -916976.870 5   -723776.754 4  24635124.497       -2357.132
 -12727701.015 7  -9925955.567 6  21959585.865       -1704.108
 -16852977.496 8 -13137791.270 6  22045846.807       -1532.610
 -20067672.910 7 -15662791.524 6  22290155.477        2164.325
  -2980460.544 5   -526150.629 5  24604791.936       -3428.017
 -26275495.986 7 -16400424.381 7  21814648.593        2755.860
 93  5 10  3 31  0.0010000  0  6 26 17  3 16 23 20                   0.001160950
   -987661.597 5   -778855.741 4  24621673.527       -2355.096
 -12778683.903 7  -9965682.446 6  21949883.811       -1694.767
 -16898908.124 8 -13173581.363 6  22037106.659       -1529.729
 -20002523.052 7 -15612025.402 6  22302553.203        2178.926
  -3083257.149 5   -606251.647 5  24585230.281       -3425.206
 -26192621.848 7 -16335847.150 7  21830418.957        2769.024
 93  5 10  3 31 30.0010000  0  6 26 17  3 16 23 20                   0.001163780
  -1058272.822 5   -833877.444 4  24608237.079       -2352.106
 -12829385.377 7 -10005190.055 6  21940235.831       -1685.432
 -16944751.398 8 -13209303.370 6  22028382.977       -1526.839
 -19936944.614 7 -15560925.309 6  22315032.266        2192.899
  -3185967.272 5   -686285.382 5  24565684.862       -3422.333
 -26109355.639 8 -16270964.396 7  21846264.025        2782.017
 93  5 10  3 32  0.0010000  0  6 26 17  3 16 23 20                   0.001166610
  -1128781.961 5   -888819.647 4  24594819.985       -2348.521
 -12879806.202 7 -10044478.955 6  21930640.974       -1675.999
 -16990508.690 8 -13244958.372 6  22019675.607       -1523.811
 -19870947.705 7 -15509499.144 6  22327591.030        2207.056
  -3288603.516 5   -766261.441 5  24546153.553       -3419.959
 -26025702.228 7 -16205779.951 7  21862182.876        2794.931
 93  5 10  3 32 30.0010000  0  6 26 17  3 16 23 20                   0.001169440
  -1199180.860 5   -943675.858 5  24581423.805       -2344.774
 -12929948.420 7 -10083550.778 6  21921099.128       -1667.105
 -17036173.817 8 -13280541.581 6  22010985.922       -1520.697
 -19804519.329 8 -15457736.748 6  22340231.991        2221.604
  -3391166.368 5   -846180.323 5  24526636.046       -3417.519
 -25941659.297 8 -16140291.972 7  21878175.744        2807.953
 93  5 10  3 33  0.0010000  0  6 26 17  3 16 23 20                   0.001172260
  -1269478.897 5   -998453.577 5  24568046.246       -2341.644
 -12979836.262 7 -10122424.381 6  21911605.671       -1658.823
 -17081745.256 8 -13316051.761 6  22002313.995       -1517.654
 -19737657.076 7 -15405636.284 6  22352955.543        2235.833
  -3493665.422 5   -926049.520 5  24507131.162       -3415.605
 -25857228.755 7 -16074501.953 7  21894242.191        2820.750
 93  5 10  3 33 30.0010000  0  6 26 17  3 16 23 20                   0.001175060
  -1339679.397 5  -1053155.223 5  24554687.803       -2338.363
 -13029477.784 7 -10161106.049 6  21902159.313       -1650.489
 -17127220.338 8 -13351486.881 6  21993660.305       -1514.094
 -19670363.102 7 -15353199.402 6  22365761.186        2250.494
  -3596096.722 5  -1005865.916 5  24487638.730       -3412.977
 -25772411.628 7 -16008410.695 7  21910382.298        2833.863
 93  5 10  3 34  0.0010000  0  6 26 17  3 16 23 20                   0.001177850
  -1409792.833 5  -1107789.014 5  24541345.915       -2336.022
 -13078867.748 7 -10199591.673 6  21892760.785       -1642.117
 -17172592.808 8 -13386842.024 6  21985026.223       -1510.866
 -19602632.949 7 -15300422.643 6  22378649.664        2264.900
  -3698446.201 5  -1085618.582 5  24468162.466       -3410.170
 -25687205.491 7 -15942016.331 7  21926596.803        2846.618
 93  5 10  3 34 30.0010000  0  6 26 17  3 16 23 20                   0.001180620
  -1479837.665 5  -1162369.391 5  24528016.534       -2333.855
 -13128004.264 7 -10237879.836 6  21883410.590       -1634.024
 -17217861.698 8 -13422116.453 6  21976411.816       -1507.492
 -19534467.318 7 -15247306.549 6  22391621.101        2279.168
  -3800700.743 5  -1165297.183 5  24448703.505       -3406.999
 -25601613.087 7 -15875320.981 7  21942884.538        2859.343
 93  5 10  3 35  0.0010000  0  6 26 17  3 16 23 20                   0.001183360
  -1549816.273 5  -1216898.178 5  24514699.692       -2331.315
 -13176894.510 7 -10275976.085 6  21874107.118       -1625.168
 -17263030.666 8 -13457313.037 6  21967816.338       -1503.989
 -19465877.497 7 -15193859.902 6  22404673.459        2293.419
  -3902867.374 5  -1244907.427 5  24429261.494       -3403.837
 -25515642.174 7 -15808330.671 7  21959244.141        2872.060
 93  5 10  3 35 30.0010000  0  6 26 17  3 16 23 20                   0.001186100
  -1619716.890 5  -1271366.101 5  24501397.953       -2328.695
 -13225511.749 7 -10313859.608 6  21864855.788       -1615.935
 -17308094.253 8 -13492427.504 6  21959240.994       -1500.571
 -19396863.422 7 -15140082.664 6  22417806.295        2307.384
  -4004920.115 5  -1324428.854 5  24409841.375       -3399.902
 -25429290.957 7 -15741044.024 7  21975676.244        2884.569
 93  5 10  3 36  0.0010000  0  7 26 17 22  3 16 23 20                0.001188810
  -1689532.479 5  -1325767.819 5  24488112.456       -2325.694
 -13273856.550 7 -10351530.836 6  21855655.904       -1607.118
 -13985873.81315  -1328400.94615  25117646.243       -2761.500
 -17353061.087 8 -13527466.577 7  21950684.156       -1497.417
 -19327442.891 7 -15085988.707 6  22431016.601        2320.721
  -4106875.258 5  -1403874.250 5  24390440.123       -3397.073
 -25342572.058 7 -15673470.873 6  21992178.393        2896.720
 93  5 10  3 36 30.0010000  0  7 26 17 22  3 16 23 20                0.001191520
  -1759255.084 5  -1380097.092 5  24474844.813       -2322.570
 -13321947.165 7 -10389004.017 6  21846504.030       -1599.007
 -14068603.136 5  -1392865.268 5  25101903.379       -2753.779
 -17397932.267 8 -13562431.098 7  21942145.639       -1494.290
 -19257623.330 7 -15031583.845 6  22444302.701        2333.780
  -4208747.342 5  -1483254.887 5  24371054.633       -3394.401
 -25255490.411 7 -15605615.092 6  22008749.140        2908.696
 93  5 10  3 37  0.0010000  0  7 26 17 22  3 16 23 20                0.001194200
  -1828881.872 5  -1434351.692 5  24461595.543       -2319.229
 -13369792.658 7 -10426286.156 6  21837399.074       -1590.645
 -14151094.659 5  -1457144.271 5  25086206.242       -2745.648
 -17442710.205 8 -13597322.966 7  21933624.607       -1491.159
 -19187416.602 7 -14976877.277 6  22457662.562        2346.690
  -4310539.108 5  -1562572.989 5  24351683.552       -3391.533
 -25168052.156 7 -15537481.373 7  22025388.170        2920.497
 93  5 10  3 37 30.0010000  0  7 26 17 22  3 16 23 20                0.001196860
  -1898401.295 5  -1488522.584 5  24448366.338       -2315.348
 -13417392.633 7 -10463377.023 6  21828341.175       -1582.873
 -14233336.807 5  -1521229.073 5  25070556.297       -2737.109
 -17487391.806 8 -13632139.797 7  21925121.794       -1487.824
 -19116822.139 7 -14921868.563 6  22471096.495        2359.635
  -4412240.901 5  -1641820.917 5  24332330.317       -3388.723
 -25080258.157 8 -15469070.477 6  22042094.935        2932.391
 93  5 10  3 38  0.0010000  0  7 26 17 22  3 16 23 20                0.001199500
  -1967798.495 5  -1542598.298 5  24435160.522       -2311.141
 -13464766.364 7 -10500291.564 6  21819326.385       -1575.248
 -14315320.102 5  -1585112.044 5  25054955.554       -2728.224
 -17531976.482 8 -13666881.062 7  21916637.597       -1484.583
 -19045832.035 7 -14866551.574 6  22484605.193        2373.288
  -4513861.906 5  -1721005.982 5  24312992.245       -3385.668
 -24992111.742 7 -15400384.995 6  22058868.833        2944.115
 93  5 10  3 38 30.0010000  0  7 26 17 22  3 16 23 20                0.001202140
  -2037080.012 5  -1596583.863 5  24421976.708       -2307.442
 -13511908.116 7 -10537025.369 6  21810355.654       -1567.379
 -14397036.535 5  -1648787.091 5  25039405.329       -2719.326
 -17576464.187 8 -13701546.771 7  21908172.108       -1481.438
 -18974425.585 7 -14810910.146 6  22498193.376        2387.305
  -4615381.959 5  -1800112.355 5  24293673.841       -3382.077
 -24903616.557 7 -15331427.736 6  22075708.914        2955.637
 93  5 10  3 39  0.0010000  0  7 26 17 22  3 16 23 20                0.001204770
  -2106247.832 5  -1650480.831 5  24408814.462       -2303.708
 -13558817.670 8 -10573578.239 6  21801429.193       -1559.820
 -14478482.468 5  -1712251.394 5  25023906.632       -2710.450
 -17620859.284 8 -13736140.328 7  21899724.056       -1478.484
 -18902597.483 7 -14754940.173 6  22511861.473        2401.385
  -4716801.007 5  -1879140.018 5  24274374.281       -3379.097
 -24814781.412 7 -15262205.540 6  22092613.774        2966.705
 93  5 10  3 39 30.0010000  0  7 26 17 22  3 16 23 20                0.001207380
  -2175294.061 5  -1704282.989 5  24395674.624       -2299.511
 -13605496.752 7 -10609951.506 6  21792546.554       -1552.066
 -14559665.388 5  -1775510.736 5  25008458.002       -2701.744
 -17665163.358 8 -13770662.954 7  21891293.193       -1475.336
 -18830340.598 7 -14698636.085 6  22525611.695        2415.694
  -4818122.184 5  -1958091.424 5  24255093.346       -3375.671
 -24725611.485 7 -15192722.514 6  22109582.373        2977.907
 93  5 10  3 40  0.0010000  0  7 26 17 22  3 16 23 20                0.001209980
  -2244218.725 5  -1757990.446 5  24382558.948       -2295.560
 -13651929.434 7 -10646132.775 6  21783710.510       -1543.460
 -14640589.157 5  -1838568.065 5  24993058.415       -2693.275
 -17709369.006 8 -13805108.887 7  21882881.146       -1472.007
 -18757652.414 7 -14641995.901 6  22539443.931        2429.934
  -4919336.300 5  -2036959.404 5  24235833.093       -3371.926
 -24636103.589 7 -15122976.123 6  22126614.973        2989.171
 93  5 10  3 40 30.0010000  0  7 26 17 22  3 16 23 20                0.001212560
  -2313031.593 5  -1811610.814 5  24369464.316       -2291.886
 -13698109.109 7 -10682116.919 6  21774922.804       -1535.169
 -14721257.092 5  -1901426.160 5  24977707.782       -2684.545
 -17753476.376 8 -13839478.256 7  21874487.658       -1468.678
 -18684559.383 7 -14585040.250 6  22553352.911        2442.763
  -5020439.476 5  -2115740.963 5  24216593.564       -3368.426
 -24546261.951 7 -15052969.676 6  22143711.078        3000.286
 93  5 10  3 41  0.0010000  0  7 26 17 22  3 16 23 20                0.001215110
  -2381726.124 5  -1865139.015 5  24356392.215       -2287.754
 -13744040.534 7 -10717907.590 6  21766182.376       -1526.816
 -14801660.953 5  -1964078.436 5  24962407.556       -2675.829
 -17797480.534 8 -13873767.177 7  21866114.194       -1465.154
 -18611094.736 7 -14527795.014 6  22567332.794        2454.811
  -5121443.150 6  -2194444.933 5  24197373.044       -3365.098
 -24456085.363 7 -14982702.215 6  22160871.348        3011.485
 93  5 10  3 41 30.0010000  0  7 26 17 22  3 16 23 20                0.001217640
  -2450294.799 5  -1918569.059 5  24343344.182       -2283.517
 -13789706.062 7 -10753491.087 6  21757492.362       -1517.392
 -14881800.993 5  -2026525.174 5  24947157.441       -2666.676
 -17841375.681 8 -13907971.162 7  21857761.067       -1461.333
 -18537271.431 7 -14470270.337 6  22581380.865        2466.652
  -5222345.512 6  -2273070.005 5  24178172.148       -3361.693
 -24365572.456 7 -14912172.724 6  22178095.324        3022.833
 93  5 10  3 42  0.0010000  0  7 26 17 22  3 16 23 20                0.001220130
  -2518742.955 5  -1971905.189 5  24330318.891       -2279.753
 -13835084.647 8 -10788851.013 6  21748857.092       -1508.042
 -14961659.221 5  -2088752.267 5  24931960.515       -2657.061
 -17885156.734 8 -13942086.244 7  21849429.654       -1457.670
 -18463099.303 7 -14412473.844 6  22595495.355        2478.036
  -5323142.714 5  -2351613.132 5  24158990.920       -3358.191
 -24274722.065 7 -14841380.219 6  22195383.577        3033.832
 93  5 10  3 42 30.0010000  0  7 26 17 22  3 16 23 20                0.001222610
  -2587078.680 6  -2025153.760 5  24317315.447       -2276.049
 -13880189.037 7 -10823997.255 6  21740273.933       -1499.006
 -15041219.674 5  -2150747.405 5  24916820.884       -2646.845
 -17928827.863 8 -13976115.669 7  21841119.265       -1453.939
 -18388579.821 7 -14354406.698 6  22609675.979        2490.078
  -5423839.086 5  -2430077.670 5  24139829.091       -3354.854
 -24183542.551 7 -14770331.266 6  22212734.584        3044.813
 93  5 10  3 43  0.0010000  0  7 26 17 22  3 16 23 20                0.001225060
  -2655302.851 5  -2078315.317 5  24304332.508       -2272.358
 -13925027.466 7 -10858936.250 6  21731741.328       -1490.304
 -15120474.640 5  -2212504.423 5  24901738.690       -2636.949
 -17972385.414 8 -14010056.595 7  21832830.396       -1450.244
 -18313682.165 7 -14296044.845 6  22623928.464        2503.195
  -5524433.323 5  -2508462.646 5  24120686.518       -3351.306
 -24092034.353 7 -14699026.184 6  22230148.079        3055.606
 93  5 10  3 43 30.0010000  0  7 26 17 22  3 16 23 20                0.001227500
  -2723416.697 5  -2131390.915 5  24291370.965       -2268.615
 -13969594.550 8 -10893663.802 6  21723260.259       -1481.133
 -15199426.025 5  -2274024.944 5  24886714.567       -2626.529
 -18015829.725 8 -14043909.271 7  21824563.320       -1446.332
 -18238381.085 7 -14237368.634 6  22638258.012        2516.788
  -5624909.464 5  -2586755.578 5  24101566.646       -3347.022
 -24000202.047 7 -14627468.567 6  22247623.232        3066.443
 93  5 10  3 44  0.0010000  0  7 26 17 22  3 16 23 20                0.001229920
  -2791421.855 6  -2184381.841 5  24278429.732       -2264.827
 -14013909.764 7 -10928195.121 6  21714827.409       -1473.300
 -15278064.569 5  -2335301.609 5  24871750.129       -2616.146
 -18059162.204 8 -14077674.816 7  21816317.448       -1442.649
 -18162673.067 7 -14178375.352 6  22652664.552        2530.593
  -5725250.330 5  -2664943.168 5  24082471.691       -3342.267
 -23908051.057 7 -14555662.623 6  22265158.892        3077.096
 93  5 10  3 44 30.0010000  0  7 26 17 22  3 16 23 20                0.001232330
  -2859299.723 6  -2237273.473 5  24265512.883       -2260.248
 -14057997.798 7 -10962549.398 6  21706438.005       -1465.920
 -15356404.710 5  -2396345.763 5  24856842.176       -2606.580
 -18102378.490 8 -14111349.825 7  21808093.562       -1438.672
 -18086552.551 7 -14119060.636 6  22667149.809        2544.139
  -5825451.505 5  -2743021.860 5  24063404.086       -3337.714
 -23815581.029 7 -14483608.080 6  22282755.579        3087.680
 93  5 10  3 45  0.0010000  0  7 26 17 22  3 16 23 20                0.001234730
  -2927025.950 5  -2290046.995 5  24252625.532       -2254.766
 -14101860.262 7 -10996727.907 6  21698090.975       -1458.047
 -15434455.280 5  -2457164.375 5  24841989.385       -2596.715
 -18145473.894 8 -14144930.634 7  21799893.038       -1434.561
 -18010034.308 7 -14059436.008 6  22681710.727        2556.987
  -5925512.199 5  -2820991.120 5  24044362.688       -3332.929
 -23722791.389 7 -14411304.457 6  22300412.476        3098.352
 93  5 10  3 45 30.0010000  0  7 26 17 22  3 16 23 20                0.001237130
  -2994576.226 5  -2342683.427 5  24239771.168       -2248.537
 -14145475.096 8 -11030713.448 6  21689791.908       -1449.813
 -15512195.357 5  -2517740.971 5  24827196.330       -2585.874
 -18188436.856 8 -14178408.233 7  21791717.188       -1429.789
 -17933137.350 7 -13999516.284 6  22696343.750        2569.468
  -6025418.436 5  -2898840.004 5  24025350.950       -3327.499
 -23629675.082 7 -14338746.332 6  22318131.779        3109.480
 93  5 10  3 46  0.0010000  0  7 26 17 22  3 16 23 20                0.001239550
  -3061927.209 5  -2395164.513 5  24226954.452       -2241.590
 -14188851.993 8 -11064513.595 6  21681537.195       -1441.954
 -15589609.203 5  -2578063.356 5  24812464.779       -2575.129
 -18231250.883 8 -14211769.780 7  21783570.007       -1424.765
 -17855862.028 7 -13939301.719 6  22711048.899        2582.138
  -6125164.148 6  -2976563.784 5  24006370.181       -3322.225
 -23536219.898 7 -14265924.124 6  22335915.998        3120.809
 93  5 10  3 46 30.0010000  0  7 26 17 22  3 16 23 20                0.001241970
  -3129063.734 6  -2447478.501 5  24214178.692       -2234.259
 -14231987.914 8 -11098125.979 6  21673328.397       -1433.665
 -15666699.976 5  -2638133.979 5  24797795.162       -2563.970
 -18273911.289 8 -14245011.638 7  21775452.328       -1419.491
 -17778216.183 7 -13878798.412 6  22725824.322        2594.285
  -6224746.974 6  -3054160.645 5  23987420.603       -3316.482
 -23442425.503 7 -14192837.609 6  22353764.670        3132.185
 93  5 10  3 47  0.0010000  0  7 26 17 22  3 16 23 20                0.001244420
  -3195987.602 6  -2499626.816 5  24201442.800       -2227.384
 -14274864.753 8 -11131536.469 7  21665169.705       -1424.642
 -15743441.888 5  -2697932.810 5  24783191.483       -2552.183
 -18316413.852 8 -14278130.467 7  21767363.938       -1414.157
 -17700200.059 7 -13818006.621 6  22740670.181        2606.976
  -6324149.020 5  -3131616.662 5  23968504.792       -3310.118
 -23348291.779 7 -14119486.656 6  22371677.602        3143.435
 93  5 10  3 47 30.0010000  0  7 26 17 22  3 16 23 20                0.001246890
  -3262699.888 5  -2551610.235 5  24188747.706       -2220.265
 -14317463.125 8 -11164729.951 7  21657063.666       -1415.445
 -15819825.245 5  -2757452.245 5  24768655.962       -2540.227
 -18358748.918 8 -14311118.820 7  21759307.476       -1408.450
 -17621789.031 7 -13756907.090 6  22755591.203        2620.396
  -6423346.027 6  -3208912.891 5  23949627.658       -3303.208
 -23253813.146 7 -14045866.950 6  22389656.383        3155.007
 93  5 10  3 48  0.0010000  0  7 26 17 22  3 16 23 20                0.001249380
  -3329203.706 5  -2603431.278 5  24176092.081       -2213.323
 -14359780.317 8 -11197704.360 7  21649010.722       -1405.455
 -15895862.805 5  -2816702.215 5  24754186.455       -2528.893
 -18400912.921 8 -14343973.868 7  21751283.700       -1402.739
 -17542971.899 7 -13695491.144 6  22770589.589        2634.027
  -6522332.776 6  -3286045.303 5  23930791.038       -3295.949
 -23158990.190 7 -13971978.963 6  22407700.651        3166.440
 93  5 10  3 48 30.0010000  0  7 26 17 22  3 16 23 20                0.001251890
  -3395495.523 6  -2655087.067 5  24163476.850       -2206.231
 -14401781.942 8 -11230432.900 7  21641017.856       -1394.521
 -15971549.579 5  -2875678.860 5  24739783.993       -2516.764
 -18442902.320 8 -14376692.818 7  21743293.461       -1396.782
 -17463746.179 7 -13633756.797 6  22785665.732        2647.898
  -6621102.677 6  -3363008.753 5  23911995.826       -3288.843
 -23063824.218 7 -13897823.663 6  22425809.955        3177.922
 93  5 10  3 49  0.0010000  0  7 26 17 22  3 16 23 20                0.001254400
  -3461574.893 6  -2706577.388 5  24150901.567       -2199.057
 -14443439.265 8 -11262893.086 7  21633090.643       -1382.582
 -16046875.514 5  -2934374.310 5  24725450.123       -2504.907
 -18484711.269 8 -14409271.197 7  21735337.539       -1390.715
 -17384089.737 7 -13571686.828 6  22800823.579        2662.525
  -6719664.345 6  -3439809.927 5  23893240.113       -3281.956
 -22968313.442 7 -13823399.678 6  22443985.121        3189.443
 93  5 10  3 49 30.0010000  0  7 26 17 22  3 16 23 20                0.001256910
  -3527436.538 6  -2757898.037 5  24138368.882       -2191.556
 -14484747.770 8 -11295081.514 7  21625230.313       -1371.323
 -16121849.398 5  -2992795.456 5  24711183.322       -2493.075
 -18526339.652 8 -14441708.873 7  21727415.803       -1384.597
 -17304003.289 7 -13509281.774 6  22816063.650        2676.491
  -6818030.123 6  -3516458.490 5  23874521.676       -3275.753
 -22872461.821 7 -13748710.117 6  22462225.126        3200.772
 93  5 10  3 50  0.0010000  0  7 26 17 22  3 16 23 20                0.001259420
  -3593060.309 6  -2809033.318 5  24125881.165       -2183.198
 -14525714.148 8 -11327003.328 7  21617434.544       -1359.802
 -16196456.694 5  -3050930.951 5  24696985.734       -2480.517
 -18567780.328 8 -14474000.292 7  21719529.992       -1378.328
 -17223502.315 7 -13446553.734 6  22831382.421        2690.173
  -6916203.449 6  -3592957.055 5  23855839.588       -3269.190
 -22776266.947 7 -13673753.087 6  22480530.212        3212.163
 93  5 10  3 50 30.0010000  0  7 26 17 22  3 16 23 20                0.001261960
  -3658423.590 6  -2859965.677 5  24113442.548       -2174.409
 -14566341.905 8 -11358661.293 7  21609702.644       -1348.935
 -16270672.827 5  -3108761.650 5  24682863.219       -2467.141
 -18609029.812 8 -14506142.723 7  21711680.827       -1371.903
 -17142590.935 7 -13383505.907 6  22846779.484        2703.954
  -7014175.677 6  -3669298.906 5  23837195.833       -3262.520
 -22679729.218 7 -13598528.902 6  22498900.945        3223.600
 93  5 10  3 51  0.0010000  0  7 26 17 22  3 16 23 20                0.001264530
  -3723525.929 5  -2910694.666 5  24101054.384       -2165.788
 -14606653.508 8 -11390072.898 7  21602032.034       -1338.790
 -16344484.295 5  -3166277.000 5  24668817.211       -2453.637
 -18650085.091 8 -14538133.831 7  21703867.935       -1365.439
 -17061269.196 7 -13320138.308 6  22862254.508        2717.256
  -7111945.893 6  -3745483.365 5  23818590.552       -3255.643
 -22582850.532 7 -13523039.028 6  22517336.313        3234.905
 93  5 10  3 51 30.0010000  0  7 26 17 22  3 16 23 20                0.001267150
  -3788364.011 5  -2961217.772 5  24088716.294       -2156.867
 -14646680.958 8 -11421263.092 7  21594414.717       -1329.809
 -16417883.245 5  -3223470.910 5  24654849.657       -2439.731
 -18690946.097 8 -14569973.557 7  21696092.588       -1358.952
 -16979559.427 7 -13256468.336 6  22877803.406        2729.849
  -7209506.213 6  -3821504.311 5  23800025.433       -3248.608
 -22485634.782 7 -13447286.481 6  22535835.765        3246.082
 93  5 10  3 52  0.0010000  0  7 26 17 22  3 16 23 20                0.001269810
  -3852936.402 6  -3011533.763 5  24076428.377       -2147.931
 -14686431.562 8 -11452237.546 7  21586851.094       -1320.143
 -16490863.449 6  -3280338.561 5  24640962.047       -2425.496
 -18731609.538 8 -14601659.328 7  21688354.414       -1352.095
 -16897469.748 7 -13192502.343 6  22893424.573        2742.980
  -7306847.122 6  -3897354.267 5  23781501.822       -3240.774
 -22388083.155 7 -13371272.233 6  22554399.344        3257.434
 93  5 10  3 52 30.0010000  0  7 26 17 22  3 16 23 20                0.001272520
  -3917252.212 6  -3061649.840 5  24064188.804       -2139.886
 -14725895.747 8 -11482988.830 7  21579341.132       -1310.716
 -16563419.700 5  -3336875.841 5  24627154.550       -2411.566
 -18772069.778 8 -14633186.757 7  21680655.175       -1345.331
 -16814985.846 7 -13128229.174 6  22909120.815        2756.100
  -7403963.882 6  -3973029.545 5  23763020.715       -3233.482
 -22290194.649 7 -13294995.503 6  22573027.040        3268.609
 93  5 10  3 53  0.0010000  0  7 26 17 22  3 16 23 20                0.001275260
  -3981335.115 6  -3111584.450 5  24051994.470       -2132.367
 -14765077.998 8 -11513520.425 7  21571884.735       -1301.319
 -16635570.014 6  -3393096.816 5  24613424.903       -2398.504
 -18812324.780 8 -14664554.264 7  21672995.018       -1338.636
 -16732113.854 7 -13063653.606 6  22924890.564        2768.465
  -7500856.310 6  -4048530.075 5  23744582.906       -3225.968
 -22191971.786 7 -13218458.227 6  22591718.288        3279.533
 93  5 10  3 53 30.0010000  0  7 26 17 22  3 16 23 20                0.001278020
  -4045179.212 5  -3161332.995 5  24039845.530       -2124.089
 -14803970.599 8 -11543826.313 7  21564483.898       -1291.304
 -16707330.814 6  -3449014.210 5  24599768.977       -2385.619
 -18852375.403 8 -14695762.532 7  21665373.474       -1331.647
 -16648870.549 7 -12998788.698 6  22940731.410        2781.036
  -7597518.032 6  -4123850.757 5  23726188.746       -3218.104
 -22093419.738 7 -13141664.391 6  22610472.084        3290.573
 93  5 10  3 54  0.0010000  0  7 26 17 22  3 16 23 20                0.001280790
  -4108780.317 5  -3210892.214 5  24027742.612       -2116.006
 -14842547.354 8 -11573886.088 7  21557142.921       -1280.524
 -16778709.587 6  -3504634.032 5  24586185.996       -2372.963
 -18892215.008 8 -14726806.345 7  21657792.123       -1324.583
 -16565242.118 7 -12933623.680 6  22956645.576        2794.240
  -7693936.468 6  -4198981.885 5  23707840.641       -3209.892
 -21994536.372 7 -13064612.426 6  22629288.809        3301.578
 93  5 10  3 54 30.0010000  0  7 26 17 22  3 16 23 20                0.001283560
  -4172133.533 5  -3260258.242 5  24015686.342       -2107.688
 -14880799.830 8 -11603693.182 7  21549863.589       -1269.695
 -16849706.468 6  -3559956.203 5  24572675.464       -2360.172
 -18931841.992 8 -14757684.492 7  21650251.443       -1317.452
 -16481213.838 7 -12868147.112 5  22972635.437        2807.568
  -7790109.793 6  -4273922.060 5  23689539.501       -3201.646
 -21895324.287 7 -12987304.324 6  22648168.209        3312.530
 93  5 10  3 55  0.0010000  0  7 26 17 22  3 16 23 20                0.001286340
  -4235229.414 6  -3309423.717 5  24003679.856       -2098.562
 -14918723.863 8 -11633244.349 7  21542646.645       -1258.410
 -16920319.663 6  -3614979.415 5  24559238.542       -2347.208
 -18971256.298 8 -14788396.914 7  21642751.315       -1310.430
 -16396781.733 7 -12802355.856 5  22988702.192        2821.187
  -7886039.365 6  -4348672.291 5  23671284.932       -3193.698
 -21795788.424 7 -12909743.909 6  22667109.368        3323.190
 93  5 10  3 55 30.0010000  0  7 26 17 22  3 16 23 20                0.001289130
  -4298046.998 5  -3358372.375 5  23991726.570       -2089.372
 -14956298.935 8 -11662523.590 7  21535496.596       -1246.593
 -16990535.873 6  -3669693.273 5  24545876.803       -2333.777
 -19010458.045 8 -14818943.698 7  21635291.360       -1303.201
 -16311934.358 7 -12736241.032 5  23004848.169        2835.373
  -7981729.380 6  -4423235.879 5  23653075.896       -3185.690
 -21695932.868 7 -12831934.397 6  22686111.382        3333.863
 93  5 10  3 56  0.0010000  0  7 26 17 22  3 16 23 20                0.001291940
  -4360590.780 6  -3407107.680 5  23979824.071       -2080.105
 -14993519.242 8 -11691526.404 7  21528413.802       -1234.906
 -17060332.683 6  -3724080.378 5  24532594.741       -2319.253
 -19049441.082 8 -14849320.070 7  21627873.064       -1295.951
 -16226659.072 7 -12669792.748 6  23021075.579        2849.530
  -8077180.312 6  -4497613.112 5  23634912.289       -3177.919
 -21595756.303 7 -12753874.735 6  22705174.414        3344.523
 93  5 10  3 56 30.0010000  0  7 26 17 22  3 16 23 20                0.001294790
  -4422844.219 6  -3455616.740 5  23967977.599       -2070.085
 -15030394.459 8 -11720260.298 7  21521396.428       -1223.433
 -17129684.684 6  -3778120.855 5  24519397.737       -2304.138
 -19088202.694 8 -14879523.897 7  21620497.071       -1288.395
 -16140970.115 7 -12603022.139 6  23037381.574        2862.940
  -8172404.473 6  -4571813.646 5  23616791.586       -3170.287
 -21495260.475 7 -12675566.310 6  22724298.076        3355.179
 93  5 10  3 57  0.0010000  0  7 26 17 22  3 16 23 20                0.001297680
  -4484794.186 6  -3503889.383 5  23956188.986       -2059.870
 -15066929.287 8 -11748728.984 7  21514444.149       -1212.324
 -17198585.223 6  -3831809.560 5  24506286.503       -2289.264
 -19126740.172 8 -14909553.086 7  21613163.689       -1280.977
 -16054886.937 7 -12535944.342 6  23053762.814        2875.715
  -8267393.492 6  -4645831.008 5  23598715.979       -3162.170
 -21394447.252 7 -12597010.572 6  22743482.233        3365.656
 93  5 10  3 57 30.0010000  0  7 26 17 22  3 16 23 20                0.001300620
  -4546435.521 6  -3551921.488 5  23944459.462       -2049.761
 -15103142.792 8 -11776947.267 7  21507553.081       -1202.237
 -17267042.701 6  -3885152.984 5  24493259.787       -2274.675
 -19165052.955 8 -14939407.171 7  21605872.944       -1273.567
 -15968432.714 7 -12468577.428 6  23070214.471        2887.660
  -8362131.014 6  -4719652.346 5  23580688.006       -3153.773
 -21293320.995 7 -12518210.893 6  22762726.284        3375.944
 93  5 10  3 58  0.0010000  0  7 26 17 22  3 16 23 20                0.001303600
  -4607763.700 6  -3599709.651 5  23932788.932       -2038.800
 -15139065.587 8 -11804939.022 7  21500717.075       -1192.847
 -17335059.400 6  -3938152.987 5  24480316.432       -2260.042
 -19203142.724 8 -14969087.489 7  21598624.874       -1266.060
 -15881629.347 7 -12400938.424 6  23086732.467        2899.034
  -8456611.796 6  -4793273.647 5  23562708.798       -3145.066
 -21191887.402 7 -12439171.718 6  22782028.210        3386.150
 93  5 10  3 58 30.0010000  0  7 26 17 22  3 16 23 20                0.001306630
  -4668761.012 6  -3647239.921 5  23921181.271       -2027.774
 -15174712.571 8 -11832715.874 7  21493933.709       -1183.624
 -17402652.084 6  -3990822.554 5  24467454.106       -2246.248
 -19241009.189 8 -14998593.807 7  21591418.941       -1258.545
 -15794487.044 7 -12333035.330 6  23103314.839        2910.456
  -8550828.754 6  -4866689.349 5  23544779.539       -3135.752
 -21090150.932 7 -12359896.545 6  22801387.900        3396.312
 93  5 10  3 59  0.0010000  0  7 26 17 22  3 16 23 20                0.001309680
  -4729442.147 6  -3694523.820 5  23909634.430       -2017.525
 -15210092.212 8 -11860284.394 7  21487201.090       -1174.985
 -17469845.124 6  -4043180.712 5  24454667.456       -2233.108
 -19278651.431 8 -15027925.401 7  21584255.840       -1251.069
 -15707011.336 7 -12264872.452 6  23119960.966        2921.478
  -8644760.620 6  -4939882.934 5  23526904.734       -3126.294
 -20988115.058 7 -12280388.079 6  22820804.545        3406.173
 93  5 10  3 59 30.0010000  0  7 26 17 22  3 16 23 20                0.001312760
  -4789820.202 6  -3741571.575 5  23898144.473       -2007.605
 -15245213.159 8 -11887651.359 7  21480517.854       -1166.301
 -17536636.417 6  -4095225.805 5  24441957.516       -2219.553
 -19316066.881 8 -15057080.278 7  21577135.790       -1243.494
 -15619203.964 7 -12196451.122 6  23136670.486        2932.503
  -8738418.182 6  -5012862.770 5  23509081.872       -3117.659
 -20885781.818 7 -12200647.921 6  22840277.833        3416.023
 93  5 10  4  0  0.0010000  0  7 26 17 22  3 16 23 20                0.001315860
  -4849898.176 6  -3788385.540 5  23886711.459       -1997.758
 -15280067.811 8 -11914810.797 7  21473885.190       -1157.214
 -17603014.332 6  -4146948.848 5  24429325.585       -2205.682
 -19353256.376 8 -15086059.075 7  21570059.029       -1236.027
 -15531060.435 7 -12127767.859 5  23153443.633        2943.793
  -8831821.022 6  -5085644.117 5  23491307.817       -3109.238
 -20783156.793 7 -12120680.364 6  22859806.715        3425.616
 93  5 10  4  0 30.0010000  0  7 26 17 22  3 16 23 20                0.001318980
  -4909688.474 6  -3834975.314 5  23875333.840       -1988.512
 -15314637.424 8 -11941748.144 7  21467307.101       -1147.315
 -17668979.416 6  -4198350.135 5  24416772.977       -2191.771
 -19390222.034 8 -15114863.481 7  21563024.669       -1228.584
 -15442568.379 7 -12058812.995 5  23170283.177        2955.754
  -8924969.833 6  -5158227.513 5  23473582.186       -3100.632
 -20680246.594 6 -12040490.577 6  22879389.957        3435.006
 93  5 10  4  1  0.0010000  0  7 26 17 22  3 16 23 20                0.001322120
  -4969197.130 6  -3881345.618 5  23864009.921       -1978.718
 -15348899.893 8 -11968446.146 7  21460786.847       -1136.867
 -17734511.977 6  -4249414.418 5  24404302.435       -2176.993
 -19426959.683 8 -15143490.191 7  21556033.729       -1220.917
 -15353709.027 7 -11989571.960 5  23187192.660        2968.284
  -9017857.049 6  -5230607.078 5  23455906.231       -3092.071
 -20577051.466 6 -11960078.807 6  22899027.265        3444.550
 93  5 10  4  1 30.0010000  0  7 26 17 22  3 16 23 20                0.001325290
  -5028408.166 6  -3927483.970 5  23852742.582       -1968.570
 -15382840.505 8 -11994893.362 7  21454328.218       -1125.631
 -17799598.690 6  -4300131.322 5  24391917.119       -2162.092
 -19463470.414 8 -15171940.098 8  21549085.907       -1213.305
 -15264462.186 7 -11920028.968 5  23204175.633        2981.551
  -9110495.524 6  -5302792.819 5  23438277.689       -3083.682
 -20473577.766 6 -11879449.983 6  22918717.591        3453.744
 93  5 10  4  2  0.0010000  0  7 26 17 22  3 16 23 20                0.001328480
  -5087308.678 6  -3973380.379 5  23841533.693       -1958.263
 -15416432.364 8 -12021068.825 7  21447935.683       -1113.890
 -17864239.016 5  -4350500.357 5  24379616.166       -2147.455
 -19499749.614 8 -15200209.582 7  21542182.228       -1205.592
 -15174812.035 6 -11850171.709 5  23221235.475        2994.929
  -9202866.033 6  -5374769.753 5  23420699.967       -3074.170
 -20369825.521 6 -11798604.086 6  22938461.094        3463.002
 93  5 10  4  2 30.0010000  0  7 26 17 22  3 16 23 20                0.001331700
  -5145900.224 6  -4019036.100 5  23830384.372       -1947.555
 -15449674.643 8 -12046971.880 7  21441609.641       -1102.325
 -17928438.219 5  -4400525.684 5  24367399.215       -2132.384
 -19535792.940 8 -15228295.264 8  21535323.256       -1197.508
 -15084762.910 6 -11780003.545 6  23238371.380        3008.109
  -9294942.783 6  -5446517.792 5  23403178.276       -3064.217
 -20265794.694 6 -11717541.080 6  22958257.691        3472.421
 93  5 10  4  3  0.0010000  0  7 26 17 22  3 16 23 20                0.001334940
  -5204170.300 6  -4064441.276 5  23819295.964       -1937.042
 -15482585.500 8 -12072616.693 7  21435346.628       -1091.871
 -17992189.745 6  -4450202.154 5  24355267.605       -2117.708
 -19571597.218 8 -15256194.676 8  21528509.953       -1189.747
 -14994339.057 6 -11709543.404 6  23255578.348        3019.959
  -9386729.818 6  -5518040.057 5  23385711.589       -3055.012
 -20161487.117 7 -11636262.444 6  22978106.638        3481.361
 93  5 10  4  3 30.0010000  0  7 26 17 22  3 16 23 20                0.001338210
  -5262122.457 6  -4109598.735 5  23808267.879       -1926.630
 -15515180.825 8 -12098015.623 7  21429144.102       -1081.313
 -18055500.566 5  -4499535.236 5  24343219.860       -2103.226
 -19607166.753 8 -15283911.178 8  21521741.379       -1181.971
 -14903568.911 6 -11638813.421 6  23272851.163        3031.005
  -9478245.477 6  -5589350.862 5  23368296.905       -3046.102
 -20056911.483 7 -11554774.954 6  22998006.741        3490.141
 93  5 10  4  4  0.0010000  0  7 26 17 22  3 16 23 20                0.001341500
  -5319770.243 6  -4154519.041 5  23797297.529       -1916.555
 -15547472.167 8 -12123177.702 7  21422999.167       -1071.476
 -18118377.592 5  -4548530.301 5  24331254.847       -2088.479
 -19642506.343 8 -15311448.510 8  21515016.423       -1174.252
 -14812486.060 6 -11567839.788 6  23290183.673        3041.137
  -9569492.306 6  -5660452.207 5  23350932.917       -3037.072
 -19952077.383 6 -11473086.073 5  23017955.999        3498.743
 93  5 10  4  4 30.0010000  0  7 26 17 22  3 16 23 20                0.001344800
  -5377110.229 6  -4199199.446 5  23786385.974       -1906.039
 -15579472.831 8 -12148113.267 7  21416909.762       -1061.799
 -18180809.784 5  -4597178.724 5  24319374.388       -2073.585
 -19677615.010 8 -15338805.876 8  21508335.489       -1166.556
 -14721106.797 6 -11496635.192 6  23307572.583        3050.950
  -9660482.076 6  -5731353.263 5  23333618.382       -3029.090
 -19846988.608 6 -11391198.717 5  23037953.707        3507.163
 93  5 10  4  5  0.0010000  0  7 26 17 22  3 16 23 20                0.001348100
  -5434140.890 6  -4243638.868 5  23775533.237       -1896.115
 -15611177.083 8 -12172817.870 7  21410876.729       -1051.848
 -18242797.273 6  -4645480.621 5  24307578.680       -2059.042
 -19712496.591 8 -15365986.314 8  21501697.876       -1159.121
 -14629430.658 6 -11425199.247 6  23325017.866        3060.915
  -9751238.092 6  -5802072.151 5  23316348.014       -3021.288
 -19741653.260 6 -11309119.207 6  23057998.578        3515.208
 93  5 10  4  5 30.0010000  0  7 26 17 22  3 16 23 20                0.001351420
  -5490869.486 6  -4287842.903 5  23764737.624       -1885.727
 -15642576.090 8 -12197284.620 7  21404901.664       -1041.563
 -18304352.016 6  -4693445.357 5  24295865.486       -2044.577
 -19747151.218 8 -15392989.904 8  21495103.210       -1151.457
 -14537446.799 6 -11353523.515 6  23342521.718        3071.317
  -9841750.039 6  -5872600.884 5  23299124.182       -3012.755
 -19636076.392 6 -11226851.537 5  23078089.110        3523.234
 93  5 10  4  6  0.0010000  0  7 26 17 22  3 16 23 20                0.001354740
  -5547288.044 6  -4331805.340 5  23754002.093       -1875.369
 -15673677.258 8 -12221519.271 7  21398983.492       -1031.936
 -18365467.170 6  -4741067.491 5  24284235.994       -2029.782
 -19781580.104 8 -15419817.588 8  21488551.446       -1143.981
 -14445154.594 6 -11281607.537 6  23360084.308        3081.510
  -9931997.852 6  -5942923.756 5  23281950.742       -3003.740
 -19530264.245 6 -11144400.525 5  23098224.372        3530.977
 93  5 10  4  6 30.0010000  0  7 26 17 22  3 16 23 20                0.001358090
  -5603380.530 6  -4375513.688 5  23743328.163       -1864.097
 -15704492.496 8 -12245531.137 7  21393119.869       -1022.367
 -18426133.751 6  -4788340.106 5  24272691.657       -2014.755
 -19815781.435 8 -15446467.947 8  21482043.230       -1136.286
 -14352555.000 6 -11209452.002 5  23377705.703        3091.829
 -10021976.661 6  -6013037.046 5  23264828.486       -2994.715
 -19424219.722 6 -11061768.456 5  23118404.060        3538.708
 93  5 10  4  7  0.0010000  0  7 26 17 22  3 16 23 20                0.001361460
  -5659135.915 6  -4418959.418 5  23732718.096       -1852.879
 -15735029.837 8 -12269326.450 7  21387308.745       -1013.676
 -18486351.355 6  -4835262.934 5  24261232.461       -1999.817
 -19849754.867 8 -15472940.726 8  21475578.476       -1128.820
 -14259652.848 6 -11137060.706 5  23395384.723        3101.572
 -10111675.344 6  -6082932.054 5  23247759.069       -2985.200
 -19317946.996 6 -10978958.534 5  23138627.173        3546.098
 93  5 10  4  7 30.0010000  0  7 26 17 22  3 16 23 20                0.001364860
  -5714551.241 6  -4462140.123 5  23722173.373       -1841.326
 -15765315.049 8 -12292925.306 7  21381545.464       -1005.263
 -18546123.580 6  -4881838.640 5  24249858.143       -1984.837
 -19883503.234 8 -15499238.145 8  21469156.323       -1121.261
 -14166460.822 6 -11064443.543 5  23413118.497        3111.209
 -10201093.104 6  -6152608.176 5  23230743.061       -2975.957
 -19211453.913 6 -10895976.885 5  23158892.072        3553.464
 93  5 10  4  8  0.0010000  0  7 26 17 22  3 16 23 20                0.001368290
  -5769614.749 6  -4505046.707 5  23711695.039       -1829.515
 -15795346.111 8 -12316326.114 7  21375830.928        -996.671
 -18605443.340 6  -4928061.819 5  24238570.071       -1969.894
 -19917022.464 8 -15525356.992 8  21462777.619       -1113.516
 -14072979.312 6 -10991600.815 5  23430907.381        3120.961
 -10290242.090 6  -6222074.816 5  23213778.504       -2967.351
 -19104740.728 6 -10812823.768 5  23179199.163        3560.829
 93  5 10  4  8 30.0010000  0  7 26 17 22  3 16 23 20                0.001371740
  -5824327.157 6  -4547679.709 5  23701283.870       -1818.088
 -15825115.680 8 -12339523.163 7  21370166.022        -987.899
 -18664329.361 6  -4973947.018 5  24227364.267       -1955.775
 -19950311.661 8 -15551296.611 8  21456442.804       -1105.966
 -13979207.162 6 -10918531.639 5  23448751.616        3130.611
 -10379144.208 6  -6291349.139 5  23196861.126       -2959.377
 -18997811.582 6 -10729502.377 5  23199547.099        3567.842
 93  5 10  4  9  0.0010000  0  7 26 17 22  3 16 23 20                0.001375190
  -5878709.633 6  -4590055.580 5  23690935.063       -1807.443
 -15854620.484 8 -12362513.906 7  21364551.190        -979.094
 -18722792.512 6  -5019502.700 5  24216238.739       -1941.854
 -19983371.653 8 -15577057.633 7  21450151.769       -1098.260
 -13885139.225 6 -10845231.935 5  23466652.121        3140.576
 -10467801.147 6  -6360432.412 5  23179990.265       -2951.023
 -18890671.999 6 -10646017.002 5  23219934.326        3574.794
 93  5 10  4  9 30.0010000  0  7 26 17 22  3 16 23 20                0.001378630
  -5932778.722 6  -4632187.324 5  23680646.030       -1797.095
 -15883851.068 8 -12385290.976 7  21358988.739        -969.364
 -18780841.828 6  -5064735.923 5  24205192.216       -1927.869
 -20016201.973 8 -15602639.672 8  21443904.254       -1090.540
 -13790772.928 6 -10771699.732 5  23484609.293        3150.512
 -10556207.189 6  -6429320.168 5  23163166.804       -2942.443
 -18783326.328 6 -10562371.011 5  23240361.822        3581.634
 93  5 10  4 10  0.0010000  0  7 26 17 22  3 16 23 20                0.001382060
  -5986538.445 6  -4674077.980 5  23670415.718       -1786.880
 -15912786.016 8 -12407837.676 8  21353482.533        -959.605
 -18838466.104 6  -5109637.938 5  24194226.929       -1913.675
 -20048799.621 8 -15628040.412 8  21437701.167       -1082.792
 -13696112.749 6 -10697938.581 5  23502622.623        3160.106
 -10644345.311 6  -6497999.145 5  23146394.795       -2933.204
 -18675776.309 6 -10478565.790 5  23260828.053        3588.385
 93  5 10  4 10 30.0010000  0  7 26 17 22  3 16 23 20                0.001385480
  -6039998.521 6  -4715735.117 5  23660242.468       -1777.047
 -15941429.555 8 -12430157.294 8  21348031.685        -949.920
 -18895654.287 6  -5154200.146 5  24183344.248       -1898.688
 -20081162.701 8 -15653258.367 8  21431542.752       -1074.893
 -13601176.241 6 -10623962.069 5  23520688.347        3169.064
 -10732192.998 6  -6566451.827 5  23129677.920       -2923.104
 -18568024.728 6 -10394603.541 5  23281332.479        3595.101
 93  5 10  4 11  0.0010000  0  7 26 17 22  3 16 23 20                0.001388900
  -6093155.892 6  -4757156.392 5  23650127.057       -1766.699
 -15969780.610 8 -12452249.004 8  21342636.759        -940.131
 -18952389.091 6  -5198409.061 5  24172547.836       -1883.684
 -20113286.227 8 -15678289.667 8  21425429.854       -1066.970
 -13505971.424 6 -10549776.508 5  23538805.161        3177.779
 -10819731.558 6  -6634663.633 5  23113019.867       -2912.886
 -18460071.547 6 -10310484.193 5  23301875.169        3601.693
 93  5 10  4 11 30.0010000  0  7 26 17 22  3 16 23 20                0.001392340
  -6145988.594 6  -4798324.723 5  23640073.288       -1755.389
 -15997833.214 8 -12474108.159 8  21337298.456        -930.068
 -19008661.997 6  -5242258.049 5  24161839.591       -1867.729
 -20145169.385 8 -15703133.662 8  21419362.614       -1058.795
 -13410505.917 6 -10475387.781 5  23556971.664        3186.532
 -10906966.923 6  -6702639.185 5  23096419.872       -2902.911
 -18351920.958 6 -10226211.027 5  23322455.650        3608.314
 93  5 10  4 12  0.0010000  0  7 26 17 22  3 16 23 20                0.001395790
  -6198479.474 6  -4839226.657 5  23630084.807       -1743.847
 -16025597.348 8 -12495742.520 8  21332015.204        -920.894
 -19064455.492 6  -5285733.515 5  24151222.390       -1852.007
 -20176808.687 8 -15727787.652 8  21413341.722       -1050.682
 -13314778.815 6 -10400795.253 5  23575187.866        3195.309
 -10993910.159 6  -6770387.081 5  23079875.004       -2893.397
 -18243573.772 6 -10141784.613 5  23343073.356        3614.843
 93  5 10  4 12 30.0010000  0  7 26 17 22  3 16 23 20                0.001399250
  -6250619.941 6  -4879855.528 5  23620162.869       -1732.058
 -16053089.310 8 -12517164.806 8  21326783.454        -911.815
 -19119778.025 6  -5328841.964 5  24140694.689       -1836.174
 -20208202.878 8 -15752250.672 8  21407367.729       -1042.482
 -13218786.814 6 -10325996.295 5  23593454.470        3204.324
 -11080578.922 6  -6837921.140 6  23063382.224       -2884.572
 -18135033.852 6 -10057208.067 5  23363727.868        3621.171
 93  5 10  4 13  0.0010000  0  7 26 17 22  3 16 23 20                0.001402740
  -6302392.658 6  -4920197.897 5  23610310.382       -1719.594
 -16080304.120 8 -12538371.128 8  21321604.642        -902.548
 -19174631.872 6  -5371585.217 5  24130256.181       -1820.609
 -20239346.795 8 -15776518.626 8  21401441.070       -1034.062
 -13122508.216 6 -10250974.053 5  23611775.907        3214.188
 -11166976.424 6  -6905243.812 5  23046941.103       -2875.467
 -18026301.058 6  -9972481.231 5  23384419.041        3627.559
 93  5 10  4 13 30.0010000  0  7 26 17 22  3 16 23 20                0.001406260
  -6353795.741 6  -4960252.227 5  23600528.459       -1707.273
 -16107240.822 8 -12559360.733 8  21316478.579        -893.267
 -19229011.299 6  -5413958.796 5  24119907.978       -1804.707
 -20270234.727 8 -15800587.106 8  21395563.190       -1025.330
 -13025928.377 6 -10175717.030 5  23630154.194        3224.421
 -11253101.874 6  -6972354.498 6  23030551.871       -2866.172
 -17917374.427 6  -9887603.345 5  23405146.965        3634.153
 93  5 10  4 14  0.0010000  0  7 26 17 22  3 16 23 20                0.001409810
  -6404828.333 6  -5000017.849 5  23590816.948       -1694.760
 -16133896.210 8 -12580131.140 8  21311406.171        -883.665
 -19282919.904 6  -5455965.471 5  24109649.669       -1789.285
 -20300858.165 8 -15824449.505 8  21389735.784       -1016.419
 -12929043.056 6 -10100222.000 5  23648591.071        3234.556
 -11338939.044 6  -7039240.528 6  23014217.709       -2856.297
 -17808249.983 6  -9802571.312 5  23425913.068        3640.804
 93  5 10  4 14 30.0010000  0  7 26 17 22  3 16 23 20                0.001413370
  -6455473.884 6  -5039481.910 5  23581179.459       -1681.557
 -16160251.682 8 -12600667.840 8  21306390.932        -873.321
 -19336365.994 6  -5497611.794 5  24099479.763       -1773.788
 -20331207.538 8 -15848098.356 8  21383960.613       -1007.114
 -12831855.368 6 -10024491.357 5  23667085.459        3244.665
 -11424469.231 6  -7105887.377 6  22997941.608       -2845.644
 -17698923.341 6  -9717381.717 5  23446717.206        3647.636
 93  5 10  4 15  0.0010000  0  7 26 17 22  3 16 23 20                0.001416950
  -6505724.228 6  -5078638.013 5  23571617.289       -1668.302
 -16186299.223 8 -12620964.598 8  21301434.314        -863.154
 -19389349.203 6  -5538897.406 5  24089397.215       -1758.223
 -20361282.233 8 -15871533.158 8  21378237.613        -997.947
 -12734368.360 6  -9948527.484 5  23685636.563        3254.493
 -11509676.846 6  -7172282.872 6  22981727.083       -2834.939
 -17589398.484 6  -9632037.669 5  23467558.978        3654.164
 93  5 10  4 15 30.0010000  0  7 26 17 22  3 16 23 20                0.001420550
  -6555565.566 6  -5117475.389 5  23562132.509       -1654.260
 -16212040.816 8 -12641022.947 8  21296535.926        -852.873
 -19441858.812 6  -5579813.991 5  24079405.045       -1742.284
 -20391077.017 8 -15894749.852 8  21372567.538        -988.500
 -12636591.284 6  -9872337.556 5  23704242.931        3263.913
 -11594561.352 6  -7238426.599 6  22965574.273       -2823.825
 -17479675.058 6  -9546538.932 5  23488438.613        3660.836
 93  5 10  4 16  0.0010000  0  7 26 17 22  3 16 23 20                0.001424170
  -6604982.549 6  -5155982.093 5  23552729.040       -1640.118
 -16237479.421 8 -12660845.214 8  21291695.485        -843.042
 -19493895.082 6  -5620361.736 5  24069503.054       -1726.536
 -20420587.530 8 -15917745.031 8  21366951.897        -979.088
 -12538543.116 6  -9795936.385 5  23722900.850        3272.585
 -11679104.154 6  -7304304.055 6  22949486.130       -2812.293
 -17369753.797 6  -9460886.015 5  23509355.832        3667.297
 93  5 10  4 16 30.0010000  0  7 26 17 22  3 16 23 20                0.001427830
  -6653974.490 6  -5194157.635 5  23543405.978       -1626.200
 -16262627.447 8 -12680441.042 8  21286910.099        -833.566
 -19545432.519 6  -5660520.772 5  24059695.650       -1709.314
 -20449812.124 8 -15940517.419 8  21361390.706        -969.472
 -12440231.480 6  -9719329.919 5  23741609.025        3281.536
 -11763300.856 6  -7369911.809 6  22933463.893       -2800.847
 -17259637.696 6  -9375081.252 5  23530310.266        3673.737
 93  5 10  4 17  0.0010000  0  7 26 17 22  3 16 23 20                0.001431530
  -6702556.895 6  -5232014.039 5  23534161.128       -1612.873
 -16287499.002 8 -12699821.446 8  21282177.245        -824.612
 -19596447.337 6  -5700272.601 5  24049987.861       -1691.731
 -20478748.534 8 -15963065.258 8  21355884.249        -959.916
 -12341650.357 6  -9642513.474 5  23760368.228        3290.316
 -11847159.769 6  -7435256.368 6  22917506.321       -2789.818
 -17149329.302 6  -9289126.641 5  23551301.223        3680.049
 93  5 10  4 17 30.0010000  0  7 26 17 22  3 16 23 20                0.001435270
  -6750745.889 6  -5269563.895 5  23524991.161       -1599.778
 -16312101.172 8 -12718991.928 8  21277495.367        -815.386
 -19646931.472 6  -5739610.880 5  24040380.731       -1674.009
 -20507395.460 8 -15985387.519 8  21350432.934        -950.169
 -12242811.838 6  -9565496.482 5  23779176.527        3298.697
 -11930686.390 6  -7500341.989 6  22901611.545       -2778.629
 -17038832.152 6  -9203024.997 5  23572328.104        3686.360
 93  5 10  4 18  0.0010000  0  7 26 17 22  3 16 23 20                0.001439060
  -6798555.092 6  -5306817.758 5  23515893.225       -1587.372
 -16336422.578 8 -12737943.644 8  21272867.024        -805.918
 -19696887.894 6  -5778537.958 5  24030874.395       -1656.240
 -20535753.115 8 -16007484.375 8  21345036.767        -940.497
 -12143727.217 6  -9488287.700 5  23798032.205        3307.184
 -12013885.295 6  -7565172.247 6  22885779.366       -2768.068
 -16928151.773 6  -9116780.552 5  23593389.884        3692.380
 93  5 10  4 18 30.0010000  0  7 26 17 22  3 16 23 20                0.001442880
  -6845989.138 6  -5343779.385 5  23506866.593       -1575.129
 -16360449.585 8 -12756665.968 8  21268294.816        -795.912
 -19746306.011 6  -5817045.560 5  24021470.118       -1638.781
 -20563818.948 8 -16029353.823 8  21339695.928        -930.884
 -12044371.305 6  -9410867.546 5  23816938.590        3316.434
 -12096778.161 6  -7629764.065 6  22870005.326       -2758.257
 -16817289.931 6  -9030394.714 5  23614486.363        3698.236
 93  5 10  4 19  0.0010000  0  7 26 17 22  3 16 23 20                0.001446730
  -6893047.311 6  -5380448.077 5  23497911.762       -1562.019
 -16384166.131 8 -12775146.372 8  21263781.531        -785.077
 -19795219.122 6  -5855159.709 5  24012162.496       -1622.083
 -20591594.943 8 -16050997.432 8  21334410.246        -921.100
 -11944744.887 6  -9333236.587 5  23835897.270        3325.265
 -12179370.293 6  -7694121.537 6  22854288.324       -2747.821
 -16706253.882 6  -8943873.120 5  23635615.685        3704.122
 93  5 10  4 19 30.0010000  0  7 26 17 22  3 16 23 20                0.001450590
  -6939708.442 6  -5416807.359 5  23489032.471       -1548.570
 -16407548.979 8 -12793366.732 8  21259331.972        -773.703
 -19843630.495 6  -5892882.852 5  24002950.239       -1605.251
 -20619077.378 8 -16072412.303 8  21329180.324        -911.234
 -11844855.470 6  -9255400.717 5  23854905.461        3334.132
 -12261645.478 6  -7758231.989 6  22838631.863       -2737.137
 -16595044.523 6  -8857216.477 5  23656778.504        3709.883
 93  5 10  4 20  0.0010000  0  7 26 17 22  3 16 23 20                0.001454470
  -6985965.493 6  -5452851.790 5  23480230.456       -1535.090
 -16430598.957 8 -12811327.736 8  21254945.658        -762.970
 -19891538.049 6  -5930213.409 5  23993833.865       -1588.466
 -20646263.359 8 -16093596.169 8  21324006.888        -901.304
 -11744694.190 6  -9177352.981 5  23873965.347        3343.462
 -12343599.441 6  -7822092.195 6  22823036.452       -2726.297
 -16483664.022 6  -8770426.515 5  23677973.392        3715.566
 93  5 10  4 20 30.0010000  0  7 26 17 22  3 16 23 20                0.001458360
  -7031810.793 6  -5488575.414 5  23471506.624       -1521.297
 -16453333.240 8 -12829042.734 8  21250619.212        -752.612
 -19938948.783 6  -5967156.879 5  23984812.100       -1572.378
 -20673154.745 8 -16114550.468 8  21318889.921        -891.620
 -11644262.776 6  -9099094.755 5  23893076.875        3351.770
 -12425220.632 6  -7885693.092 6  22807504.694       -2714.934
 -16372118.883 6  -8683508.236 5  23699199.706        3720.865
 93  5 10  4 21  0.0010000  0  7 26 17 22  3 16 23 20                0.001462270
  -7077231.417 6  -5523968.072 5  23462863.249       -1506.824
 -16475758.304 8 -12846516.795 8  21246351.737        -742.459
 -19985868.909 6  -6003718.041 5  23975883.308       -1555.434
 -20699750.946 8 -16135274.773 8  21313828.773        -881.717
 -11543591.695 6  -9020649.792 5  23912234.067        3359.707
 -12506487.977 6  -7949018.242 6  22792039.900       -2702.845
 -16260413.750 6  -8596465.287 5  23720456.472        3726.144
 93  5 10  4 21 30.0010000  0  7 26 17 22  3 16 23 20                0.001466210
  -7122227.576 6  -5559030.005 5  23454300.521       -1492.890
 -16497888.283 8 -12863760.902 8  21242140.611        -733.029
 -20032272.400 6  -6039876.556 5  23967052.840       -1538.363
 -20726050.521 8 -16155767.921 8  21308824.197        -871.840
 -11442672.107 6  -8942011.161 5  23931438.320        3368.141
 -12587395.584 6  -8012063.078 6  22776643.727       -2690.866
 -16148551.682 6  -8509300.042 5  23741742.991        3731.303
 93  5 10  4 22  0.0010000  0  7 26 17 22  3 16 23 20                0.001470180
  -7166795.584 6  -5593758.291 5  23445819.647       -1478.293
 -16519738.825 8 -12880787.280 8  21237982.481        -723.653
 -20078170.828 6  -6075641.610 5  23958318.817       -1521.539
 -20752048.523 8 -16176026.071 8  21303877.004        -861.643
 -11341496.955 6  -8863173.420 5  23950691.210        3376.854
 -12667931.473 6  -8074818.279 6  22761318.045       -2678.288
 -16036532.753 6  -8422012.588 5  23763059.329        3736.618
 93  5 10  4 22 30.0010000  0  7 26 17 22  3 16 23 20                0.001474170
  -7210920.054 6  -5628140.991 5  23437422.317       -1463.495
 -16541302.291 8 -12897589.957 8  21233879.223        -713.990
 -20123566.707 6  -6111015.038 5  23949680.195       -1504.799
 -20777740.903 8 -16196046.111 8  21298987.947        -851.488
 -11240060.770 6  -8784132.294 5  23969993.610        3385.400
 -12748090.375 6  -8137279.726 6  22746064.558       -2665.782
 -15924357.890 6  -8334603.645 5  23784405.748        3741.646
 93  5 10  4 23  0.0010000  0  7 26 17 22  3 16 23 20                0.001478200
  -7254611.716 6  -5662186.424 5  23429108.564       -1449.408
 -16562583.450 8 -12914172.647 8  21229829.655        -704.864
 -20168456.213 6  -6145993.848 5  23941138.182       -1487.837
 -20803131.298 8 -16215830.816 8  21294156.222        -841.489
 -11138367.216 6  -8704890.620 5  23989345.350        3394.088
 -12827886.102 7  -8199458.160 6  22730879.878       -2653.933
 -15812035.693 6  -8247079.864 5  23805780.104        3746.392
 93  5 10  4 23 30.0010000  0  7 26 17 22  3 16 23 20                0.001482260
  -7297886.685 6  -5695907.173 5  23420873.432       -1435.611
 -16583594.570 8 -12930544.937 8  21225831.054        -695.985
 -20212841.350 6  -6180579.711 5  23932692.164       -1471.363
 -20828221.130 8 -16235381.324 8  21289381.760        -831.457
 -11036421.351 6  -8625452.321 5  24008744.989        3402.038
 -12907326.091 7  -8261359.418 6  22715762.963       -2642.116
 -15699572.495 6  -8159446.186 5  23827181.163        3751.127
 93  5 10  4 24  0.0010000  0  7 26 17 22  3 16 23 20                0.001486330
  -7340744.072 6  -5729302.497 5  23412717.971       -1421.682
 -16604334.083 8 -12946705.566 8  21221884.445        -686.676
 -20256731.665 6  -6214779.940 5  23924339.801       -1454.525
 -20853004.953 8 -16254693.375 8  21284665.473        -821.151
 -10934239.307 6  -8545830.063 5  24028189.793        3409.854
 -12986413.680 7  -8322986.086 6  22700712.984       -2630.605
 -15586967.404 6  -8071701.987 5  23848609.643        3755.861
 93  5 10  4 24 30.0010000  0  7 26 17 22  3 16 23 20                0.001490430
  -7383185.883 6  -5762374.013 5  23404641.934       -1407.962
 -16624795.796 8 -12962649.747 8  21217990.809        -677.546
 -20300107.975 6  -6248579.633 5  23916085.233       -1437.315
 -20877483.060 8 -16273767.204 8  21280007.318        -810.995
 -10831839.811 6  -8466038.288 5  24047675.563        3416.621
 -13065165.003 7  -8384350.697 6  22685727.238       -2619.519
 -15474225.630 6  -7983851.271 5  23870063.521        3760.264
 93  5 10  4 25  0.0010000  0  7 26 17 22  3 16 23 20                0.001494530
  -7425220.090 6  -5795127.910 5  23396643.287       -1394.255
 -16644984.269 8 -12978381.002 8  21214149.209        -668.339
 -20342970.392 6  -6281978.938 5  23907929.038       -1420.213
 -20901654.332 8 -16292601.944 8  21275407.772        -800.665
 -10729238.828 6  -8386089.511 5  24067199.776        3423.338
 -13143587.467 6  -8445459.078 6  22670803.950       -2608.566
 -15361351.325 6  -7895897.310 5  23891542.473        3764.628
 93  5 10  4 25 30.0010000  0  7 26 17 22  3 16 23 20                0.001498650
  -7466835.532 6  -5827555.528 5  23388724.031       -1380.054
 -16664893.297 8 -12993894.520 8  21210360.922        -658.833
 -20385324.342 6  -6314982.040 5  23899869.426       -1403.447
 -20925516.384 8 -16311195.729 8  21270866.965        -790.386
 -10626440.685 6  -8305987.111 5  24086761.815        3429.961
 -13221679.905 7  -8506310.292 6  22655943.225       -2597.753
 -15248346.656 6  -7807841.726 5  23913046.641        3768.943
 93  5 10  4 26  0.0010000  0  7 26 17 22  3 16 23 20                0.001502780
  -7508016.021 6  -5859644.175 5  23380887.168       -1365.277
 -16684508.440 8 -13009179.020 8  21206628.297        -648.706
 -20427175.205 6  -6347593.047 5  23891905.461       -1386.591
 -20949068.374 8 -16329547.920 8  21266385.289        -780.092
 -10523437.754 6  -8225725.188 5  24106362.761        3436.712
 -13299452.045 7  -8566911.929 6  22641143.553       -2587.059
 -15135215.879 6  -7719687.879 5  23934574.359        3773.002
 93  5 10  4 26 30.0010000  0  7 26 17 22  3 16 23 20                0.001506900
  -7548749.566 6  -5891384.605 5  23373135.492       -1350.383
 -16703813.666 8 -13024222.041 8  21202954.731        -638.259
 -20468522.148 6  -6379811.444 5  23884037.595       -1369.988
 -20972313.688 8 -16347661.136 8  21261961.729        -769.815
 -10420238.886 6  -8145310.445 5  24126000.772        3443.442
 -13376901.086 7  -8627261.791 6  22626405.336       -2576.139
 -15021967.336 6  -7631442.279 5  23956124.919        3776.974
 93  5 10  4 27  0.0010000  0  7 26 17 22  3 16 23 20                0.001511030
  -7589036.870 6  -5922777.287 5  23365469.635       -1335.389
 -16722798.276 8 -13039015.229 8  21199342.040        -627.359
 -20509374.205 6  -6411644.248 5  23876263.879       -1353.370
 -20995247.519 8 -16365531.645 8  21257597.611        -759.322
 -10316829.180 6  -8064731.442 5  24145679.255        3450.540
 -13454018.093 7  -8687352.932 6  22611730.734       -2564.914
 -14908600.823 6  -7543104.779 5  23977698.046        3780.848
 93  5 10  4 27 30.0010000  0  7 26 17 22  3 16 23 20                0.001515170
  -7628868.982 6  -5953815.235 5  23357889.579       -1320.099
 -16741455.768 8 -13053553.518 8  21195791.470        -616.407
 -20549724.479 6  -6443085.991 5  23868585.122       -1336.523
 -21017866.578 8 -16383156.865 8  21253293.480        -748.752
 -10213206.118 6  -7983986.246 5  24165398.194        3457.745
 -13530796.568 7  -8747180.296 6  22597120.149       -2553.439
 -14795118.192 6  -7454676.756 5  23999293.546        3784.707
 93  5 10  4 28  0.0010000  0  7 26 17 22  3 16 23 20                0.001519310
  -7668246.656 6  -5984499.136 5  23350395.595       -1305.027
 -16759791.015 8 -13067840.717 8  21192302.234        -605.908
 -20589561.872 6  -6474128.112 5  23861004.224       -1319.111
 -21040169.343 8 -16400535.627 8  21249049.360        -738.251
 -10109370.341 6  -7903075.253 5  24185157.293        3464.591
 -13607220.666 7  -8806731.496 6  22582577.116       -2541.361
 -14681522.666 6  -7366160.770 5  24020910.197        3788.338
 93  5 10  4 28 30.0010000  0  7 26 17 22  3 16 23 20                0.001523470
  -7707182.991 6  -6014839.118 5  23342986.571       -1290.884
 -16777824.574 8 -13081892.814 8  21188870.390        -596.699
 -20628871.044 6  -6504758.634 5  23853523.981       -1301.565
 -21062156.962 8 -16417668.831 8  21244865.455        -727.895
 -10005327.339 6  -7822002.793 5  24204956.318        3471.487
 -13683288.450 7  -8866005.069 6  22568101.927       -2530.051
 -14567820.192 6  -7277561.501 5  24042546.902        3791.678
 93  5 10  4 29  0.0010000  0  7 26 17 22  3 16 23 20                0.001527670
  -7745694.092 6  -6044847.723 5  23335658.407       -1276.500
 -16795595.067 8 -13095739.936 8  21185488.950        -588.204
 -20667645.494 6  -6534972.480 5  23846145.347       -1283.351
 -21083831.359 8 -16434557.937 8  21240740.851        -717.323
  -9901079.315 6  -7740770.521 5  24224794.334        3478.226
 -13759018.146 7  -8925015.186 6  22553690.805       -2518.623
 -14454017.475 6  -7188884.067 5  24064202.843        3795.108
 93  5 10  4 29 30.0010000  0  7 26 17 22  3 16 23 20                0.001531900
  -7783771.197 6  -6074518.182 5  23328412.479       -1261.946
 -16813124.619 8 -13109399.300 8  21182153.199        -580.423
 -20705869.027 6  -6564757.028 5  23838871.113       -1264.786
 -21105191.312 8 -16451202.041 8  21236675.915        -706.807
  -9796640.775 6  -7659389.877 5  24244668.093        3484.431
 -13834403.417 7  -8983756.928 6  22539345.313       -2506.889
 -14340118.435 6  -7100131.607 5  24085877.246        3798.198
 93  5 10  4 30  0.0010000  0  7 26 17 22  3 16 23 20                0.001536160
  -7821417.618 6  -6103853.041 5  23321248.901       -1247.768
 -16830428.634 8 -13122882.926 8  21178860.448        -573.151
 -20743533.481 6  -6594105.974 5  23831703.965       -1246.117
 -21126235.255 8 -16467599.904 8  21232671.208        -696.323
  -9692025.522 6  -7577871.503 5  24264575.794        3490.032
 -13909432.913 7  -9042221.439 6  22525067.761       -2495.167
 -14226126.080 6  -7011306.373 5  24107569.059        3801.264
 93  5 10  4 30 30.0010000  0  7 26 17 22  3 16 23 20                0.001540470
  -7858634.691 6  -6132853.332 5  23314167.032       -1233.383
 -16847511.266 8 -13136194.043 8  21175609.750        -565.858
 -20780641.797 6  -6623021.548 5  23824642.650       -1227.814
 -21146959.043 8 -16483748.289 8  21228727.857        -685.545
  -9587236.105 6  -7496217.448 5  24284516.700        3495.818
 -13984111.820 7  -9100412.779 6  22510856.988       -2483.320
 -14112041.821 6  -6922409.645 5  24129278.634        3804.216
 93  5 10  4 31  0.0010000  0  7 26 17 22  3 16 23 20                0.001544800
  -7895407.007 6  -6161507.016 5  23307169.333       -1218.069
 -16864370.304 8 -13149330.936 8  21172401.659        -557.868
 -20817203.321 6  -6651511.014 5  23817685.461       -1209.559
 -21167359.349 8 -16499644.614 8  21224845.885        -674.680
  -9482273.543 6  -7414428.460 5  24304490.210        3501.683
 -14058417.784 7  -9158313.501 6  22496717.196       -2470.319
 -13997866.669 6  -6833442.011 5  24151005.708        3807.297
 93  5 10  4 31 30.0010000  0  7 26 17 22  3 16 23 20                0.001549150
  -7931716.587 6  -6189800.202 5  23300259.158       -1202.679
 -16880974.643 8 -13162269.361 8  21169242.069        -548.999
 -20853223.324 6  -6679578.540 5  23810831.226       -1191.772
 -21187432.479 8 -16515285.998 8  21221026.060        -663.734
  -9377130.165 6  -7332498.576 5  24324498.191        3507.845
 -14132331.721 7  -9215908.729 6  22482651.834       -2457.357
 -13883602.436 6  -6744404.952 5  24172749.084        3810.331
 93  5 10  4 32  0.0010000  0  7 26 17 22  3 16 23 20                0.001553530
  -7967574.451 6  -6217741.361 5  23293435.399       -1187.693
 -16897310.347 8 -13174998.468 8  21166133.411        -539.834
 -20888711.661 6  -6707231.793 5  23804077.987       -1174.351
 -21207177.475 8 -16530671.701 8  21217268.730        -652.855
  -9271796.751 6  -7250420.645 5  24344542.692        3514.423
 -14205865.482 7  -9273207.737 6  22468658.762       -2445.088
 -13769252.423 6  -6655301.064 5  24194509.022        3813.053
 93  5 10  4 32 30.0010000  0  7 26 17 22  3 16 23 20                0.001557920
  -8002975.798 6  -6245326.777 5  23286699.372       -1172.238
 -16913357.494 8 -13187502.718 8  21163079.566        -529.983
 -20923686.051 6  -6734484.552 5  23797422.707       -1157.226
 -21226595.716 8 -16545802.772 8  21213573.488        -641.840
  -9166261.264 6  -7168185.273 5  24364625.291        3521.301
 -14279036.420 7  -9330224.047 6  22454734.661       -2432.857
 -13654822.497 6  -6566134.974 5  24216283.986        3815.797
 93  5 10  4 33  0.0010000  0  7 26 17 22  3 16 23 20                0.001562320
  -8037907.127 6  -6272545.956 5  23280052.441       -1156.745
 -16929098.365 8 -13199768.313 9  21160083.921        -519.383
 -20958144.981 6  -6761335.650 5  23790865.278       -1140.187
 -21245678.486 8 -16560672.442 8  21209942.144        -630.703
  -9060516.841 6  -7085787.067 5  24384747.661        3528.265
 -14351842.179 7  -9386955.747 6  22440880.173       -2421.120
 -13540309.274 6  -6476903.925 5  24238074.908        3818.339
 93  5 10  4 33 30.0010000  0  7 26 17 22  3 16 23 20                0.001566740
  -8072384.518 6  -6299411.468 5  23273490.736       -1141.795
 -16944518.552 8 -13211784.028 9  21157149.490        -508.854
 -20992099.736 6  -6787793.895 5  23784403.910       -1123.436
 -21264430.385 8 -16575284.306 8  21206373.772        -619.623
  -8954568.057 6  -7003229.624 5  24404909.563        3535.023
 -14424304.701 7  -9443420.029 6  22427090.777       -2409.640
 -13425722.139 6  -6387615.248 5  24259880.104        3820.746
 93  5 10  4 34  0.0010000  0  7 26 17 22  3 16 23 20                0.001571160
  -8106411.918 6  -6325926.280 5  23267015.259       -1126.550
 -16959633.593 8 -13223561.959 9  21154273.200        -498.847
 -21025553.468 6  -6813861.723 5  23778037.838       -1106.976
 -21282849.422 8 -16589636.792 8  21202868.779        -608.587
  -8848412.503 6  -6920511.053 5  24425110.496        3541.874
 -14496421.324 7  -9499614.772 6  22413367.548       -2398.164
 -13311064.100 6  -6298271.338 5  24281698.944        3822.990
 93  5 10  4 34 30.0010000  0  7 26 17 22  3 16 23 20                0.001575590
  -8139970.432 6  -6352075.756 5  23260629.280       -1110.891
 -16974452.205 8 -13235108.912 9  21151453.193        -489.253
 -21058512.691 6  -6839544.221 5  23771765.895       -1090.305
 -21300935.458 8 -16603729.782 8  21199427.153        -597.459
  -8742067.230 6  -6837644.617 5  24445347.519        3547.856
 -14568186.998 7  -9555536.058 6  22399711.064       -2386.160
 -13196339.775 6  -6208875.807 5  24303530.098        3825.180
 93  5 10  4 35  0.0010000  0  7 26 17 22  3 16 23 20                0.001580030
  -8173058.849 6  -6377858.876 5  23254333.120       -1095.185
 -16988988.573 8 -13246435.933 9  21148687.028        -479.889
 -21090967.685 6  -6864833.828 5  23765590.111       -1073.424
 -21318687.400 8 -16617562.455 8  21196048.832        -586.264
  -8635541.921 6  -6754637.946 5  24465618.644        3553.699
 -14639584.526 7  -9611170.442 6  22386124.778       -2373.757
 -13081552.821 6  -6119431.475 5  24325373.923        3827.165
 93  5 10  4 35 30.0010000  0  7 26 17 22  3 16 23 20                0.001584480
  -8205674.084 6  -6403273.349 5  23248126.469       -1079.043
 -17003252.045 8 -13257550.307 9  21145972.698        -471.151
 -21122913.361 6  -6889726.526 5  23759511.162       -1056.204
 -21336103.322 8 -16631133.300 8  21192734.485        -574.970
  -8528847.921 5  -6671499.831 5  24485921.412        3559.170
 -14710603.799 7  -9666510.114 6  22372610.385       -2360.860
 -12966706.421 6  -6029940.768 5  24347228.786        3829.254
 93  5 10  4 36  0.0010000  0  7 26 17 22  3 16 23 20                0.001588940
  -8237799.927 6  -6428306.443 5  23242012.673       -1062.592
 -17017260.968 8 -13268466.328 9  21143306.752        -462.571
 -21154339.455 6  -6914214.390 5  23753530.421       -1038.788
 -21353180.291 8 -16644440.011 8  21189484.825        -563.656
  -8422003.603 5  -6588244.522 5  24506253.304        3563.705
 -14781245.270 7  -9721555.382 6  22359167.409       -2348.568
 -12851802.476 6  -5940405.285 5  24369094.207        3831.081
 93  5 10  4 36 30.0010000  0  7 26 17 22  3 16 23 20                0.001593400
  -8269436.686 6  -6452958.435 5  23235993.287       -1046.570
 -17031010.615 8 -13279180.321 9  21140690.184        -453.963
 -21185237.455 6  -6938290.739 5  23747650.641       -1020.848
 -21369918.760 8 -16657482.957 8  21186299.790        -552.403
  -8315035.062 5  -6504892.441 5  24526608.891        3567.832
 -14851515.051 7  -9776311.014 6  22345795.339       -2336.024
 -12736846.121 5  -5850828.972 5  24390969.680        3832.755
 93  5 10  4 37  0.0010000  0  7 26 17 22  3 16 23 20                0.001597870
  -8300600.297 6  -6477241.757 5  23230063.250       -1030.852
 -17044505.775 8 -13289696.015 9  21138122.040        -445.610
 -21215596.887 6  -6961947.437 5  23741873.484       -1003.005
 -21386318.214 8 -16670261.746 8  21183179.181        -541.074
  -8207932.926 5  -6421436.222 5  24546989.698        3572.280
 -14921415.538 7  -9830778.892 6  22332493.657       -2324.068
 -12621841.868 5  -5761215.306 5  24412854.036        3834.293
 93  5 10  4 37 30.0010000  0  7 26 17 22  3 16 23 20                0.001602350
  -8331289.469 6  -6501155.377 5  23224223.499       -1015.130
 -17057751.229 8 -13300017.128 9  21135601.498        -437.325
 -21245415.054 6  -6985182.332 5  23736199.174        -984.737
 -21402376.128 8 -16682774.411 8  21180123.606        -529.694
  -8100698.750 6  -6337877.160 5  24567395.495        3576.597
 -14990960.262 7  -9884969.576 6  22319259.608       -2312.232
 -12506791.809 5  -5671565.890 5  24434747.402        3835.668
 93  5 10  4 38  0.0010000  0  7 26 17 22  3 16 23 20                0.001606850
  -8361512.189 6  -6524705.528 5  23218472.451        -999.711
 -17070743.661 8 -13310141.081 9  21133129.120        -428.768
 -21274685.079 6  -7007990.118 5  23730628.705        -966.501
 -21418092.836 8 -16695021.171 8  21177132.905        -518.283
  -7993334.336 6  -6254216.557 5  24587826.062        3581.126
 -15060149.458 7  -9938883.207 6  22306093.373       -2300.210
 -12391701.354 5  -5581885.073 5  24456648.580        3837.062
 93  5 10  4 38 30.0010000  0  7 26 17 22  3 16 23 20                0.001611360
  -8391278.774 6  -6547900.245 5  23212807.398        -984.719
 -17083481.646 8 -13320066.761 9  21130705.318        -420.473
 -21303410.484 6  -7030373.565 5  23725162.693        -948.509
 -21433469.272 8 -16707002.804 8  21174206.711        -506.993
  -7885833.109 6  -6170449.406 5  24608283.132        3585.694
 -15128971.773 7  -9992510.953 6  22292996.851       -2287.935
 -12276575.596 6  -5492176.736 5  24478556.112        3838.034
 93  5 10  4 39  0.0010000  0  7 26 17 22  3 16 23 20                0.001615880
  -8420587.982 6  -6570738.605 5  23207230.239        -969.044
 -17095969.019 8 -13329797.173 9  21128328.900        -411.906
 -21331595.700 6  -7052336.021 5  23719799.223        -930.593
 -21448504.534 8 -16718718.587 8  21171345.534        -495.597
  -7778190.111 6  -6086571.775 5  24628766.940        3590.286
 -15197425.911 7 -10045851.800 6  22279970.518       -2275.655
 -12161419.084 6  -5402444.421 5  24500469.896        3839.047
 93  5 10  4 39 30.0010000  0  7 26 17 22  3 16 23 20                0.001620420
  -8449423.687 6  -6593207.949 5  23201742.934        -953.250
 -17108188.135 8 -13339318.535 9  21126003.862        -402.675
 -21359242.616 6  -7073879.054 5  23714538.349        -912.417
 -21463197.786 8 -16730167.865 8  21168549.468        -484.065
  -7670415.644 6  -6002591.653 5  24649275.562        3594.831
 -15265507.072 7 -10098902.030 6  22267015.146       -2262.957
 -12046235.546 6  -5312691.057 5  24522388.729        3840.007
 93  5 10  4 40  0.0010000  0  7 26 17 22  3 16 23 20                0.001624960
  -8477784.390 6  -6615307.165 5  23196345.525        -937.314
 -17120133.950 8 -13348626.945 9  21123730.725        -393.769
 -21386349.580 6  -7095001.333 5  23709379.807        -894.648
 -21477545.427 8 -16741347.826 8  21165819.009        -472.626
  -7562511.780 6  -5918510.699 5  24669809.025        3599.026
 -15333202.851 7 -10151651.952 6  22254133.025       -2250.156
 -11931026.102 5  -5222917.565 5  24544312.480        3840.634
 93  5 10  4 40 30.0010000  0  7 26 17 22  3 16 23 20                0.001629510
  -8505664.419 6  -6637031.853 5  23191040.377        -921.239
 -17131816.247 8 -13357730.018 9  21121507.595        -384.882
 -21412921.037 6  -7115706.351 5  23704323.546        -876.622
 -21491550.065 8 -16752260.532 8  21163154.104        -461.127
  -7454474.882 6  -5834326.081 5  24690367.737        3603.582
 -15400518.188 7 -10204105.421 7  22241323.272       -2237.491
 -11815798.085 5  -5133129.556 5  24566240.016        3841.274
 93  5 10  4 41  0.0010000  0  7 26 17 22  3 16 23 20                0.001634070
  -8533058.615 6  -6658377.971 5  23185827.919        -905.112
 -17143229.335 8 -13366623.310 9  21119335.897        -375.962
 -21438948.490 6  -7135987.474 5  23699370.995        -858.562
 -21505207.106 8 -16762902.374 8  21160555.163        -449.600
  -7346298.402 6  -5750032.674 5  24710952.735        3608.167
 -15467451.830 7 -10256261.495 7  22228586.030       -2224.672
 -11700551.889 5  -5043327.338 5  24588170.588        3841.708
 93  5 10  4 41 30.0010000  0  7 26 17 22  3 16 23 20                0.001638650
  -8559975.718 6  -6679352.311 5  23180705.600        -889.390
 -17154376.365 8 -13375309.295 9  21117214.708        -367.335
 -21464430.633 6  -7155843.672 5  23694521.658        -840.200
 -21518517.420 8 -16773274.037 8  21158022.285        -437.935
  -7237987.810 6  -5665634.785 5  24731563.832        3612.469
 -15533992.317 7 -10308111.184 7  22215923.628       -2211.237
 -11585293.080 5  -4953515.387 5  24610103.473        3842.208
 93  5 10  4 42  0.0010000  0  7 26 17 22  3 16 23 20                0.001643240
  -8586417.301 6  -6699956.120 5  23175673.976        -873.470
 -17165276.088 8 -13383802.554 9  21115140.532        -359.210
 -21489369.181 6  -7175276.303 5  23689776.219        -822.238
 -21531478.947 8 -16783373.913 8  21155555.774        -426.358
  -7129553.486 6  -5581140.528 5  24752198.407        3616.467
 -15600130.718 7 -10359647.566 7  22203338.048       -2198.066
 -11470024.545 6  -4863695.776 5  24632038.404        3842.354
 93  5 10  4 42 30.0010000  0  7 26 17 22  3 16 23 20                0.001647830
  -8612385.579 6  -6720191.129 5  23170732.085        -857.730
 -17175925.708 8 -13392100.949 9  21113114.105        -350.642
 -21513762.499 6  -7194284.039 5  23685134.579        -804.128
 -21544090.076 8 -16793200.767 8  21153155.763        -414.529
  -7021000.821 5  -5496554.070 5  24772854.701        3620.194
 -15665878.929 7 -10410879.921 7  22190826.712       -2185.104
 -11354749.015 5  -4773870.732 5  24653974.550        3842.649
 93  5 10  4 43  0.0010000  0  7 26 17 22  3 16 23 20                0.001652430
  -8637876.751 6  -6740054.381 5  23165881.448        -841.635
 -17186314.396 8 -13400196.019 9  21111137.461        -341.941
 -21537625.490 6  -7212878.566 5  23680593.727        -786.819
 -21556342.888 8 -16802748.398 8  21150824.049        -402.549
  -6912348.209 5  -5411889.698 5  24793530.198        3623.296
 -15731233.914 7 -10461805.840 7  22178390.261       -2172.057
 -11239463.643 5  -4684038.019 5  24675912.714        3842.987
 93  5 10  4 43 30.0010000  0  7 26 17 22  3 16 23 20                0.001657020
  -8662882.346 6  -6759539.218 5  23161123.209        -825.307
 -17196443.593 8 -13408088.887 9  21109209.810        -333.461
 -21560974.644 6  -7231072.731 5  23676150.560        -769.812
 -21568235.714 8 -16812015.528 8  21148561.074        -390.524
  -6803602.526 5  -5327152.838 5  24814224.141        3626.363
 -15796213.842 7 -10512439.500 7  22166024.771       -2160.007
 -11124171.332 5  -4594199.969 5  24697852.274        3843.195
 93  5 10  4 44  0.0010000  0  7 26 17 22  3 16 23 20                0.001661600
  -8687395.885 6  -6778640.681 5  23156458.636        -808.982
 -17206322.056 8 -13415786.367 9  21107329.889        -324.956
 -21583821.631 6  -7248875.548 5  23671802.563        -753.135
 -21579767.495 8 -16821001.326 8  21146366.755        -378.435
  -6694761.095 5  -5242341.346 5  24834936.284        3629.871
 -15860841.106 7 -10562798.388 7  22153726.434       -2148.471
 -11008875.951 5  -4504359.449 5  24719791.980        3843.293
 93  5 10  4 44 30.0010000  0  7 26 17 22  3 16 23 20                0.001666170
  -8711431.068 6  -6797369.369 5  23151885.034        -793.220
 -17215945.721 8 -13423285.322 9  21105498.479        -316.571
 -21606169.872 6  -7266289.714 5  23667549.548        -736.872
 -21590940.144 8 -16829707.284 8  21144240.717        -366.640
  -6585813.518 5  -5157447.098 5  24855668.118        3633.371
 -15925123.680 7 -10612888.688 7  22141493.952       -2136.875
 -10893584.129 5  -4414521.791 5  24741731.500        3842.796
 93  5 10  4 45  0.0010000  0  7 26 17 22  3 16 23 20                0.001670740
  -8734984.521 6  -6815722.669 5  23147402.608        -777.000
 -17225311.696 8 -13430583.463 9  21103716.311        -307.916
 -21628025.295 6  -7283319.898 5  23663391.006        -719.818
 -21601755.618 8 -16838134.904 8  21142182.730        -354.698
  -6476750.593 5  -5072462.980 5  24876422.211        3637.651
 -15989046.022 7 -10662698.266 7  22129329.895       -2124.723
 -10778302.764 5  -4324692.224 5  24763669.350        3842.518
 93  5 10  4 45 30.0010000  0  7 26 17 22  3 16 23 20                0.001675330
  -8758048.701 6  -6833694.765 5  23143013.667        -760.623
 -17234421.466 8 -13437681.978 9  21101982.922        -299.495
 -21649348.852 6  -7299935.694 5  23659332.935        -701.564
 -21612210.945 8 -16846281.908 8  21140192.989        -342.512
  -6367547.971 5  -4987369.996 5  24897202.808        3642.445
 -16052602.806 7 -10712223.012 7  22117235.385       -2112.209
 -10663033.377 5  -4234871.959 5  24785604.595        3842.093
 93  5 10  4 46  0.0010000  0  7 26 17 22  3 16 23 20                0.001679950
  -8780625.544 6  -6851287.110 5  23138717.200        -744.451
 -17243278.264 8 -13444583.359 9  21100297.637        -290.798
 -21670115.255 6  -7316117.252 5  23655381.332        -682.767
 -21622300.439 8 -16854143.854 8  21138273.009        -330.309
  -6258209.948 5  -4902171.491 5  24918008.852        3646.829
 -16115767.909 7 -10761442.550 7  22105215.428       -2098.828
 -10547775.061 5  -4145060.405 5  24807537.475        3841.729
 93  5 10  4 46 30.0010000  0  7 26 17 22  3 16 23 20                0.001684590
  -8802707.328 6  -6868493.665 5  23134514.907        -727.573
 -17251870.850 8 -13451278.862 9  21098662.369        -282.113
 -21690313.458 6  -7331856.077 5  23651537.698        -663.933
 -21632023.249 8 -16861720.056 8  21136422.970        -318.148
  -6148739.520 5  -4816869.836 5  24938840.712        3651.045
 -16178530.154 7 -10810348.148 7  22093272.276       -2085.408
 -10432531.217 5  -4055260.086 5  24829467.330        3841.109
 93  5 10  4 47  0.0010000  0  7 26 17 22  3 16 23 20                0.001689250
  -8824270.318 6  -6885295.982 5  23130411.628        -709.927
 -17260207.753 8 -13457775.128 9  21097075.929        -273.885
 -21709940.111 6  -7347149.580 5  23647802.899        -644.513
 -21641375.965 8 -16869007.880 8  21134643.400        -305.647
  -6039151.412 5  -4731476.423 5  24959694.722        3654.766
 -16240895.807 7 -10858944.736 7  22081404.613       -2072.365
 -10317303.515 5  -3965472.354 5  24851394.422        3840.649
 93  5 10  4 47 30.0010000  0  7 26 17 22  3 16 23 20                0.001693930
  -8845311.237 6  -6901691.502 5  23126407.894        -692.797
 -17268317.499 8 -13464094.395 9  21095533.116        -266.666
 -21729004.977 6  -7362005.298 5  23644174.846        -626.590
 -21650360.883 8 -16876009.121 8  21132933.328        -293.508
  -5929474.514 5  -4646013.825 5  24980565.639        3656.912
 -16302878.656 7 -10907243.037 7  22069609.548       -2059.690
 -10202098.888 5  -3875702.630 5  24873317.014        3839.710
 93  5 10  4 48  0.0010000  0  7 26 17 22  3 16 23 20                0.001698600
  -8865834.026 6  -6917683.261 5  23122502.107        -675.306
 -17276207.233 8 -13470242.221 9  21094031.286        -259.089
 -21747544.586 6  -7376451.734 5  23640646.630        -609.364
 -21658977.606 8 -16882723.443 8  21131293.959        -281.130
  -5819735.769 5  -4560503.040 5  25001448.581        3659.055
 -16364474.962 7 -10955240.126 7  22057888.040       -2046.855
 -10086921.591 5  -3785954.178 5  24895234.178        3838.852
 93  5 10  4 48 30.0010000  0  7 26 17 22  3 16 23 20                0.001703260
  -8885827.566 6  -6933262.629 5  23118697.390        -657.877
 -17283871.821 8 -13476214.607 9  21092573.006        -252.083
 -21765570.424 6  -7390497.812 5  23637216.635        -592.530
 -21667222.964 8 -16889148.384 8  21129724.647        -268.911
  -5709937.276 5  -4474945.721 5  25022342.154        3660.625
 -16425702.958 7 -11002950.223 7  22046236.797       -2034.996
  -9971772.884 5  -3696228.050 5  24917146.092        3837.608
 93  5 10  4 49  0.0010000  0  7 26 17 22  3 16 23 20                0.001707900
  -8905307.300 6  -6948441.615 5  23114990.935        -641.060
 -17291326.060 8 -13482023.096 9  21091154.908        -244.865
 -21783093.363 6  -7404152.063 5  23633882.272        -575.728
 -21675101.153 8 -16895287.224 8  21128225.285        -256.575
  -5600096.761 5  -4389355.708 5  25043244.195        3662.078
 -16486570.787 7 -11050379.671 7  22034653.906       -2022.809
  -9856661.476 5  -3606530.924 5  24939051.617        3836.326
 93  5 10  4 49 30.0010000  0  7 26 17 22  3 16 23 20                0.001712530
  -8924295.977 6  -6963237.996 5  23111377.485        -624.981
 -17298549.385 8 -13487651.653 9  21089779.629        -236.592
 -21800113.410 6  -7417414.399 5  23630643.567        -558.821
 -21682607.830 8 -16901136.586 8  21126797.394        -244.087
  -5490202.193 5  -4303723.535 5  25064156.278        3664.236
 -16547065.757 7 -11097518.584 7  22023142.008       -2010.241
  -9741588.131 5  -3516863.476 5  24960949.996        3835.171
 93  5 10  4 50  0.0010000  0  7 26 17 22  3 16 23 20                0.001717160
  -8942803.286 6  -6977659.264 5  23107855.177        -609.056
 -17305513.400 8 -13493078.146 9  21088453.769        -227.696
 -21816612.078 6  -7430270.463 5  23627504.150        -541.107
 -21689739.417 8 -16906693.643 8  21125440.423        -231.685
  -5380237.185 5  -4218036.412 5  25085081.477        3666.823
 -16607185.080 7 -11144364.758 7  22011701.714       -1997.867
  -9626553.754 5  -3427226.442 5  24982841.006        3833.673
 93  5 10  4 50 30.0010000  0  7 26 17 22  3 16 23 20                0.001721790
  -8960841.296 6  -6991714.799 5  23104422.942        -593.588
 -17312207.223 8 -13498294.085 9  21087179.602        -218.688
 -21832569.639 6  -7442704.913 5  23624467.243        -522.814
 -21696495.952 8 -16911958.481 8  21124154.773        -219.039
  -5270185.982 5  -4132282.157 5  25106023.691        3669.909
 -16666931.129 7 -11190920.106 7  22000332.417       -1984.954
  -9511562.870 5  -3337623.205 5  25004722.333        3832.197
 93  5 10  4 51  0.0010000  0  7 26 17 22  3 16 23 20                0.001726430
  -8978417.328 6  -7005410.438 5  23101078.517        -578.099
 -17318630.516 8 -13503299.246 9  21085957.118        -209.537
 -21847978.337 6  -7454711.708 5  23621534.740        -504.413
 -21702875.117 8 -16916929.254 8  21122940.981        -206.499
  -5160037.980 5  -4046452.458 5  25126984.224        3673.380
 -16726271.963 7 -11237159.684 7  21989040.274       -1971.218
  -9396617.900 5  -3248055.882 5  25026595.884        3830.580
 93  5 10  4 51 30.0010000  0  7 26 17 22  3 16 23 20                0.001731080
  -8995518.437 6  -7018735.959 5  23097824.029        -561.881
 -17324782.139 8 -13508092.701 9  21084786.267        -200.730
 -21862833.541 6  -7466287.154 5  23618707.910        -485.829
 -21708874.181 8 -16921603.835 8  21121799.204        -193.695
  -5049778.866 5  -3960536.178 5  25147965.816        3677.007
 -16785205.574 7 -11283081.947 7  21977825.508       -1957.747
  -9281720.556 5  -3158525.552 5  25048460.076        3829.105
 93  5 10  4 52  0.0010000  0  7 26 17 22  3 16 23 20                0.001735750
  -9012126.271 6  -7031677.086 5  23094663.563        -545.251
 -17330678.915 8 -13512687.575 9  21083664.293        -192.402
 -21877127.462 6  -7477425.230 5  23615987.457        -467.071
 -21714490.870 8 -16925980.464 8  21120730.344        -180.949
  -4939422.304 5  -3874543.974 5  25168965.826        3680.047
 -16843731.988 7 -11328686.911 7  21966688.298       -1943.987
  -9166873.065 5  -3069034.154 5  25070314.414        3827.426
 93  5 10  4 52 30.0010000  0  7 26 17 22  3 16 23 20                0.001740440
  -9028227.109 6  -7044223.201 5  23091600.066        -527.947
 -17336337.084 8 -13517096.519 9  21082588.376        -184.946
 -21890866.448 6  -7488130.943 5  23613373.293        -448.889
 -21719725.080 8 -16930059.078 8  21119733.556        -168.234
  -4828983.630 5  -3788487.781 5  25189981.727        3682.395
 -16901848.167 7 -11373972.222 7  21955629.323       -1930.395
  -9052079.950 5  -2979585.079 5  25092159.272        3825.486
 93  5 10  4 53  0.0010000  0  7 26 17 22  3 16 23 20                0.001745130
  -9043790.468 6  -7056350.490 5  23088638.398        -509.603
 -17341769.644 8 -13521329.669 9  21081554.723        -177.276
 -21904056.137 6  -7498408.584 5  23610863.713        -430.445
 -21724574.455 8 -16933837.793 8  21118810.381        -155.325
  -4718477.591 5  -3702379.103 5  25211010.073        3684.617
 -16959558.531 7 -11418941.307 7  21944647.395       -1917.187
  -8937343.717 5  -2890180.386 5  25113992.875        3823.569
 93  5 10  4 53 30.0010000  0  7 26 17 22  3 16 23 20                0.001749820
  -9058803.917 6  -7068049.257 5  23085781.166        -491.516
 -17346974.910 8 -13525385.701 9  21080564.069        -169.836
 -21916695.022 6  -7508257.053 5  23608458.855        -412.193
 -21729036.001 8 -16937314.316 8  21117961.780        -142.418
  -4607914.179 5  -3616225.695 5  25232049.256        3686.092
 -17016878.203 7 -11463605.947 7  21933739.669       -1904.155
  -8822665.539 5  -2800820.857 5  25135815.064        3821.575
 93  5 10  4 54  0.0010000  0  6 26 17 22  3 23 20                   0.001754470
  -9073275.178 6  -7079325.537 5  23083027.462        -473.202
 -17351949.861 8 -13529262.279 9  21079617.684        -161.847
 -21928787.639 6  -7517679.846 5  23606158.046        -394.003
 -21733107.424 8 -16940486.839 8  21117186.727        -129.258
 -17073805.918 7 -11507965.180 7  21922906.468       -1890.977
  -8708047.720 5  -2711508.445 5  25157626.685        3819.679
 93  5 10  4 54 30.0010000  0  6 26 17 22  3 23 20                   0.001759190
  -9087191.287 6  -7090169.270 5  23080378.954        -454.581
 -17356687.023 8 -13532953.558 9  21078716.490        -153.878
 -21940343.826 6  -7526684.639 5  23603959.268        -376.420
 -21736783.513 8 -16943351.320 8  21116487.202        -116.018
 -17130339.192 7 -11552017.064 7  21912148.605       -1877.809
  -8593489.815 5  -2622242.720 5  25179426.082        3817.611
 93  5 10  4 55  0.0010000  0  6 26 17 22  3 23 20                   0.001763910
  -9100564.436 6  -7100589.890 5  23077834.368        -436.998
 -17361176.931 8 -13536452.169 9  21077862.029        -145.330
 -21951375.508 6  -7535280.764 5  23601859.702        -358.885
 -21740063.788 8 -16945907.362 8  21115863.062        -102.802
 -17186476.066 7 -11595760.047 7  21901466.081       -1864.501
  -8478995.758 5  -2533026.680 5  25201213.374        3815.437
 93  5 10  4 55 30.0010000  0  6 26 17 22  3 23 20                   0.001768620
  -9113416.330 6  -7110604.334 5  23075388.561        -419.867
 -17365402.662 8 -13539744.937 9  21077057.866        -136.485
 -21961879.442 6  -7543465.608 5  23599860.677        -341.409
 -21742943.337 8 -16948151.160 8  21115315.102         -89.434
 -17242205.791 7 -11639185.774 7  21890861.054       -1850.942
  -8364564.997 5  -2443860.060 5  25222989.075        3813.184
 93  5 10  4 56  0.0010000  0  6 26 17 22  3 23 20                   0.001773330
  -9125751.320 6  -7120216.007 5  23073041.722        -402.333
 -17369364.959 8 -13542832.432 9  21076303.956        -127.566
 -21971859.334 6  -7551242.113 5  23597961.351        -323.668
 -21745422.109 8 -16950082.675 8  21114843.520         -75.938
 -17297532.321 7 -11682297.334 7  21880332.850       -1837.234
  -8250202.096 5  -2354746.261 5  25244752.114        3811.067
 93  5 10  4 56 30.0010000  0  7 26 17 22  3 23 20 21                0.001778020
  -9137566.356 6  -7129422.531 5  23070793.354        -385.335
 -17373062.624 8 -13545713.717 9  21075600.347        -118.845
 -21981305.297 6  -7558602.620 5  23596163.887        -305.798
 -21747499.692 8 -16951701.547 8  21114448.363         -62.677
 -17352445.615 7 -11725086.880 7  21869883.116       -1823.581
  -8135910.808 5  -2265688.264 5  25266500.736        3808.398
  -1305783.12415   -168760.58311  24754802.350       -3088.729
 93  5 10  4 57  0.0010000  0  7 26 17 22  3 23 20 21                0.001782700
  -9148876.628 6  -7138235.718 5  23068641.173        -368.734
 -17376496.273 8 -13548389.264 9  21074947.028        -110.358
 -21990201.834 6  -7565534.946 5  23594470.822        -287.380
 -21749176.378 8 -16953008.052 8  21114129.192         -49.438
 -17406955.003 7 -11767561.701 7  21859510.186       -1810.534
  -8021696.156 5  -2176690.043 5  25288235.326        3805.697
  -1398363.349 5   -240899.468 1  24737184.191       -3083.277
 93  5 10  4 57 30.0010000  0  7 26 17 22  3 23 20 21                0.001787390
  -9159688.196 6  -7146660.285 5  23066584.039        -351.941
 -17379682.152 8 -13550871.764 9  21074340.768        -102.182
 -21998544.473 6  -7572035.664 5  23592883.265        -268.864
 -21750452.227 8 -16954002.203 8  21113886.280         -35.882
 -17461077.164 7 -11809734.774 7  21849211.104       -1797.720
  -7907562.330 5  -2087754.727 5  25309954.376        3803.150
  -1490763.953 5   -312899.901 2  24719600.937       -3076.797
 93  5 10  4 58  0.0010000  0  6 26 17 22  3 23 21                   0.001792040
  -9169991.455 6  -7154688.803 5  23064622.858        -334.986
 -17382626.970 8 -13553166.407 9  21073780.148         -94.093
 -22006331.936 6  -7578103.809 5  23591402.005        -250.362
 -21751320.894 8 -16954679.097 7  21113721.065         -22.236
 -17514811.492 7 -11851605.655 7  21838985.904       -1784.604
  -1582967.962 5   -384747.195 3  24702054.932       -3070.186
 93  5 10  4 58 30.0010000  0  6 26 17 22  3 23 21                   0.001796740
  -9179792.425 6  -7162325.935 5  23062757.178        -318.536
 -17385333.404 8 -13555275.299 9  21073265.174         -86.398
 -22013573.948 6  -7583746.934 5  23590023.685        -232.580
 -21751785.141 8 -16955040.832 8  21113632.787          -8.978
 -17568160.481 7 -11893176.257 7  21828833.883       -1772.160
  -1674984.839 5   -456448.628 4  24684545.035       -3064.387
 93  5 10  4 59  0.0010000  0  6 26 17 22  3 23 21                   0.001801450
  -9189099.685 6  -7169578.323 5  23060986.062        -301.960
 -17387811.319 8 -13557206.131 9  21072793.500         -78.826
 -22020286.302 6  -7588977.303 5  23588746.080        -215.079
 -21751845.054 8 -16955087.510 8  21113621.664           4.656
 -17621135.766 7 -11934455.680 7  21818753.101       -1759.453
  -1766827.793 5   -528014.469 4  24667067.844       -3058.475
 93  5 10  4 59 30.0010000  0  6 26 17 22  3 23 21                   0.001806150
  -9197900.057 6  -7176435.752 5  23059312.038        -284.558
 -17390061.147 8 -13558959.226 9  21072365.264         -71.106
 -22026482.357 6  -7593805.365 5  23587567.239        -197.995
 -21751499.499 8 -16954818.236 7  21113687.169          18.106
 -17673722.394 7 -11975432.239 7  21808746.311       -1746.208
  -1858512.529 5   -599457.048 5  24649620.623       -3053.948
 93  5 10  5  0  0.0010000  0  6 26 17 22  3 23 21                   0.001810840
  -9206163.864 6  -7182875.083 5  23057739.928        -266.458
 -17392074.468 8 -13560528.029 9  21071982.110         -63.309
 -22032162.363 6  -7598231.329 5  23586486.326        -180.728
 -21750745.903 8 -16954231.004 7  21113830.471          31.786
 -17725895.108 7 -12016086.287 7  21798818.010       -1732.143
  -1950062.603 5   -670794.777 5  24632199.719       -3049.458
 93  5 10  5  0 30.0010000  0  6 26 17 22  3 23 21                   0.001815510
  -9213883.382 6  -7188890.267 5  23056270.486        -248.201
 -17393857.815 8 -13561917.629 9  21071642.734         -55.650
 -22037319.953 6  -7602250.246 5  23585505.025        -163.166
 -21749581.469 8 -16953323.655 7  21114051.965          45.603
 -17777648.614 7 -12056413.668 7  21788969.720       -1718.117
  -2041480.031 5   -742029.140 5  24614803.195       -3044.921
 93  5 10  5  1  0.0010000  0  6 26 17 22  3 23 21                   0.001820170
  -9221053.520 6  -7194477.384 5  23054904.906        -229.640
 -17395417.878 8 -13563133.256 9  21071345.701         -48.342
 -22041953.804 6  -7605860.993 5  23584623.414        -145.653
 -21748005.894 8 -16952095.916 7  21114351.699          59.213
 -17828981.773 7 -12096413.492 7  21779201.323       -1704.134
  -2132754.609 5   -813152.084 5  24597433.888       -3039.964
 93  5 10  5  1 30.0010000  0  6 26 17 22  3 23 21                   0.001824850
  -9227660.432 6  -7199625.638 5  23053647.518        -211.000
 -17396755.995 8 -13564175.932 9  21071091.289         -40.944
 -22046053.058 6  -7609055.196 5  23583843.262        -127.605
 -21746019.291 8 -16950547.924 7  21114729.748          72.895
 -17879897.966 7 -12136088.434 7  21769512.241       -1690.362
  -2223885.462 5   -884163.052 5  24580091.980       -3035.231
 93  5 10  5  2  0.0010000  0  6 26 17 22  3 23 21                   0.001829540
  -9233718.084 6  -7204345.865 5  23052494.583        -193.003
 -17397875.047 8 -13565047.917 9  21070878.305         -33.715
 -22049600.828 6  -7611819.696 5  23583168.214        -108.919
 -21743619.619 8 -16948678.032 7  21115186.429          86.822
 -17930403.485 7 -12175443.360 7  21759901.143       -1676.872
  -2314856.504 5   -955049.549 5  24562780.550       -3029.472
 93  5 10  5  2 30.0010000  0  6 26 17 22  3 23 21                   0.001834270
  -9239244.130 6  -7208651.877 5  23051443.548        -175.218
 -17398773.968 8 -13565748.352 9  21070707.221         -25.996
 -22052587.511 6  -7614146.975 5  23582599.788         -90.204
 -21740804.327 8 -16946484.295 7  21115722.281         100.718
 -17980515.466 7 -12214491.628 7  21750364.827       -1663.767
  -2405654.439 5  -1025801.125 5  24545502.583       -3023.580
 93  5 10  5  3  0.0010000  0  6 26 17 22  3 23 21                   0.001839020
  -9244230.905 6  -7212537.694 5  23050494.595        -157.165
 -17399435.053 8 -13566263.481 9  21070581.341         -18.120
 -22055012.232 6  -7616036.316 5  23582138.244         -71.271
 -21737567.692 8 -16943962.257 7  21116338.022         114.824
 -18030224.253 7 -12253225.724 7  21740905.503       -1650.079
  -2496264.502 5  -1096406.301 5  24528260.218       -3017.211
 93  5 10  5  3 30.0010000  0  6 26 17 22  3 23 21                   0.001843790
  -9248679.069 6  -7216003.762 5  23049648.580        -139.281
 -17399861.302 8 -13566595.603 9  21070500.403         -10.258
 -22056865.687 6  -7617480.527 5  23581785.072         -52.353
 -21733909.201 8 -16941111.471 7  21117034.203         128.939
 -18079517.258 7 -12291635.839 7  21731525.368       -1635.969
  -2586688.538 5  -1166866.517 5  24511053.173       -3010.931
 93  5 10  5  4  0.0010000  0  6 26 17 22  3 23 21                   0.001848570
  -9252590.594 6  -7219051.691 5  23048905.054        -121.406
 -17400051.713 8 -13566743.977 9  21070463.871          -2.491
 -22058166.428 6  -7618494.141 5  23581537.719         -34.487
 -21729829.534 8 -16937932.506 7  21117810.496         142.899
 -18128382.915 7 -12329712.950 7  21722226.536       -1621.684
  -2676923.427 5  -1237179.399 5  24493882.087       -3004.678
 93  5 10  5  4 30.0010000  0  6 26 17 22  3 23 21                   0.001853340
  -9255965.268 6  -7221681.317 5  23048261.551        -103.481
 -17400008.144 8 -13566710.010 9  21070472.016           5.518
 -22058948.562 6  -7619103.555 5  23581389.224         -17.641
 -21725328.830 8 -16934425.464 7  21118666.950         156.941
 -18176816.505 7 -12367453.381 7  21713010.216       -1607.120
  -2766972.921 5  -1307347.744 5  24476745.972       -2998.491
 93  5 10  5  5  0.0010000  0  6 26 17 22  3 23 21                   0.001858090
  -9258801.090 6  -7223891.031 5  23047721.614         -85.719
 -17399726.857 8 -13566490.812 9  21070525.539          13.217
 -22059223.958 6  -7619318.123 5  23581336.390          -0.617
 -21720406.418 8 -16930589.813 7  21119603.593         170.972
 -18224814.798 7 -12404854.644 7  21703876.329       -1592.950
  -2856841.149 5  -1377374.901 5  24459644.411       -2992.824
 93  5 10  5  5 30.0010000  0  6 26 17 22  3 23 21                   0.001862820
  -9261107.074 6  -7225687.904 5  23047283.974         -68.219
 -17399208.614 8 -13566086.983 9  21070624.439          21.409
 -22058992.813 6  -7619137.990 5  23581379.592          15.836
 -21715061.097 8 -16926424.626 7  21120620.739         185.064
 -18272401.630 7 -12441935.258 7  21694820.818       -1579.693
  -2946547.385 5  -1447275.779 5  24442574.266       -2987.558
 93  5 10  5  6  0.0010000  0  6 26 17 22  3 23 21                   0.001867520
  -9262894.266 6  -7227080.531 5  23046944.373         -50.983
 -17398435.038 8 -13565484.193 9  21070771.808          30.184
 -22058269.918 6  -7618574.791 5  23581517.340          32.463
 -21709291.005 8 -16921928.439 7  21121718.729         199.396
 -18319597.727 7 -12478711.421 7  21685839.447       -1566.860
  -3036091.257 5  -1517050.189 5  24425534.488       -2981.928
 93  5 10  5  6 30.0010000  0  6 26 17 22  3 23 21                   0.001872210
  -9264163.003 6  -7228069.151 5  23046702.501         -33.545
 -17397395.348 8 -13564674.040 9  21070969.641          39.163
 -22057032.755 6  -7617610.660 5  23581752.782          50.145
 -21703090.762 8 -16917097.076 7  21122898.492         213.684
 -18366418.755 7 -12515195.321 7  21676929.805       -1554.619
  -3125470.034 5  -1586695.905 5  24408526.077       -2976.710
 93  5 10  5  7  0.0010000  0  6 26 17 22  3 23 21                   0.001876900
  -9264897.503 6  -7228641.476 5  23046562.294         -15.489
 -17396085.769 8 -13563653.581 9  21071218.888          47.882
 -22055252.168 6  -7616223.157 5  23582092.098          68.496
 -21696454.933 8 -16911926.303 7  21124161.301         228.403
 -18412869.839 7 -12551390.949 8  21668090.324       -1542.216
  -3214690.999 6  -1656218.691 5  24391548.012       -2971.306
 93  5 10  5  7 30.0010000  0  6 26 17 22  3 23 21                   0.001881610
  -9265091.373 6  -7228792.548 5  23046525.743           2.698
 -17394523.490 8 -13562436.212 9  21071515.982          56.110
 -22052928.683 6  -7614412.655 5  23582533.869          86.387
 -21689383.791 8 -16906416.318 7  21125506.985         242.773
 -18458944.933 7 -12587293.590 8  21659322.583       -1529.316
  -3303746.713 6  -1725612.689 5  24374601.685       -2965.740
 93  5 10  5  8  0.0010000  0  6 26 17 22  3 23 21                   0.001886330
  -9264735.179 6  -7228515.002 5  23046593.615          21.037
 -17392733.017 8 -13561041.028 9  21071856.767          63.021
 -22050066.512 6  -7612182.395 5  23583078.782         104.521
 -21681881.375 8 -16900570.272 7  21126934.787         257.093
 -18504624.282 7 -12622887.873 8  21650630.301       -1515.849
  -3392637.277 6  -1794878.046 5  24357686.307       -2960.401
 93  5 10  5  8 30.0010000  0  6 26 17 22  3 23 21                   0.001891070
  -9263818.514 6  -7227800.728 5  23046767.966          39.820
 -17390741.713 8 -13559489.355 9  21072235.645          69.613
 -22046653.960 6  -7609523.234 5  23583727.813         122.887
 -21673946.573 8 -16894387.315 7  21128444.733         271.605
 -18549880.777 7 -12658152.659 8  21642018.082       -1501.203
  -3481371.208 6  -1864021.306 5  24340800.623       -2955.163
 93  5 10  5  9  0.0010000  0  6 26 17 22  3 23 21                   0.001895800
  -9262352.826 6  -7226658.639 5  23047045.301          57.840
 -17388560.984 8 -13557790.077 9  21072650.717          75.936
 -22042701.135 6  -7606443.107 5  23584480.363         140.823
 -21665581.100 8 -16887868.773 7  21130036.860         285.986
 -18594695.639 7 -12693073.304 8  21633489.918       -1486.330
  -3569942.343 6  -1933037.708 5  24323946.483       -2949.244
 93  5 10  5  9 30.0010000  0  6 26 17 22  3 23 21                   0.001900530
  -9260352.702 6  -7225100.097 5  23047427.612          75.411
 -17386180.810 8 -13555935.386 9  21073103.585          82.935
 -22038204.659 6  -7602939.368 5  23585336.012         158.937
 -21656781.688 8 -16881012.077 7  21131711.390         300.498
 -18639060.237 7 -12727643.094 8  21625047.532       -1471.268
  -3658329.167 6  -2001910.515 5  24307126.778       -2943.213
 93  5 10  5 10  0.0010000  0  6 26 17 22  3 23 21                   0.001905230
  -9257833.409 6  -7223137.037 5  23047906.989          92.525
 -17383580.765 8 -13553909.365 9  21073598.262          90.631
 -22033162.420 6  -7599010.323 5  23586295.197         177.218
 -21647545.214 8 -16873814.825 7  21133468.974         315.100
 -18682973.666 7 -12761861.330 8  21616691.234       -1456.372
  -3746535.120 6  -2070642.405 5  24290341.268       -2936.944
 93  5 10  5 10 30.0010000  0  6 26 17 22  3 23 21                   0.001909910
  -9254801.855 6  -7220774.773 5  23048484.845         109.630
 -17380731.953 8 -13551689.492 9  21074140.439          99.326
 -22027574.016 6  -7594655.712 5  23587358.720         195.213
 -21637865.369 8 -16866272.081 7  21135310.981         329.960
 -18726449.548 8 -12795738.619 8  21608418.301       -1442.223
  -3834538.680 6  -2139216.567 5  24273595.091       -2930.009
 93  5 10  5 11  0.0010000  0  6 26 17 22  3 23 21                   0.001914580
  -9251257.996 6  -7218013.316 5  23049159.393         126.827
 -17377624.708 8 -13549268.251 9  21074731.847         107.809
 -22021455.734 6  -7589888.215 5  23588523.008         212.629
 -21627744.740 8 -16858385.874 7  21137236.704         344.590
 -18769515.992 7 -12829296.861 8  21600223.126       -1428.960
  -3922336.359 6  -2207630.240 5  24256887.777       -2923.351
 93  5 10  5 11 30.0010000  0  6 26 17 22  3 23 21                   0.001919230
  -9247181.493 6  -7214836.850 5  23049934.316         145.078
 -17374259.278 8 -13546645.820 9  21075372.424         116.516
 -22014822.166 6  -7584719.214 5  23589785.031         229.665
 -21617181.401 8 -16850154.696 7  21139246.804         359.524
 -18812187.041 8 -12862546.996 8  21592103.037       -1415.648
  -4009948.193 6  -2275899.220 5  24240215.550       -2917.451
 93  5 10  5 12  0.0010000  0  6 26 17 22  3 23 21                   0.001923880
  -9242546.778 6  -7211225.384 5  23050816.145         164.024
 -17370642.060 8 -13543827.210 9  21076060.706         124.509
 -22007682.525 6  -7579155.841 5  23591144.482         246.341
 -21606170.180 8 -16841574.529 7  21141342.203         374.359
 -18854461.391 8 -12895488.041 8  21584058.558       -1402.640
  -4097387.498 6  -2344033.715 5  24223575.718       -2911.663
 93  5 10  5 12 30.0010000  0  6 26 17 22  3 23 21                   0.001928540
  -9237338.057 6  -7207166.629 5  23051807.388         183.165
 -17366793.651 8 -13540828.430 9  21076793.109         131.874
 -22000045.065 6  -7573204.541 5  23592597.903         262.743
 -21594712.233 8 -16832646.257 7  21143522.594         389.215
 -18896342.682 8 -12928122.783 8  21576088.754       -1389.290
  -4184655.013 6  -2412034.339 5  24206969.242       -2906.286
 93  5 10  5 13  0.0010000  0  6 26 17 22  3 23 21                   0.001933200
  -9231556.470 6  -7202661.527 5  23052907.253         202.142
 -17362732.216 8 -13537663.666 9  21077565.925         138.901
 -21991911.541 6  -7566866.782 5  23594145.675         279.529
 -21582809.187 8 -16823371.158 7  21145787.598         404.071
 -18937815.433 8 -12960439.189 8  21568196.509       -1375.550
  -4271762.742 6  -2479910.414 5  24190393.170       -2900.997
 93  5 10  5 13 30.0010000  0  6 26 17 22  3 23 21                   0.001937850
  -9225211.486 6  -7197717.382 5  23054114.421         220.844
 -17358453.937 8 -13534329.927 9  21078380.200         146.291
 -21983273.395 6  -7560135.733 5  23595788.755         296.608
 -21570461.644 8 -16813749.685 7  21148137.219         418.927
 -18978875.995 8 -12992434.422 8  21560382.879       -1361.631
  -4358710.139 5  -2547661.622 5  24173847.673       -2895.360
 93  5 10  5 14  0.0010000  0  6 26 17 22  3 23 21                   0.001942510
  -9218308.986 6  -7192338.802 5  23055428.412         239.307
 -17353959.501 8 -13530827.761 9  21079235.449         153.318
 -21974114.698 6  -7552999.061 5  23597531.795         314.063
 -21557669.365 8 -16803781.676 7  21150571.534         433.662
 -19019520.014 7 -13024105.056 8  21552648.622       -1347.912
  -4445472.790 5  -2615268.825 5  24157337.544       -2888.979
 93  5 10  5 14 30.0010000  0  6 26 17 22  3 23 21                   0.001947180
  -9210855.492 6  -7186530.915 5  23056847.138         257.514
 -17349245.357 8 -13527154.414 9  21080132.498         160.957
 -21964426.665 6  -7545449.920 5  23599375.026         331.791
 -21544433.212 8 -16793467.786 7  21153090.272         448.477
 -19059741.482 8 -13055446.435 8  21544994.681       -1333.632
  -4532046.696 5  -2682728.923 5  24140862.394       -2882.603
 93  5 10  5 15  0.0010000  0  6 26 17 22  3 23 21                   0.001951840
  -9202857.719 6  -7180298.906 5  23058369.354         275.675
 -17344296.187 8 -13523297.904 9  21081074.057         168.956
 -21954198.275 6  -7537479.782 5  23601321.136         350.006
 -21530750.994 8 -16782806.319 7  21155693.937         463.384
 -19099541.118 8 -13086459.122 8  21537421.253       -1319.747
  -4618425.379 6  -2750036.969 5  24124425.346       -2876.066
 93  5 10  5 15 30.0010000  0  6 26 17 22  3 23 21                   0.001956520
  -9194306.534 6  -7173635.634 5  23059996.531         294.327
 -17339108.843 8 -13519255.821 9  21082061.094         176.702
 -21943428.290 6  -7529087.584 5  23603371.694         367.962
 -21516621.446 8 -16771796.292 7  21158382.526         478.274
 -19138925.414 8 -13117148.152 8  21529926.382       -1305.864
  -4704610.746 6  -2817194.343 5  24108024.682       -2869.576
 93  5 10  5 16  0.0010000  0  6 26 17 22  3 23 21                   0.001961210
  -9185201.015 6  -7166540.437 5  23061728.784         312.624
 -17333701.745 8 -13515042.495 9  21083089.931         183.877
 -21932120.817 6  -7520276.531 5  23605522.695         385.852
 -21502046.464 8 -16760439.160 7  21161155.987         493.268
 -19177891.475 8 -13147511.309 8  21522511.294       -1291.837
  -4790601.580 5  -2884200.143 5  24091660.928       -2863.153
 93  5 10  5 16 30.0010000  0  6 26 17 22  3 23 21                   0.001965890
  -9175566.327 6  -7159032.912 5  23063562.977         329.522
 -17328077.867 8 -13510660.255 9  21084160.028         190.996
 -21920286.054 6  -7511054.672 5  23607775.196         403.059
 -21487024.813 8 -16748733.973 7  21164014.658         507.856
 -19216440.064 8 -13177549.130 8  21515176.091       -1278.397
  -4876408.387 6  -2951062.540 5  24075332.794       -2857.166
 93  5 10  5 17  0.0010000  0  6 26 17 22  3 23 21                   0.001970550
  -9165423.345 6  -7151129.282 5  23065492.541         346.457
 -17322241.574 8 -13506112.502 9  21085270.612         197.926
 -21907937.498 6  -7501432.413 5  23610124.841         420.115
 -21471559.046 8 -16736682.726 7  21166957.621         522.772
 -19254592.003 8 -13207277.905 8  21507915.919       -1265.182
  -4962026.417 6  -3017777.840 5  24059040.183       -2851.074
 93  5 10  5 17 30.0010000  0  6 26 17 22  3 23 21                   0.001975180
  -9154779.217 6  -7142835.184 5  23067518.288         362.917
 -17316199.751 8 -13501404.584 9  21086420.246         204.840
 -21895085.399 6  -7491417.769 5  23612570.246         436.692
 -21455649.492 8 -16724285.674 7  21169985.063         537.595
 -19292351.308 8 -13236700.707 8  21500730.446       -1252.230
  -5047467.642 6  -3084355.356 5  24042781.116       -2844.932
 93  5 10  5 18  0.0010000  0  6 26 17 22  3 23 21                   0.001979770
  -9143649.527 6  -7134162.709 5  23069636.241         378.964
 -17309949.849 8 -13496534.540 9  21087609.622         211.870
 -21881745.554 6  -7481023.090 5  23615108.832         452.500
 -21439297.240 8 -16711543.654 7  21173096.791         552.352
 -19329722.784 8 -13265821.328 8  21493619.006       -1239.230
  -5132721.451 6  -3150786.869 5  24026557.909       -2838.658
 93  5 10  5 18 30.0010000  0  6 26 17 22  3 23 21                   0.001984300
  -9132035.404 6  -7125112.735 5  23071846.032         395.485
 -17303475.835 8 -13491489.851 9  21088841.739         219.696
 -21867934.366 6  -7470261.119 5  23617737.042         468.273
 -21422499.628 8 -16698454.616 7  21176293.477         567.327
 -19366696.345 8 -13294631.875 8  21486583.348       -1225.691
  -5217783.207 6  -3217068.703 5  24010371.197       -2831.958
 93  5 10  5 19  0.0010000  0  6 26 17 22  3 23 21                   0.001988800
  -9119904.611 6  -7115660.171 5  23074154.185         413.251
 -17296775.466 8 -13486268.792 9  21090116.688         226.939
 -21853649.196 6  -7459129.811 5  23620455.257         484.182
 -21405252.810 8 -16685015.547 7  21179575.453         582.263
 -19403264.174 8 -13323126.264 8  21479624.785       -1212.018
  -5302643.876 6  -3283193.854 5  23994222.805       -2825.481
 93  5 10  5 19 30.0010000  0  6 26 17 22  3 23 21                   0.001993280
  -9107238.632 6  -7105790.621 5  23076563.972         431.297
 -17289857.870 8 -13480878.447 9  21091433.226         234.313
 -21838884.484 6  -7447624.844 5  23623264.955         500.266
 -21387557.399 8 -16671226.920 7  21182942.941         597.188
 -19439418.329 8 -13351298.324 8  21472744.887       -1198.194
  -5387301.690 6  -3349160.905 5  23978113.267       -2818.214
 93  5 10  5 20  0.0010000  0  6 26 17 22  3 23 21                   0.001997760
  -9094018.821 6  -7095489.482 5  23079079.105         449.911
 -17282724.070 8 -13475319.643 9  21092790.834         241.172
 -21823631.837 6  -7435739.687 5  23626167.124         516.570
 -21369411.756 8 -16657087.450 7  21186396.053         612.241
 -19475155.359 8 -13379145.333 8  21465943.957       -1184.339
  -5471741.952 6  -3414958.462 5  23962044.744       -2811.414
 93  5 10  5 20 30.0020000  0  6 26 17 22  3 23 21                   0.002002240
  -9080242.784 6  -7084754.907 5  23081700.360         468.605
 -17275385.895 8 -13469601.586 9  21094187.357         248.054
 -21807876.271 6  -7423462.630 5  23629165.557         533.967
 -21350816.249 8 -16642597.464 7  21189934.634         627.296
 -19510489.186 8 -13406678.175 8  21459220.002       -1171.293
  -5555986.889 6  -3480603.834 5  23946013.489       -2804.872
 93  5 10  5 21  0.0020000  0  6 26 17 22  3 23 21                   0.002006770
  -9065901.939 6  -7073580.225 5  23084430.362         487.408
 -17267845.819 8 -13463726.193 9  21095622.065         254.723
 -21791593.711 6  -7410774.900 5  23632264.835         551.563
 -21331769.891 8 -16627756.147 7  21193558.784         642.288
 -19545440.940 8 -13433913.282 8  21452568.896       -1158.718
  -5640039.438 6  -3546099.286 5  23930018.493       -2798.676
 93  5 10  5 21 30.0020000  0  6 26 17 22  3 23 21                   0.002011320
  -9051013.036 6  -7061978.499 5  23087263.409         505.270
 -17260098.332 8 -13457689.191 9  21097096.423         261.889
 -21774787.562 6  -7397679.194 5  23635462.069         568.836
 -21312274.137 8 -16612564.642 7  21197268.606         657.230
 -19580015.019 8 -13460854.100 8  21445989.771       -1146.033
  -5723909.479 6  -3611452.507 5  23914058.504       -2792.593
 93  5 10  5 22  0.0020000  0  6 26 17 22  3 23 21                   0.002015860
  -9035589.136 6  -7049959.894 5  23090198.777         522.947
 -17252141.642 8 -13451489.166 9  21098610.537         268.578
 -21757469.464 6  -7384184.640 5  23638757.967         585.778
 -21292329.591 8 -16597023.436 7  21201063.940         672.288
 -19614206.884 8 -13487497.098 8  21439483.414       -1133.385
  -5807604.912 6  -3676669.691 5  23898131.868       -2786.991
 93  5 10  5 22 30.0020000  0  6 26 17 22  3 23 21                   0.002020400
  -9019639.980 6  -7037531.997 5  23093233.824         540.436
 -17243975.782 8 -13445126.159 9  21100164.471         275.851
 -21739643.002 6  -7370293.870 5  23642149.949         602.589
 -21271933.556 8 -16581130.437 7  21204945.351         687.203
 -19648022.591 8 -13513846.971 8  21433048.369       -1120.811
  -5891123.099 6  -3741748.754 5  23882238.611       -2780.878
 93  5 10  5 23  0.0020000  0  6 26 17 22  3 23 21                   0.002024930
  -9003161.117 6  -7024691.344 5  23096370.040         557.916
 -17235594.693 8 -13438595.433 9  21101759.316         282.825
 -21721322.939 6  -7356018.468 5  23645636.446         618.526
 -21251086.157 8 -16564885.709 7  21208912.446         702.279
 -19681443.624 8 -13539889.323 8  21426688.562       -1107.246
  -5974451.587 6  -3806679.985 5  23866381.829       -2774.501
 93  5 10  5 23 30.0020000  0  6 26 17 22  3 23 21                   0.002029420
  -8986162.940 6  -7011446.029 5  23099604.758         575.330
 -17227006.582 8 -13431903.403 9  21103393.664         289.588
 -21702534.405 6  -7341378.105 5  23649211.349         633.972
 -21229786.435 8 -16548288.522 7  21212965.600         717.431
 -19714451.969 8 -13565610.099 8  21420407.291       -1093.483
  -6057586.285 6  -3871460.226 5  23850561.928       -2767.942
 93  5 10  5 24  0.0020000  0  6 26 17 22  3 23 21                   0.002033880
  -8968636.781 6  -6997789.294 5  23102939.995         592.988
 -17218224.435 8 -13425060.170 9  21105064.809         295.863
 -21683286.253 6  -7326379.533 5  23652873.994         649.142
 -21208034.472 8 -16531338.944 7  21217104.763         732.470
 -19747061.668 8 -13591020.243 8  21414202.128       -1080.554
  -6140535.508 6  -3936095.945 5  23834777.195       -2762.014
 93  5 10  5 24 30.0020000  0  7 26 17 22  3 23 21 28                0.002038250
  -8950581.112 6  -6983719.955 5  23106375.378         610.760
 -17209246.018 8 -13418063.991 9  21106773.215         302.627
 -21663588.661 6  -7311030.742 5  23656622.834         663.930
 -21185828.416 8 -16514035.544 7  21221330.510         747.670
 -19779276.244 8 -13616122.493 8  21408071.790       -1067.011
  -6223302.222 6  -4000589.407 5  23819026.874       -2755.998
  -1837707.95215  -1441178.87414  25293137.201       -3369.258
 93  5 10  5 25  0.0020000  0  7 26 17 22  3 23 21 28                0.002042660
  -8931986.497 6  -6969230.683 5  23109914.457         628.786
 -17200071.793 8 -13410915.247 9  21108518.866         309.085
 -21643445.425 6  -7295334.722 5  23660456.348         679.064
 -21163165.249 8 -16496375.921 7  21225643.424         763.019
 -19811079.262 8 -13640904.043 8  21402019.750       -1053.259
  -6305892.329 6  -4064945.312 5  23803310.381       -2749.954
  -1938762.624 5  -1519922.660 4  25273907.703       -3367.730
 93  5 10  5 25 30.0020000  0  7 26 17 22  3 23 21 28                0.002047070
  -8912848.338 6  -6954317.826 5  23113555.918         646.958
 -17190699.832 8 -13403612.418 9  21110302.130         315.722
 -21622842.866 6  -7279280.820 5  23664377.193         694.588
 -21140040.221 8 -16478356.420 7  21230043.867         778.350
 -19842478.650 8 -13665371.088 8  21396044.696       -1040.205
  -6388304.247 6  -4129162.361 5  23787627.928       -2743.992
  -2039774.460 5  -1598633.062 5  25254685.308       -3366.346
 93  5 10  5 26  0.0020000  0  7 26 17 22  3 23 21 28                0.002051480
  -8893167.773 6  -6938982.339 5  23117301.621         665.063
 -17181121.089 8 -13396148.463 9  21112124.869         322.977
 -21601761.755 6  -7262853.957 5  23668388.754         710.857
 -21116452.417 8 -16459976.341 7  21234532.339         793.897
 -19873488.698 8 -13689534.739 8  21390143.452       -1026.877
  -6470527.308 6  -4193232.217 5  23771981.631       -2737.325
  -2140746.825 5  -1677312.755 5  25235470.192       -3365.149
 93  5 10  5 26 30.0020000  0  7 26 17 22  3 23 21 28                0.002055860
  -8872947.452 6  -6923226.274 5  23121148.818         683.169
 -17171315.784 8 -13388507.963 9  21113990.908         330.878
 -21580187.617 6  -7246042.965 5  23672493.841         727.791
 -21092397.575 8 -16441232.314 7  21239109.590         809.667
 -19904085.659 8 -13713376.516 8  21384321.002       -1012.857
  -6552542.361 6  -4257139.995 5  23756374.262       -2730.011
  -2241682.567 5  -1755963.897 5  25216262.964       -3363.897
 93  5 10  5 27  0.0020000  0  7 26 17 22  3 23 21 28                0.002060240
  -8852187.073 6  -6907049.374 5  23125099.706         700.697
 -17161275.339 8 -13380684.242 9  21115901.447         338.671
 -21558094.769 6  -7228827.783 5  23676697.985         745.084
 -21067870.869 8 -16422120.586 7  21243776.968         825.309
 -19934267.102 8 -13736894.505 8  21378577.818        -999.164
  -6634333.402 6  -4320873.225 5  23740810.159       -2722.542
  -2342583.544 5  -1834588.017 5  25197062.155       -3362.786
 93  5 10  5 27 30.0020000  0  7 26 17 22  3 23 21 28                0.002064590
  -8830910.537 6  -6890470.275 5  23129148.833         717.582
 -17150990.766 8 -13372670.285 9  21117858.572         346.845
 -21535487.387 6  -7211211.662 5  23680999.106         762.031
 -21042871.758 8 -16402640.789 7  21248534.475         840.941
 -19964038.315 8 -13760092.834 8  21372912.561        -985.594
  -6715897.037 6  -4384429.254 5  23725289.104       -2714.983
  -2443457.183 5  -1913190.765 5  25177866.593       -3362.108
 93  5 10  5 28  0.0020000  0  7 26 17 22  3 23 21 28                0.002068910
  -8809124.845 6  -6873494.424 5  23133294.076         734.971
 -17140460.378 8 -13364464.784 9  21119862.373         355.166
 -21512372.859 6  -7193200.326 5  23685397.740         778.866
 -21017401.288 8 -16382793.663 7  21253381.310         856.844
 -19993393.177 8 -13782966.747 8  21367326.279        -971.193
  -6797230.479 6  -4447805.942 5  23709811.748       -2707.379
  -2544307.131 5  -1991775.069 5  25158675.611       -3361.209
 93  5 10  5 28 30.0020000  0  7 26 17 22  3 23 21 28                0.002073190
  -8786818.602 6  -6856112.940 5  23137538.510         752.285
 -17129691.104 8 -13356073.146 9  21121911.675         362.777
 -21488760.171 6  -7174800.856 5  23689892.256         795.505
 -20991455.716 8 -16362576.339 7  21258318.653         872.712
 -20022315.137 8 -13805503.315 8  21361822.578        -956.998
  -6878343.568 6  -4511010.879 5  23694376.166       -2700.135
  -2645130.582 5  -2070338.769 5  25139489.695       -3360.185
 93  5 10  5 29  0.0020000  0  7 26 17 22  3 23 21 28                0.002077440
  -8763989.198 6  -6838323.823 5  23141882.480         769.621
 -17118702.746 8 -13347510.782 9  21124002.706         369.766
 -21464652.246 6  -7156015.482 5  23694479.420         811.570
 -20965032.602 8 -16341986.896 7  21263346.751         888.578
 -20050811.008 8 -13827707.882 8  21356400.142        -942.680
  -6959239.732 6  -4574046.813 5  23678981.957       -2693.069
  -2745920.811 5  -2148876.542 5  25120309.931       -3359.041
 93  5 10  5 29 30.0020000  0  7 26 17 22  3 23 21 28                0.002081670
  -8740630.067 6  -6820121.942 5  23146328.393         787.816
 -17107504.567 8 -13338784.941 9  21126133.631         376.600
 -21440060.876 6  -7136853.355 5  23699159.335         827.708
 -20938130.810 8 -16321024.475 7  21268466.038         904.622
 -20078874.220 8 -13849575.315 8  21351059.880        -928.309
  -7039925.014 6  -4636918.425 5  23663628.230       -2686.012
  -2846665.019 6  -2227378.428 5  25101138.032       -3357.249
 93  5 10  5 30  0.0020000  0  7 26 17 22  3 23 21 28                0.002085890
  -8716722.629 6  -6801492.763 5  23150877.082         806.192
 -17096115.278 8 -13329910.173 9  21128300.981         382.920
 -21414997.653 6  -7117323.583 5  23703928.007         843.430
 -20910753.659 8 -16299691.632 7  21273675.560         920.528
 -20106513.166 8 -13871112.130 8  21345800.261        -914.054
  -7120411.043 6  -4699634.742 5  23648312.278       -2679.547
  -2947355.426 5  -2305838.409 5  25081977.257       -3355.213
 93  5 10  5 30 30.0020000  0  7 26 17 22  3 23 21 28                0.002090120
  -8692269.209 6  -6782438.172 5  23155531.046         824.032
 -17084533.043 8 -13320885.041 9  21130504.886         389.306
 -21389462.574 6  -7097426.145 5  23708789.678         858.895
 -20882896.937 8 -16277985.091 7  21278976.543         936.380
 -20133727.843 8 -13892318.363 8  21340621.285        -900.297
  -7200697.321 6  -4762195.451 5  23633034.444       -2672.682
  -3047977.960 5  -2384245.562 5  25062829.637       -3352.834
 93  5 10  5 31  0.0020000  0  7 26 17 22  3 23 21 28                0.002094340
  -8667276.565 6  -6762963.399 5  23160286.229         842.065
 -17072751.986 8 -13311705.001 9  21132746.686         396.258
 -21363463.828 6  -7077167.406 5  23713733.670         874.350
 -20854561.920 8 -16255905.867 7  21284368.397         952.401
 -20160527.159 8 -13913200.910 8  21335521.496        -886.339
  -7280771.306 6  -4824590.730 5  23617796.628       -2665.719
  -3148524.803 5  -2462593.720 5  25043696.410       -3350.217
 93  5 10  5 31 30.0020000  0  7 26 17 22  3 23 21 28                0.002098550
  -8641749.838 6  -6743072.461 5  23165143.832         859.757
 -17060763.219 8 -13302363.102 9  21135027.965         402.987
 -21337002.446 6  -7056548.118 5  23718770.267         889.773
 -20825749.179 8 -16233454.384 7  21289851.362         968.280
 -20186921.933 8 -13933768.257 9  21330498.684        -873.304
  -7360640.139 6  -4886826.155 5  23602598.261       -2658.786
  -3248990.280 5  -2540878.396 5  25024578.310       -3347.595
 93  5 10  5 32  0.0020000  0  7 26 17 22  3 23 21 28                0.002102760
  -8615693.137 6  -6722768.547 5  23170102.596         877.306
 -17048566.188 8 -13292858.928 9  21137348.970         410.129
 -21310080.095 6  -7035569.720 5  23723892.110         905.207
 -20796457.426 8 -16210629.644 7  21295425.414         984.263
 -20212923.330 8 -13954029.071 9  21325550.779        -860.208
  -7440296.721 6  -4948896.159 5  23587440.007       -2651.592
  -3349387.326 6  -2619109.814 5  25005473.527       -3345.612
 93  5 10  5 32 30.0020000  0  7 26 17 22  3 23 21 28                0.002106950
  -8589109.646 6  -6702054.190 5  23175160.859         894.959
 -17036156.158 8 -13283188.769 9  21139710.301         417.117
 -21282690.417 6  -7014227.133 5  23729106.121         920.777
 -20766687.491 8 -16187432.295 7  21301090.733        1000.154
 -20238537.679 8 -13973988.293 9  21320676.601        -847.440
  -7519732.223 6  -5010793.905 5  23572323.899       -2644.164
  -3449731.995 5  -2697300.508 5  24986378.605       -3343.997
 93  5 10  5 33  0.0020000  0  7 26 17 22  3 23 21 28                0.002111140
  -8561996.464 6  -6680927.024 5  23180320.075         912.535
 -17023542.514 8 -13273359.953 9  21142110.652         423.774
 -21254832.517 6  -6992519.650 5  23734406.269         936.361
 -20736442.092 8 -16163864.475 7  21306846.277        1015.973
 -20263771.472 8 -13993650.974 8  21315874.869        -834.854
  -7598950.419 6  -5072522.347 5  23557249.126       -2637.126
  -3550037.115 5  -2775460.237 5  24967290.889       -3343.018
 93  5 10  5 33 30.0020000  0  7 26 17 22  3 23 21 28                0.002115310
  -8534355.842 6  -6659388.884 5  23185578.533         930.261
 -17010727.582 8 -13263374.282 9  21144549.233         430.531
 -21226510.394 6  -6970450.520 5  23739796.261         951.623
 -20705721.690 8 -16139926.497 7  21312692.160        1031.807
 -20288630.922 8 -14013021.947 9  21311144.583        -822.329
  -7677952.542 6  -5134082.394 5  23542215.553       -2629.529
  -3650308.308 5  -2853593.576 5  24948209.881       -3341.923
 93  5 10  5 34  0.0020000  0  7 26 17 22  3 23 21 28                0.002119490
  -8506174.441 6  -6637429.383 5  23190941.271         948.506
 -16997701.693 8 -13253224.241 9  21147027.995         437.822
 -21197737.938 6  -6948030.425 5  23745270.812         966.631
 -20674523.503 8 -16115616.213 7  21318628.991        1047.735
 -20313109.459 8 -14032096.122 8  21306486.547        -809.660
  -7756720.891 6  -5195460.276 5  23527226.460       -2621.742
  -3750551.078 5  -2931704.807 5  24929133.766       -3340.913
 93  5 10  5 34 30.0020000  0  7 26 17 22  3 23 21 28                0.002123670
  -8477449.405 6  -6615046.247 5  23196409.080         966.444
 -16984459.780 8 -13242905.871 9  21149548.092         445.054
 -21168515.136 6  -6925259.410 5  23750831.962         981.606
 -20642848.810 8 -16090934.651 7  21324656.307        1063.804
 -20337206.852 8 -14050873.290 8  21301900.970        -796.738
  -7835251.589 6  -5256653.001 5  23512282.405       -2613.535
  -3850755.891 5  -3009786.413 5  24910065.596       -3339.247
 93  5 10  5 35  0.0020000  0  7 26 17 22  3 23 21 28                0.002127850
  -8448195.808 6  -6592251.242 5  23201976.364         983.979
 -16971002.929 8 -13232420.005 9  21152109.059         452.199
 -21138849.415 6  -6902143.299 5  23756476.860         996.229
 -20610695.986 8 -16065880.512 7  21330774.634        1079.662
 -20360916.819 8 -14069348.570 9  21297388.955        -783.740
  -7913534.750 6  -5317652.832 5  23497385.498       -2605.246
  -3950908.504 5  -3087827.314 5  24891006.911       -3337.372
 93  5 10  5 35 30.0020000  0  7 26 17 22  3 23 21 28                0.002132030
  -8418413.297 6  -6569044.104 5  23207643.991        1001.507
 -16957332.252 8 -13221767.532 9  21154710.420         459.171
 -21108745.008 6  -6878685.329 5  23762205.977        1010.873
 -20578062.543 8 -16040451.854 7  21336984.594        1095.666
 -20384230.589 8 -14087515.121 9  21292952.456        -770.388
  -7991569.896 6  -5378459.384 5  23482536.179       -2597.131
  -4050994.039 5  -3165816.001 5  24871961.191       -3335.042
 93  5 10  5 36  0.0020000  0  7 26 17 22  3 23 21 28                0.002136200
  -8388104.626 6  -6545426.981 5  23213411.958        1018.936
 -16943444.784 8 -13210946.134 9  21157353.248         466.484
 -21078187.054 6  -6854873.945 5  23768022.283        1026.587
 -20544946.977 8 -16014647.512 7  21343286.430        1111.780
 -20407135.957 8 -14105363.447 9  21288593.653        -756.629
  -8069363.701 6  -5439077.912 5  23467732.618       -2589.286
  -4150998.200 5  -3243741.337 5  24852930.872       -3332.031
 93  5 10  5 36 30.0020000  0  7 26 17 22  3 23 21 28                0.002140340
  -8357289.252 6  -6521415.014 5  23219275.531        1035.420
 -16929350.349 8 -13199963.452 9  21160035.343         473.231
 -21047156.269 6  -6830694.123 5  23773925.954        1042.296
 -20511348.712 8 -15988467.064 7  21349679.973        1127.895
 -20429627.103 8 -14122888.995 9  21284313.787        -742.719
  -8146933.391 6  -5499521.796 5  23452971.193       -2582.032
  -4250909.929 5  -3321594.553 5  24833918.954       -3328.796
 93  5 10  5 37  0.0020000  0  7 26 17 22  3 23 21 28                0.002144450
  -8325976.826 6  -6497015.731 5  23225233.956        1052.056
 -16915050.635 8 -13188820.822 9  21162756.647         480.105
 -21015656.085 6  -6806148.563 5  23779920.313        1057.814
 -20477270.302 8 -15961912.467 7  21356164.894        1143.737
 -20451701.785 8 -14140090.025 9  21280113.135        -728.911
  -8224299.918 6  -5559807.362 5  23438248.789       -2575.778
  -4350722.077 5  -3399370.179 5  24814925.787       -3325.558
 93  5 10  5 37 30.0020000  0  7 26 17 22  3 23 21 28                0.002148520
  -8294156.641 6  -6472220.823 5  23231288.849        1069.136
 -16900531.137 8 -13177506.926 9  21165519.646         487.977
 -20983678.889 6  -6781231.269 5  23786005.312        1074.043
 -20442710.170 8 -15934982.502 7  21362741.372        1159.945
 -20473360.861 8 -14156967.210 9  21275991.469        -715.182
  -8301477.310 6  -5619945.552 5  23423562.006       -2569.374
  -4450431.024 5  -3477065.454 5  24795951.557       -3321.900
 93  5 10  5 38  0.0020000  0  7 26 17 22  3 23 21 28                0.002152550
  -8261827.008 6  -6447028.912 5  23237442.385        1086.188
 -16885774.854 8 -13166008.534 9  21168327.741         495.673
 -20951217.535 6  -6755936.710 5  23792182.285        1090.062
 -20407667.804 8 -15907676.769 7  21369409.844        1175.994
 -20494615.702 8 -14173529.408 9  21271946.648        -701.786
  -8378464.783 6  -5679935.744 5  23408911.844       -2563.150
  -4550044.216 6  -3554686.082 5  24776995.528       -3318.998
 93  5 10  5 38 30.0020000  0  7 26 17 22  3 23 21 28                0.002156540
  -8228983.419 6  -6421436.536 5  23243693.066        1103.432
 -16870791.152 8 -13154332.918 9  21171179.038         503.331
 -20918283.696 6  -6730274.041 5  23798449.648        1105.379
 -20372141.815 8 -15879994.192 7  21376170.163        1192.150
 -20515472.940 8 -14189781.786 9  21267977.496        -688.686
  -8455266.574 6  -5739781.281 5  23394297.046       -2556.725
  -4649569.552 5  -3632238.182 5  24758055.968       -3315.964
 93  5 10  5 39  0.0020000  0  7 26 17 22  3 23 21 28                0.002160500
  -8195618.592 6  -6395437.988 5  23250042.321        1121.031
 -16855576.729 8 -13142477.531 9  21174074.395         510.976
 -20884903.475 6  -6704263.474 5  23804801.809        1120.052
 -20336133.347 7 -15851935.650 7  21383022.192        1208.333
 -20535939.576 8 -14205729.802 9  21264082.630        -675.616
  -8531865.676 6  -5799468.880 5  23379720.815       -2549.686
  -4749006.399 6  -3709721.399 5  24739133.488       -3313.206
 93  5 10  5 39 30.0020000  0  7 26 17 22  3 23 21 28                0.002164440
  -8161724.171 6  -6369026.758 5  23256490.812        1138.620
 -16840142.951 8 -13130451.205 9  21177011.229         517.988
 -20851082.620 6  -6677909.588 5  23811238.941        1134.626
 -20299638.620 7 -15823498.191 7  21389967.155        1224.502
 -20556013.255 8 -14221371.610 9  21260262.735        -662.507
  -8608244.089 6  -5858984.458 5  23365186.479       -2542.071
  -4848364.400 6  -3787143.166 5  24720226.814       -3310.565
 93  5 10  5 40  0.0020000  0  7 26 17 22  3 23 21 28                0.002168370
  -8127301.993 6  -6342204.291 5  23263041.217        1156.403
 -16824503.258 8 -13118264.433 9  21179987.269         524.719
 -20816834.168 6  -6651222.527 5  23817754.352        1148.608
 -20262655.142 7 -15794679.919 6  21397004.581        1241.020
 -20575685.198 8 -14236700.386 9  21256519.479        -648.703
  -8684382.007 6  -5918312.713 5  23350697.858       -2533.585
  -4947645.070 6  -3864504.671 5  24701334.877       -3307.863
 93  5 10  5 40 30.0020000  0  7 26 17 22  3 23 21 28                0.002172310
  -8092347.912 6  -6314967.352 5  23269692.656        1174.014
 -16808662.609 8 -13105921.079 9  21183001.724         531.496
 -20782180.220 6  -6624219.458 5  23824348.916        1161.941
 -20225177.153 7 -15765476.294 6  21404136.375        1257.428
 -20594945.411 8 -14251708.321 9  21252854.324        -635.143
  -8760256.124 6  -5977435.354 5  23336259.234       -2524.381
  -5046830.518 6  -3941791.983 5  24682460.598       -3304.462
 93  5 10  5 41  0.0020000  0  7 26 17 22  3 23 21 28                0.002176260
  -8056860.980 6  -6287315.219 5  23276445.950        1191.838
 -16792617.531 8 -13093418.413 9  21186055.127         538.161
 -20747118.102 6  -6596898.317 5  23831022.302        1175.763
 -20187204.428 7 -15735887.160 6  21411362.423        1273.885
 -20613794.006 8 -14266395.530 9  21249267.668        -621.416
  -8835848.394 6  -6036338.389 5  23321874.501       -2515.196
  -5145919.302 6  -4019003.921 5  24663604.681       -3301.445
 93  5 10  5 41 30.0020000  0  7 26 17 22  3 23 21 28                0.002180210
  -8020837.833 6  -6259245.247 5  23283300.857        1209.718
 -16776371.706 8 -13080759.344 9  21189146.539         545.131
 -20711622.783 6  -6569239.651 5  23837775.164        1190.593
 -20148736.934 7 -15705912.493 6  21418682.473        1290.476
 -20632234.021 8 -14280764.357 9  21245758.676        -608.007
  -8911167.641 6  -6095028.691 5  23307541.845       -2505.920
  -5244912.974 6  -4096141.862 5  24644766.558       -3297.915
 93  5 10  5 42  0.0020000  0  7 26 17 22  3 23 21 28                0.002184190
  -7984279.976 6  -6230758.638 5  23290256.906        1227.597
 -16759909.483 8 -13067931.629 9  21192278.960         552.349
 -20675687.400 6  -6541238.079 5  23844616.251        1205.349
 -20109774.014 7 -15675551.797 6  21426096.952        1306.905
 -20650282.446 8 -14294828.052 9  21242324.177        -595.182
  -8986210.193 6  -6153503.367 5  23293261.863       -2496.991
  -5343801.761 6  -4173197.941 5  24625947.934       -3294.547
 93  5 10  5 42 30.0020000  0  7 26 17 22  3 23 21 28                0.002188190
  -7947180.231 6  -6201849.757 5  23297317.309        1245.651
 -16743228.188 8 -13054933.224 9  21195453.134         559.748
 -20639288.328 6  -6512875.185 5  23851540.984        1221.480
 -20070312.630 7 -15644802.676 6  21433606.392        1323.560
 -20667947.465 8 -14308592.983 9  21238962.762        -582.406
  -9060991.935 6  -6211774.815 5  23279031.382       -2488.563
  -5442578.070 6  -4250166.431 5  24607151.510       -3290.797
 93  5 10  5 43  0.0020000  0  7 26 17 22  3 23 21 28                0.002192210
  -7909544.845 6  -6172523.509 5  23304479.274        1263.383
 -16726326.893 8 -13041763.386 9  21198669.436         567.111
 -20602400.155 6  -6484131.171 5  23858560.814        1237.740
 -20030352.230 7 -15613664.709 6  21441210.809        1340.311
 -20685225.080 8 -14322056.052 9  21235674.878        -569.458
  -9135530.513 6  -6269856.785 5  23264847.072       -2480.704
  -5541248.526 6  -4327052.496 5  24588375.015       -3287.035
 93  5 10  5 43 30.0020000  0  7 26 17 22  3 23 21 28                0.002196220
  -7871385.779 6  -6142789.169 5  23311740.459        1280.581
 -16709203.577 8 -13028420.550 9  21201928.101         574.592
 -20565037.771 6  -6455017.649 5  23865670.621        1252.989
 -19989891.805 7 -15582137.121 6  21448910.110        1356.890
 -20702119.159 8 -14335220.255 9  21232459.872        -556.684
  -9209839.514 6  -6327759.881 5  23250706.321       -2473.077
  -5639802.053 5  -4403847.374 5  24569620.564       -3283.047
 93  5 10  5 44  0.0020000  0  7 26 17 22  3 23 21 28                0.002200230
  -7832710.223 6  -6112652.395 5  23319100.799        1297.824
 -16691855.410 8 -13014902.494 9  21205229.536         581.880
 -20527232.132 6  -6425558.718 5  23872864.351        1267.407
 -19948932.788 7 -15550221.012 6  21456704.113        1373.439
 -20718617.604 8 -14348076.170 9  21229320.377        -543.030
  -9283924.445 6  -6385488.360 5  23236608.600       -2466.049
  -5738229.004 6  -4480543.632 5  24550890.202       -3278.810
 93  5 10  5 44 30.0020000  0  7 26 17 22  3 23 21 28                0.002204200
  -7793520.685 6  -6082115.103 5  23326558.469        1314.848
 -16674290.156 8 -13001215.284 9  21208572.192         589.278
 -20488993.042 6  -6395762.048 5  23880140.177        1281.661
 -19907473.604 7 -15517915.148 6  21464593.452        1390.336
 -20734692.442 8 -14360602.015 9  21226261.323        -528.568
  -9357796.386 6  -6443050.885 5  23222551.290       -2458.581
  -5836522.690 5  -4557136.026 5  24532185.893       -3274.021
 93  5 10  5 45  0.0020000  0  7 26 17 22  3 23 21 28                0.002208130
  -7753826.344 6  -6051184.462 5  23334111.780        1331.578
 -16656500.247 8 -12987353.031 9  21211957.386         596.778
 -20450342.927 6  -6365645.099 5  23887496.162        1295.005
 -19865511.299 7 -15485217.265 6  21472578.694        1407.009
 -20750333.762 8 -14372790.038 9  21223284.886        -514.331
  -9431437.591 6  -6500433.608 5  23208537.982       -2450.780
  -5934669.436 5  -4633614.061 5  24513508.733       -3268.817
 93  5 10  5 45 30.0020000  0  7 26 17 22  3 23 21 28                0.002212030
  -7713622.284 6  -6019856.662 5  23341761.433        1348.670
 -16638479.076 8 -12973310.559 9  21215386.676         604.670
 -20411293.354 6  -6335216.885 5  23894927.514        1308.388
 -19823044.799 7 -15452126.498 6  21480659.987        1423.851
 -20765547.861 8 -14384645.177 9  21220389.890        -499.821
  -9504833.954 6  -6557625.534 5  23194571.132       -2442.229
  -6032658.953 5  -4709969.453 5  24494861.932       -3263.813
 93  5 10  5 46  0.0020000  0  7 26 17 22  3 23 21 28                0.002215890
  -7672904.538 6  -5988128.560 5  23349509.995        1365.788
 -16620225.952 8 -12959087.356 9  21218860.099         612.272
 -20371833.019 6  -6304468.562 5  23902436.168        1322.464
 -19780071.120 7 -15418640.526 6  21488837.558        1440.811
 -20780324.427 8 -14396159.368 9  21217578.256        -485.311
  -9577970.989 6  -6614615.388 5  23180653.918       -2433.536
  -6130497.350 6  -4786207.056 5  24476244.010       -3258.843
 93  5 10  5 46 30.0020000  0  7 26 17 22  3 23 21 28                0.002219740
  -7631679.071 6  -5956004.824 5  23357354.827        1382.714
 -16601737.113 8 -12944680.466 9  21222378.264         620.495
 -20331943.251 6  -6273385.659 5  23910026.703        1336.871
 -19736584.777 7 -15384755.048 6  21497112.618        1458.116
 -20794673.854 8 -14407340.717 9  21214847.727        -471.334
  -9650838.239 6  -6671395.022 5  23166787.486       -2424.208
  -6228184.630 5  -4862326.980 5  24457654.980       -3253.509
 93  5 10  5 47  0.0020000  0  7 26 17 22  3 23 21 28                0.002223560
  -7589951.094 6  -5923489.532 5  23365295.660        1399.349
 -16582991.481 8 -12930073.493 9  21225945.065         629.264
 -20291625.499 6  -6241969.256 5  23917698.748        1351.152
 -19692578.983 7 -15350464.851 6  21505486.833        1475.462
 -20808611.587 8 -14418201.284 9  21212195.291        -457.814
  -9723427.713 6  -6727958.224 5  23152973.780       -2415.111
  -6325713.634 6  -4938323.619 5  24439095.839       -3248.358
 93  5 10  5 47 30.0020000  0  7 26 17 22  3 23 21 28                0.002227370
  -7547716.707 6  -5890579.641 5  23373333.299        1416.369
 -16563982.453 8 -12915261.262 9  21229562.190         638.188
 -20250876.042 6  -6210216.423 5  23925452.901        1365.692
 -19648051.295 7 -15315767.957 6  21513960.173        1492.993
 -20822143.801 8 -14428745.857 9  21209620.185        -443.960
  -9795750.273 6  -6784313.427 5  23139211.150       -2406.307
  -6423093.040 6  -5014203.614 5  24420565.088       -3243.309
 93  5 10  5 48  0.0020000  0  7 26 17 22  3 23 21 28                0.002231150
  -7504965.668 6  -5857267.167 5  23381468.516        1433.762
 -16544710.310 8 -12900244.003 9  21233229.711         646.751
 -20209690.144 6  -6178123.530 5  23933290.628        1380.187
 -19602996.146 7 -15280660.057 6  21522533.949        1510.416
 -20835260.548 8 -14438966.693 9  21207123.944        -430.599
  -9867817.666 6  -6840469.801 5  23125497.459       -2398.187
  -6520317.180 6  -5089962.723 5  24402063.954       -3238.103
 93  5 10  5 48 30.0020000  0  7 26 17 22  3 23 21 28                0.002234920
  -7461688.083 6  -5823544.384 5  23389703.915        1451.624
 -16525171.603 8 -12885019.048 9  21236947.898         655.784
 -20168072.284 6  -6145694.081 5  23941210.284        1394.405
 -19557414.113 7 -15245141.590 6  21531207.953        1528.220
 -20847976.899 8 -14448875.513 9  21204703.990        -417.092
  -9939636.133 6  -6896432.221 5  23111830.604       -2389.630
  -6617377.470 6  -5165594.102 5  24383594.253       -3232.552
 93  5 10  5 49  0.0020000  0  7 26 17 22  3 23 21 28                0.002238690
  -7417863.980 6  -5789395.753 5  23398043.300        1470.044
 -16505372.365 8 -12869591.076 9  21240715.669         663.955
 -20126025.247 6  -6112930.161 5  23949211.635        1408.819
 -19511302.393 7 -15209210.397 6  21539982.650        1545.665
 -20860285.148 8 -14458466.350 9  21202361.759        -403.479
 -10011195.273 6  -6952192.543 5  23098213.720       -2380.831
  -6714277.495 6  -5241100.555 5  24365154.497       -3227.570
 93  5 10  5 49 30.0020000  0  7 26 17 22  3 23 21 28                0.002242500
  -7373475.169 6  -5754807.093 5  23406490.255        1489.162
 -16485345.486 8 -12853985.709 9  21244526.581         671.302
 -20083539.104 6  -6079824.091 5  23957296.407        1423.624
 -19464665.383 7 -15172869.879 6  21548857.486        1563.225
 -20872184.535 8 -14467738.583 9  21200097.447        -389.570
 -10082482.150 6  -7007740.724 5  23084648.050       -2371.489
  -6811031.695 6  -5316493.454 5  24346742.719       -3222.628
 93  5 10  5 50  0.0020000  0  7 26 17 22  3 23 21 28                0.002246350
  -7328514.469 6  -5719772.795 5  23415045.842        1508.145
 -16465102.669 8 -12838212.097 9  21248378.662         678.237
 -20040604.275 6  -6046368.414 5  23965466.934        1438.665
 -19417502.446 7 -15136119.547 6  21557832.233        1580.756
 -20883666.008 8 -14476685.181 9  21197912.711        -375.884
 -10153480.698 6  -7063064.240 5  23071137.652       -2361.581
  -6907635.014 6  -5391768.754 5  24328359.528       -3217.553
 93  5 10  5 50 30.0020000  0  7 26 17 22  3 23 21 28                0.002250250
  -7283004.490 6  -5684310.495 5  23423705.655        1525.980
 -16444655.233 8 -12822279.033 9  21252269.499         684.995
 -19997227.056 6  -6012567.985 5  23973721.858        1453.201
 -19369818.603 7 -15098963.303 6  21566906.092        1598.058
 -20894734.286 8 -14485309.798 9  21195806.589        -361.749
 -10224178.202 6  -7118153.151 5  23057684.256       -2351.515
  -7004087.995 6  -5466926.846 5  24310005.730       -3212.502
 93  5 10  5 51  0.0020000  0  7 26 17 22  3 23 21 28                0.002254180
  -7236950.524 6  -5648424.312 5  23432469.630        1544.207
 -16424001.475 8 -12806185.190 9  21256199.879         692.067
 -19953403.962 6  -5978420.127 5  23982060.904        1468.446
 -19321610.032 7 -15061398.204 6  21576079.980        1615.736
 -20905366.078 8 -14493594.300 9  21193783.518        -347.077
 -10294568.303 6  -7173002.542 5  23044289.303       -2341.077
  -7100384.156 6  -5541962.816 5  24291681.260       -3207.109
 93  5 10  5 51 30.0020000  0  7 26 17 22  3 23 21 28                0.002258130
  -7190362.238 6  -5612121.770 5  23441334.872        1561.547
 -16403126.038 8 -12789918.629 9  21260172.418         699.953
 -19909123.760 6  -5943916.125 5  23990487.382        1483.551
 -19272871.979 7 -15023420.516 6  21585354.482        1633.351
 -20915561.547 8 -14501538.811 9  21191843.472        -332.446
 -10364656.241 6  -7227616.481 5  23030951.617       -2331.481
  -7196503.566 6  -5616861.010 5  24273390.243       -3200.665
 93  5 10  5 52  0.0020000  0  7 26 17 22  3 23 21 28                0.002262080
  -7143266.275 6  -5575423.603 5  23450297.535        1578.023
 -16381998.508 8 -12773455.615 9  21264193.025         708.456
 -19864387.247 6  -5909056.491 5  23999000.427        1498.731
 -19223598.787 7 -14985025.827 6  21594730.740        1651.199
 -20925313.122 8 -14509137.417 9  21189987.917        -317.890
 -10434455.645 6  -7282005.599 5  23017669.270       -2321.857
  -7292413.161 6  -5691595.727 5  24255139.260       -3193.342
 93  5 10  5 52 30.0020000  0  7 26 17 22  3 23 21 28                0.002266020
  -7095676.470 6  -5538340.673 5  23459353.758        1594.855
 -16360606.711 8 -12756786.673 9  21268263.787         717.642
 -19819202.990 6  -5873848.010 5  24007598.677        1513.585
 -19173786.684 7 -14946211.199 6  21604209.798        1669.347
 -20934628.906 8 -14516396.458 9  21188215.095        -303.257
 -10503965.661 6  -7336169.178 5  23004441.958       -2312.201
  -7388095.422 6  -5766153.297 5  24236931.519       -3185.430
 93  5 10  5 53  0.0020000  0  7 26 17 22  3 23 21 28                0.002269960
  -7047569.068 6  -5500854.413 5  23468508.173        1612.348
 -16338942.410 8 -12739905.402 9  21272386.513         726.837
 -19773569.576 6  -5838289.527 5  24016282.062        1528.787
 -19123432.122 7 -14906973.893 6  21613791.823        1687.509
 -20943520.110 8 -14523324.672 9  21186523.077        -289.418
 -10573188.658 6  -7390109.154 5  22991269.184       -2302.447
  -7483543.810 6  -5840528.636 5  24218768.539       -3177.583
 93  5 10  5 53 30.0020000  0  7 26 17 22  3 23 21 28                0.002273910
  -6998940.007 6  -5462961.651 5  23477762.012        1629.649
 -16316996.250 8 -12722804.507 9  21276562.761         736.259
 -19727486.249 6  -5802380.451 5  24025051.722        1543.512
 -19072530.716 7 -14867310.463 6  21623478.229        1705.686
 -20951994.808 8 -14529928.325 9  21184910.243        -275.418
 -10642119.623 6  -7443821.573 5  22978151.974       -2292.809
  -7578743.259 6  -5914709.964 5  24200652.701       -3169.080
 93  5 10  5 54  0.0020000  0  7 26 17 22  3 23 21 28                0.002277890
  -6949781.408 6  -5424656.269 5  23487116.449        1647.707
 -16294775.086 8 -12705489.307 9  21280791.383         744.969
 -19680961.733 6  -5766127.572 5  24033905.433        1557.980
 -19021083.115 7 -14827221.413 6  21633268.150        1723.819
 -20960048.575 8 -14536203.959 9  21183377.594        -261.720
 -10710745.814 6  -7497296.472 5  22965092.917       -2282.278
  -7673695.046 6  -5988698.333 5  24182583.732       -3161.170
 93  5 10  5 54 30.0020000  0  7 26 17 22  3 23 21 28                0.002281910
  -6900066.182 6  -5385917.131 5  23496576.668        1666.812
 -16272294.051 8 -12687971.622 9  21285069.371         753.759
 -19634008.204 6  -5729540.435 5  24042839.986        1572.347
 -18969090.780 7 -14786707.940 6  21643162.071        1742.072
 -20967689.375 8 -14542157.810 9  21181923.770        -247.701
 -10779057.623 6  -7550526.402 5  22952093.456       -2271.817
  -7768423.560 6  -6062512.730 5  24164557.467       -3153.984
 93  5 10  5 55  0.0020000  0  7 26 17 22  3 23 21 28                0.002285970
  -6849781.551 6  -5346734.321 5  23506145.544        1685.297
 -16249554.217 8 -12670252.273 9  21289396.906         762.422
 -19586623.161 6  -5692617.058 5  24051857.179        1586.697
 -18916556.517 7 -14745772.163 6  21653158.969        1760.084
 -20974915.904 8 -14547788.875 9  21180548.521        -233.834
 -10847059.982 7  -7603515.207 5  22939153.543       -2261.645
  -7862946.121 6  -6136166.634 5  24146570.324       -3147.475
 93  5 10  5 55 30.0020000  0  7 26 17 22  3 23 21 28                0.002290060
  -6798947.900 6  -5307123.713 5  23515818.888        1703.680
 -16226540.385 8 -12652319.423 9  21293776.497         771.811
 -19538802.623 6  -5655354.306 5  24060956.789        1601.278
 -18863479.109 7 -14704413.136 6  21663259.078        1778.335
 -20981715.838 8 -14553087.508 9  21179254.426        -219.515
 -10914756.163 6  -7656265.453 5  22926271.263       -2251.376
  -7957271.701 6  -6209667.071 5  24128620.728       -3140.808
 93  5 10  5 56  0.0020000  0  7 26 17 22  3 23 21 28                0.002294170
  -6747558.094 6  -5267079.733 5  23525597.890        1722.405
 -16203248.636 8 -12634170.004 9  21298208.647         781.161
 -19490551.836 6  -5617756.330 5  24070138.952        1615.396
 -18809851.806 7 -14662625.629 6  21673464.113        1796.679
 -20988087.629 8 -14558052.532 9  21178041.908        -205.214
 -10982140.762 7  -7708772.873 5  22913448.451       -2241.181
  -8051394.696 6  -6283009.645 5  24110709.993       -3133.926
 93  5 10  5 56 30.0020000  0  7 26 17 22  3 23 21 28                0.002298310
  -6695609.473 6  -5226600.323 5  23535483.732        1740.707
 -16179661.696 8 -12615790.572 9  21302696.921         791.357
 -19441878.655 6  -5579829.186 5  24079401.359        1629.503
 -18755671.796 7 -14620407.451 6  21683774.144        1815.114
 -20994027.134 8 -14562680.698 9  21176911.650        -190.725
 -11049230.229 7  -7761050.338 5  22900681.677       -2231.471
  -8145304.841 6  -6356186.374 5  24092839.444       -3126.652
 93  5 10  5 57  0.0020000  0  7 26 17 22  3 23 21 28                0.002302440
  -6643117.857 6  -5185697.722 5  23545472.760        1758.617
 -16155762.953 8 -12597168.175 9  21307244.591         801.861
 -19392780.292 6  -5541570.736 5  24088744.272        1643.693
 -18700936.528 7 -14577756.622 6  21694189.985        1833.624
 -20999528.507 8 -14566967.479 9  21175864.925        -175.927
 -11116028.135 7  -7813100.632 5  22887970.536       -2221.692
  -8238984.728 6  -6429183.632 5  24075012.944       -3118.603
 93  5 10  5 57 30.0020000  0  7 26 17 22  3 23 21 28                0.002306570
  -6590094.440 6  -5144380.753 5  23555562.150        1776.402
 -16131565.179 8 -12578312.769 9  21311849.184         811.314
 -19343269.113 6  -5502990.596 5  24098165.905        1657.078
 -18645648.714 7 -14534675.196 6  21704710.992        1852.074
 -21004588.956 8 -14570910.666 9  21174902.030        -161.374
 -11182530.513 7  -7864920.633 5  22875315.350       -2211.614
  -8332419.196 6  -6501989.758 5  24057232.827       -3110.216
 93  5 10  5 58  0.0020000  0  7 26 17 22  3 23 21 28                0.002310700
  -6536543.220 6  -5102652.539 5  23565752.690        1793.884
 -16107096.596 8 -12559246.339 9  21316505.269         820.138
 -19293364.869 6  -5464104.191 5  24107662.694        1670.133
 -18589813.492 7 -14491167.250 6  21715336.115        1870.198
 -21009213.446 8 -14574514.152 9  21174022.030        -146.756
 -11248730.203 7  -7916504.759 5  22862717.711       -2201.468
  -8425606.344 6  -6574603.095 5  24039499.894       -3102.140
 93  5 10  5 58 30.0020000  0  7 26 17 22  3 23 21 28                0.002314830
  -6482477.733 6  -5060523.592 5  23576040.924        1810.376
 -16082365.777 8 -12539975.569 9  21321211.144         828.488
 -19243063.688 6  -5424908.493 5  24117234.293        1683.392
 -18533431.920 7 -14447233.571 6  21726065.088        1888.277
 -21013395.331 8 -14577772.753 9  21173226.172        -132.087
 -11314615.088 7  -7967843.605 5  22850180.151       -2190.748
  -8518566.009 6  -6647039.136 5  24021810.258       -3095.162
 93  5 10  5 59  0.0020000  0  7 26 17 22  3 23 21 28                0.002318950
  -6427923.077 6  -5018013.475 5  23586422.638        1826.586
 -16057401.772 8 -12520523.106 9  21325961.534         835.739
 -19192359.705 6  -5385398.922 5  24126883.385        1696.897
 -18476510.784 7 -14402879.439 6  21736896.919        1906.221
 -21017133.269 8 -14580685.420 9  21172514.743        -117.092
 -11380170.606 7  -8018925.785 5  22837705.516       -2179.649
  -8611314.813 6  -6719310.948 5  24004160.990       -3087.980
 93  5 10  5 59 30.0020000  0  7 26 17 22  3 23 21 28                0.002323060
  -6372890.991 6  -4975131.355 5  23596894.849        1842.321
 -16032228.518 8 -12500907.570 9  21330751.948         842.737
 -19141257.959 6  -5345579.372 5  24136607.627        1710.145
 -18419055.392 7 -14358109.000 6  21747830.301        1923.946
 -21020425.854 8 -14583251.059 9  21171887.916        -102.380
 -11445400.785 7  -8069754.442 6  22825292.719       -2169.041
  -8703852.588 6  -6791418.259 5  23986551.333       -3081.100
 93  5 10  6  0  0.0020000  0  7 26 17 22  3 23 21 28                0.002327160
  -6317383.777 6  -4931878.993 5  23607457.634        1858.177
 -16006832.932 8 -12481118.818 9  21335584.622         850.431
 -19089750.237 6  -5305443.488 5  24146409.307        1723.721
 -18361069.084 7 -14312924.889 6  21758864.631        1941.522
 -21023278.272 8 -14585473.708 9  21171345.193         -87.877
 -11510325.347 7  -8120344.982 6  22812937.764       -2159.264
  -8796180.052 6  -6863361.738 5  23968981.279       -3073.929
 93  5 10  6  0 30.0020000  0  7 26 17 22  3 23 21 28                0.002331250
  -6261399.492 6  -4888254.882 5  23618111.120        1874.229
 -15981200.422 8 -12461145.433 9  21340462.165         858.527
 -19037833.505 6  -5264988.974 5  24156288.739        1737.419
 -18302558.477 7 -14267332.219 6  21769999.014        1958.939
 -21025701.701 8 -14587362.092 9  21170884.051         -73.722
 -11574963.988 7  -8170712.730 6  22800637.456       -2150.009
  -8888284.893 6  -6935131.773 5  23951454.205       -3066.203
 93  5 10  6  1  0.0020000  0  7 26 17 22  3 23 21 28                0.002335340
  -6204921.080 6  -4844245.753 5  23628858.772        1891.159
 -15955320.493 8 -12440979.267 9  21345387.126         867.031
 -18985506.648 6  -5224214.772 5  24166246.227        1750.961
 -18243524.403 7 -14221331.660 6  21781232.914        1976.477
 -21027709.896 8 -14588926.893 9  21170501.834         -60.317
 -11639333.034 7  -8220870.380 6  22788388.258       -2141.279
  -8980139.525 6  -7006706.730 5  23933975.125       -3057.411
 93  5 10  6  1 30.0020000  0  7 26 17 22  3 23 21 28                0.002339460
  -6147919.536 6  -4799828.980 5  23639705.810        1909.097
 -15929162.569 8 -12420596.467 9  21350364.762         876.949
 -18932777.034 6  -5183126.770 5  24176280.527        1764.429
 -18183960.266 7 -14174918.050 6  21792567.540        1994.303
 -21029327.431 8 -14590187.302 9  21170194.027         -47.638
 -11703439.670 7  -8270823.593 6  22776189.162       -2132.307
  -9071727.438 6  -7078073.996 5  23916546.703       -3048.472
 93  5 10  6  2  0.0020000  0  7 26 17 22  3 23 21 28                0.002343620
  -6090372.590 6  -4754987.192 5  23650656.394        1927.255
 -15902706.943 8 -12399981.694 9  21355399.126         886.595
 -18879647.047 6  -5141726.822 5  24186390.741        1777.385
 -18123859.740 7 -14128086.486 6  21804004.293        2012.108
 -21030572.045 8 -14591157.118 9  21169957.074         -35.296
 -11767264.997 7  -8320557.566 6  22764043.782       -2122.535
  -9163046.725 6  -7149231.867 5  23899169.410       -3039.449
 93  5 10  6  2 30.0020000  0  7 26 17 22  3 23 21 28                0.002347820
  -6032287.861 6  -4709726.393 5  23661709.819        1944.914
 -15875970.369 8 -12379148.005 9  21360486.892         895.700
 -18826137.784 6  -5100031.280 5  24196573.511        1789.890
 -18063224.832 7 -14080838.512 6  21815542.775        2029.969
 -21031444.540 8 -14591836.988 9  21169791.079         -22.849
 -11830786.342 7  -8370054.700 6  22751956.099       -2112.330
  -9254101.634 6  -7220183.747 5  23881842.274       -3030.909
 93  5 10  6  3  0.0020000  0  7 26 17 22  3 23 21 28                0.002352060
  -5973680.963 6  -4664058.727 5  23672862.152        1962.162
 -15848970.111 8 -12358108.841 9  21365624.946         904.324
 -18772262.368 6  -5058050.464 5  24206825.594        1801.817
 -18002057.126 7 -14033175.371 6  21827182.557        2047.677
 -21031943.980 8 -14592226.146 9  21169696.054         -10.341
 -11894001.334 7  -8419313.094 6  22739926.674       -2101.983
  -9344903.117 6  -7290938.182 5  23864563.418       -3022.538
 93  5 10  6  3 30.0020000  0  7 26 17 22  3 23 21 28                0.002356300
  -5914566.547 6  -4617995.575 5  23684110.869        1978.808
 -15821710.273 8 -12336867.418 9  21370812.444         913.006
 -18718030.231 6  -5015791.649 5  24217145.410        1813.856
 -17940355.975 7 -13985096.579 6  21838923.949        2065.565
 -21032059.626 8 -14592316.250 9  21169673.810           3.000
 -11956898.352 7  -8468323.730 6  22727957.451       -2091.009
  -9435451.239 6  -7361495.135 5  23847332.318       -3013.884
 93  5 10  6  4  0.0020000  0  7 26 17 22  3 23 21 28                0.002360560
  -5854960.889 6  -4571549.617 5  23695453.582        1995.029
 -15794200.243 8 -12315431.030 9  21376047.692         921.138
 -18663432.435 6  -4973247.965 5  24227535.166        1826.090
 -17878115.839 7 -13936597.779 6  21850767.859        2083.712
 -21031755.686 8 -14592079.428 9  21169731.659          17.623
 -12019460.509 7  -8517073.441 6  22716052.161       -2079.660
  -9525735.359 6  -7431846.342 5  23830151.932       -3004.763
 93  5 10  6  4 30.0020000  0  7 26 17 22  3 23 21 28                0.002364800
  -5794870.124 6  -4524725.645 5  23706888.875        2011.108
 -15766448.098 8 -12293805.990 9  21381328.725         929.065
 -18608476.196 6  -4930424.961 5  24237992.935        1837.843
 -17815337.979 7 -13887679.975 6  21862714.159        2101.324
 -21031017.547 8 -14591504.236 9  21169872.200          31.530
 -12081692.314 7  -8565565.725 6  22704209.803       -2069.230
  -9615753.219 6  -7501990.147 5  23813022.237       -2996.401
 93  5 10  6  5  0.0020000  0  7 26 17 22  3 23 21 28                0.002369040
  -5734285.695 6  -4477517.029 5  23718417.949        2027.800
 -15738444.443 8 -12271984.964 9  21386657.645         937.791
 -18553151.970 6  -4887315.150 5  24248520.589        1850.283
 -17752021.895 7 -13838342.770 6  21874762.727        2119.375
 -21029852.852 8 -14590596.682 9  21170093.898          45.948
 -12143600.719 7  -8613806.014 6  22692429.000       -2058.113
  -9705510.617 6  -7571930.936 5  23795942.014       -2987.588
 93  5 10  6  5 30.0020000  0  7 26 17 22  3 23 21 28                0.002373280
  -5673204.286 6  -4429921.139 5  23730041.236        2044.370
 -15710178.907 8 -12249959.874 9  21392036.260         946.581
 -18497455.397 6  -4843915.261 5  24259119.052        1862.877
 -17688167.049 7 -13788585.750 6  21886913.935        2137.444
 -21028262.446 8 -14589357.393 9  21170396.570          60.193
 -12205177.411 7  -8661787.829 6  22680711.202       -2046.948
  -9795010.789 6  -7641671.310 5  23778910.537       -2979.045
 93  5 10  6  6  0.0020000  0  7 26 17 22  3 23 21 28                0.002377540
  -5611621.639 6  -4381934.679 5  23741759.713        2061.223
 -15681652.631 8 -12227731.601 9  21397464.753         955.284
 -18441375.797 6  -4800216.872 5  24269790.889        1875.880
 -17623769.931 7 -13738406.198 6  21899168.481        2155.590
 -21026249.249 8 -14587788.655 9  21170779.684          73.954
 -12266423.598 7  -8709512.087 6  22669056.770       -2036.113
  -9884256.845 6  -7711213.708 5  23761927.540       -2970.511
 93  5 10  6  6 30.0020000  0  7 26 17 22  3 23 21 28                0.002381820
  -5549535.553 6  -4333555.935 5  23753574.555        2077.679
 -15652860.683 8 -12205296.322 9  21402943.742         964.288
 -18384904.764 6  -4756213.486 5  24280537.244        1889.058
 -17558831.244 7 -13687804.636 6  21911525.914        2173.552
 -21023833.282 8 -14585906.084 9  21171239.386          87.124
 -12327354.068 7  -8756990.354 6  22657461.898       -2025.935
  -9973244.177 6  -7780554.389 5  23744993.999       -2961.882
 93  5 10  6  7  0.0020000  0  7 26 17 22  3 23 21 28                0.002386130
  -5486973.537 6  -4284806.337 5  23765479.881        2093.158
 -15623800.522 8 -12182652.038 9  21408473.622         973.059
 -18328032.397 6  -4711897.381 5  24291359.411        1902.395
 -17493353.078 7 -13636782.696 6  21923986.079        2191.383
 -21021020.063 8 -14583713.950 9  21171774.695         100.394
 -12387982.761 7  -8804233.471 6  22645924.821       -2016.038
 -10061961.880 6  -7849685.073 5  23728111.390       -2952.488
 93  5 10  6  7 30.0020000  0  7 26 17 22  3 23 21 28                0.002390460
  -5423940.044 6  -4235689.370 5  23777474.786        2109.116
 -15594470.946 8 -12159797.839 9  21414054.749         982.135
 -18270760.663 6  -4667270.092 5  24302257.898        1915.830
 -17427336.364 7 -13585341.124 6  21936548.343        2209.519
 -21017809.054 8 -14581211.872 9  21172385.652         113.749
 -12448314.099 7  -8851244.872 6  22634444.102       -2006.043
 -10150383.692 6  -7918585.169 5  23711285.529       -2942.204
 93  5 10  6  8  0.0020000  0  7 26 17 22  3 23 21 28                0.002394810
  -5360425.974 6  -4186197.905 5  23789561.220        2125.227
 -15564871.800 8 -12136733.586 9  21419687.190         991.390
 -18213087.674 6  -4622330.122 5  24313232.401        1928.961
 -17360780.760 7 -13533479.614 6  21949213.546        2227.353
 -21014195.579 8 -14578396.160 9  21173073.346         127.283
 -12508344.872 7  -8898022.064 6  22623020.658       -1995.999
 -10238488.364 6  -7987238.138 5  23694519.685       -2931.360
 93  5 10  6  8 30.0020000  0  7 26 17 22  3 23 21 28                0.002399180
  -5296429.814 6  -4136330.805 5  23801738.799        2141.190
 -15534985.506 8 -12113445.566 9  21425374.242        1001.061
 -18155033.676 6  -4577093.226 5  24324279.782        1941.344
 -17293690.054 7 -13481201.162 6  21961980.537        2245.140
 -21010169.429 8 -14575258.905 9  21173839.627         141.145
 -12568070.902 7  -8944561.783 6  22611654.957       -1985.577
 -10326270.520 6  -8055639.765 5  23677815.153       -2920.688
 93  5 10  6  9  0.0020000  0  7 26 17 22  3 23 21 28                0.002403560
  -5231947.477 6  -4086084.839 5  23814009.481        2157.861
 -15504811.443 8 -12089933.316 9  21431116.136        1010.602
 -18096613.806 6  -4531571.269 5  24335396.703        1953.360
 -17226067.192 7 -13428508.008 6  21974848.668        2262.795
 -21005725.444 8 -14571796.038 9  21174685.281         155.162
 -12627477.559 7  -8990852.659 6  22600350.234       -1974.770
 -10413729.326 6  -8123789.521 5  23661172.020       -2909.949
 93  5 10  6  9 30.0020000  0  7 26 17 22  3 23 21 28                0.002407950
  -5166955.770 6  -4035441.966 5  23826377.135        2174.834
 -15474345.732 8 -12066193.807 9  21436913.563        1020.434
 -18037833.560 6  -4485768.539 5  24346582.509        1965.292
 -17157914.591 7 -13375402.111 6  21987817.541        2280.511
 -21000861.194 8 -14568005.713 9  21175611.067         169.207
 -12686554.692 7  -9036886.762 6  22589108.286       -1963.690
 -10500877.204 6  -8191696.884 5  23644588.391       -2899.963
 93  5 10  6 10  0.0020000  0  7 26 17 22  3 23 21 28                0.002412350
  -5101459.414 6  -3984405.845 5  23838840.542        2191.414
 -15443581.146 8 -12042221.410 9  21442767.680        1030.566
 -17978701.254 6  -4439691.381 5  24357834.962        1976.810
 -17089230.051 7 -13321881.700 6  22000887.772        2298.291
 -20995577.630 8 -14563888.629 9  21176616.485         182.976
 -12745307.593 7  -9082668.204 6  22577928.295       -1953.271
 -10587730.622 6  -8259374.846 5  23628060.822       -2890.312
 93  5 10  6 10 30.0020000  0  7 26 17 22  3 23 21 28                0.002416750
  -5035476.260 6  -3932990.469 5  23851396.483        2207.318
 -15412524.709 8 -12018021.598 9  21448677.501        1039.632
 -17919225.475 6  -4393346.602 5  24369153.087        1988.346
 -17020013.758 7 -13267946.952 6  22014059.454        2315.834
 -20989894.467 8 -14559460.190 9  21177698.014         195.844
 -12803755.410 7  -9128211.935 6  22566805.967       -1943.338
 -10674306.137 6  -8326836.279 5  23611586.038       -2881.261
 93  5 10  6 11  0.0020000  0  7 26 17 22  3 23 21 28                0.002421170
  -4969019.776 6  -3881206.205 5  23864042.905        2223.113
 -15381203.854 8 -11993615.741 9  21454637.782        1048.463
 -17859395.918 6  -4346726.259 5  24380538.245        2000.130
 -16950271.497 7 -13213602.328 6  22027330.973        2333.346
 -20983824.596 8 -14554730.418 9  21178852.976         208.787
 -12861913.342 7  -9173529.787 6  22555738.586       -1933.867
 -10760608.478 6  -8394084.826 5  23595163.069       -2872.288
 93  5 10  6 11 30.0020000  0  7 26 17 22  3 23 21 28                0.002425610
  -4902090.813 6  -3829053.746 5  23876779.299        2238.627
 -15349617.802 8 -11969003.246 9  21460648.562        1057.010
 -17799221.220 6  -4299836.825 5  24391988.902        2011.164
 -16880001.880 7 -13158846.806 6  22040702.949        2350.890
 -20977371.199 8 -14549701.789 9  21180080.985         221.225
 -12919786.062 7  -9218625.389 6  22544725.870       -1924.412
 -10846636.493 6  -8461119.597 5  23578792.521       -2862.845
 93  5 10  6 12  0.0020000  0  7 26 17 22  3 23 21 28                0.002430060
  -4834697.556 6  -3776539.562 5  23889603.899        2254.197
 -15317784.670 8 -11944198.203 9  21466706.447        1065.143
 -17738730.457 6  -4252701.166 5  24403500.199        2021.687
 -16809211.133 7 -13103685.196 6  22054173.805        2368.281
 -20970553.315 8 -14544389.147 9  21181378.388         233.393
 -12977374.685 7  -9263499.628 6  22533767.217       -1914.695
 -10932376.317 6  -8527929.861 5  23562476.584       -2853.036
 93  5 10  6 12 30.0020000  0  7 26 17 22  3 23 21 28                0.002434520
  -4766835.123 6  -3723659.756 5  23902517.733        2269.861
 -15285711.601 8 -11919206.209 9  21472809.874        1072.894
 -17677917.889 5  -4205314.798 5  24415072.573        2032.263
 -16737897.856 7 -13048116.411 6  22067744.130        2385.538
 -20963362.222 8 -14538785.684 9  21182746.897         246.043
 -13034653.021 7  -9308132.081 6  22522867.304       -1903.874
 -11017815.585 6  -8594505.883 5  23546218.100       -2842.874
 93  5 10  6 13  0.0020000  0  7 26 17 22  3 23 21 28                0.002438990
  -4698496.887 6  -3670409.159 5  23915521.708        2286.010
 -15253397.067 8 -11894026.058 9  21478959.136        1081.311
 -17616792.155 6  -4157684.405 5  24426704.479        2042.469
 -16666063.481 7 -12992141.590 6  22081413.856        2403.024
 -20955778.309 8 -14532876.145 9  21184190.010         259.214
 -13091594.519 7  -9352502.060 6  22512031.485       -1892.292
 -11102939.073 6  -8660835.848 5  23530019.776       -2832.193
 93  5 10  6 13 30.0020000  0  7 26 17 22  3 23 21 28                0.002443480
  -4629675.633 6  -3616782.245 5  23928617.715        2301.927
 -15220838.490 8 -11868655.757 9  21485154.857        1089.215
 -17555367.879 6  -4109821.322 5  24438393.047        2052.516
 -16593705.713 7 -12935758.945 6  22095183.064        2420.474
 -20947814.545 8 -14526670.591 9  21185705.430         271.709
 -13148183.398 7  -9396597.276 6  22501263.008       -1880.541
 -11187737.302 6  -8726912.390 5  23513883.317       -2821.169
 93  5 10  6 14  0.0020000  0  7 26 17 22  3 23 21 28                0.002447970
  -4560388.589 6  -3562792.360 5  23941802.855        2317.062
 -15188040.769 8 -11843099.095 9  21491396.076        1097.433
 -17493632.795 5  -4061716.082 5  24450140.373        2063.373
 -16520829.678 7 -12878972.452 6  22109051.033        2437.750
 -20939470.157 8 -14520168.467 9  21187293.282         284.708
 -13204429.488 7  -9440425.385 6  22490559.519       -1869.250
 -11272217.796 6  -8792741.335 5  23497807.118       -2810.890
 93  5 10  6 14 30.0020000  0  7 26 17 22  3 23 21 28                0.002452470
  -4490654.410 6  -3508454.047 5  23955073.090        2331.857
 -15154988.964 8 -11817344.456 9  21497685.571        1105.996
 -17431562.031 6  -4013349.233 5  24461952.495        2074.453
 -16447433.992 7 -12821780.999 6  22123017.913        2455.036
 -20930735.602 8 -14513362.320 9  21188955.442         297.594
 -13260340.156 7  -9483992.110 6  22479920.355       -1858.316
 -11356386.420 6  -8858327.227 5  23481789.884       -2800.277
 93  5 10  6 15  0.0020000  0  7 26 17 22  3 23 21 28                0.002456970
  -4420474.776 6  -3453768.627 5  23968428.036        2346.872
 -15121674.295 8 -11791384.987 9  21504025.133        1115.211
 -17369171.924 6  -3964733.671 5  24473825.153        2085.119
 -16373519.775 7 -12764185.514 6  22137083.215        2472.492
 -20921615.464 8 -14506255.710 9  21190691.110         310.426
 -13315936.594 7  -9527313.997 6  22469340.819       -1848.051
 -11440233.759 6  -8923662.834 5  23465834.215       -2789.370
 93  5 10  6 15 30.0020000  0  7 26 17 22  3 23 21 28                0.002461480
  -4349851.146 6  -3398737.238 5  23981867.019        2361.369
 -15088073.815 8 -11765202.806 9  21510419.167        1124.920
 -17306447.416 5  -3915857.400 5  24485761.152        2096.674
 -16299080.780 7 -12706181.143 6  22151248.520        2489.940
 -20912112.821 8 -14498851.063 9  21192499.438         323.316
 -13371230.482 7  -9570400.122 6  22458818.943       -1838.353
 -11523747.170 6  -8988738.185 5  23449942.283       -2778.210
 93  5 10  6 16  0.0020000  0  7 26 17 22  3 23 21 28                0.002466000
  -4278790.362 6  -3343365.274 5  23995389.379        2376.151
 -15054172.627 8 -11738786.305 9  21516870.390        1135.107
 -17243382.664 5  -3866716.003 5  24497762.400        2107.720
 -16224116.753 7 -12647767.616 6  22165513.643        2507.488
 -20902213.709 8 -14491137.452 9  21194383.173         336.620
 -13426236.636 7  -9613262.025 6  22448351.390       -1828.591
 -11606926.333 6  -9053553.122 5  23434114.040       -2766.898
 93  5 10  6 16 30.0020000  0  7 26 17 22  3 23 21 28                0.002470520
  -4207278.157 6  -3287641.470 5  24008997.997        2391.714
 -15019972.830 8 -11712137.124 9  21523378.245        1144.901
 -17179993.617 5  -3817322.015 5  24509824.911        2118.293
 -16148624.688 7 -12588942.646 6  22179879.360        2525.208
 -20891914.181 8 -14483111.850 9  21196343.097         350.211
 -13480942.612 7  -9655890.045 6  22437940.979       -1818.229
 -11689757.053 6  -9118096.521 5  23418351.893       -2754.983
 93  5 10  6 17  0.0020000  0  7 26 17 22  3 23 21 28                0.002475050
  -4135291.676 6  -3231548.133 5  24022696.712        2407.401
 -14985482.895 8 -11685261.863 9  21529941.173        1154.432
 -17116283.888 5  -3767678.094 5  24521948.047        2129.206
 -16072600.109 7 -12529702.757 6  22194346.201        2542.847
 -20881199.441 8 -14474762.698 9  21198381.864         364.007
 -13535328.304 7  -9698268.497 6  22427591.562       -1807.414
 -11772231.451 6  -9182362.294 5  23402657.687       -2743.304
 93  5 10  6 17 30.0020000  0  7 26 17 22  3 23 21 28                0.002479610
  -4062835.226 6  -3175088.528 5  24036484.516        2423.202
 -14950714.206 8 -11658169.398 9  21536557.482        1163.409
 -17052235.328 5  -3717770.130 5  24534136.320        2140.472
 -15996046.944 7 -12470050.958 6  22208914.128        2560.451
 -20870078.330 8 -14466096.885 9  21200498.081         377.504
 -13589386.489 7  -9740391.744 6  22417304.633       -1796.312
 -11854361.272 6  -9246359.531 5  23387028.725       -2732.029
 93  5 10  6 18  0.0020000  0  7 26 17 22  3 23 21 28                0.002484190
  -3989900.464 6  -3118256.218 5  24050363.570        2439.066
 -14915677.580 8 -11630868.140 8  21543224.737        1172.212
 -16987861.159 5  -3667608.446 5  24546386.016        2151.059
 -15918963.032 7 -12409985.585 6  22223582.803        2578.097
 -20858545.711 8 -14457110.434 9  21202692.681         391.197
 -13643092.569 7  -9782240.606 6  22407084.746       -1784.147
 -11936153.840 6  -9310094.032 5  23371463.692       -2720.777
 93  5 10  6 18 30.0020000  0  7 26 17 22  3 23 21 28                0.002488790
  -3916490.140 6  -3061053.382 5  24064333.153        2454.909
 -14880379.945 8 -11603363.518 8  21549941.467        1180.934
 -16923172.598 5  -3617201.823 5  24558695.442        2161.628
 -15841352.573 7 -12349509.909 6  22238351.280        2595.615
 -20846608.850 8 -14447808.986 9  21204964.042         404.410
 -13696429.612 7  -9823801.911 6  22396935.174       -1771.759
 -12017601.782 6  -9373559.933 5  23355964.483       -2709.055
 93  5 10  6 19  0.0020000  0  7 26 17 22  3 23 21 28                0.002493430
  -3842613.946 6  -3003487.489 5  24078391.394        2469.958
 -14844813.840 8 -11575649.683 8  21556709.499        1190.161
 -16858164.398 5  -3566546.098 5  24571067.113        2172.174
 -15763222.692 7 -12288629.518 5  22253219.178        2612.788
 -20834288.420 8 -14438208.649 9  21207308.297         416.750
 -13749408.446 7  -9865084.125 6  22386853.494       -1760.401
 -12098699.112 6  -9436752.672 5  23340532.374       -2697.398
 93  5 10  6 19 30.0020000  0  7 26 17 22  3 23 21 28                0.002498070
  -3768295.104 6  -2945576.679 5  24092533.676        2484.405
 -14808971.352 8 -11547720.491 8  21563530.138        1199.277
 -16792849.519 5  -3515651.393 5  24583496.072        2181.933
 -15684580.433 7 -12227349.863 5  22268184.186        2629.740
 -20821606.383 8 -14428326.534 9  21209721.616         428.744
 -13802049.114 7  -9906102.806 6  22376836.438       -1749.063
 -12179448.296 6  -9499674.099 5  23325166.513       -2685.843
 93  5 10  6 20  0.0020000  0  7 26 17 22  3 23 21 28                0.002502720
  -3693553.084 6  -2887336.135 5  24106756.404        2498.281
 -14772855.352 8 -11519578.170 8  21570402.988        1208.408
 -16727241.236 5  -3464528.073 5  24595980.650        2192.037
 -15605430.605 7 -12165674.686 5  22283245.939        2646.677
 -20808559.058 8 -14418159.799 9  21212204.625         441.008
 -13854358.046 7  -9946862.995 6  22366882.397       -1738.452
 -12259837.668 6  -9562315.178 5  23309869.214       -2673.413
 93  5 10  6 20 30.0020000  0  7 26 17 22  3 23 21 28                0.002507380
  -3618395.942 6  -2828772.082 5  24121058.107        2512.237
 -14736469.582 8 -11491225.639 8  21577326.946        1217.358
 -16661323.844 5  -3413163.904 5  24608523.805        2202.517
 -15525777.375 7 -12103607.251 5  22298403.397        2663.421
 -20795152.817 8 -14407713.369 9  21214755.900         452.853
 -13906363.527 7  -9987386.730 6  22356986.021       -1728.522
 -12339858.436 6  -9624669.027 5  23294641.783       -2661.344
 93  5 10  6 21  0.0020000  0  7 26 17 22  3 23 21 28                0.002512060
  -3542826.166 6  -2769886.524 5  24135438.715        2525.700
 -14699818.400 8 -11462666.309 8  21584301.509        1226.040
 -16595094.649 5  -3361556.728 5  24621126.296        2212.519
 -15445620.173 7 -12041147.129 5  22313657.018        2680.139
 -20781383.589 8 -14396984.113 9  21217376.387         465.057
 -13958076.678 7 -10027682.670 6  22347145.413       -1718.968
 -12419526.894 6  -9686748.332 5  23279481.241       -2649.914
 93  5 10  6 21 30.0020000  0  7 26 17 22  3 23 21 28                0.002516740
  -3466852.078 6  -2710685.937 5  24149896.269        2539.328
 -14662914.963 8 -11433910.396 8  21591324.158        1234.268
 -16528577.579 5  -3309725.283 5  24633784.228        2221.990
 -15364960.432 7 -11978295.421 5  22329006.038        2696.914
 -20767244.052 8 -14385966.291 9  21220067.182         477.653
 -14009496.195 7 -10067749.796 6  22337360.638       -1708.921
 -12498856.764 6  -9748563.819 5  23264385.181       -2638.670
 93  5 10  6 22  0.0020000  0  7 26 17 22  3 23 21 28                0.002521410
  -3390467.773 6  -2651165.658 5  24164431.250        2553.055
 -14625770.375 8 -11404966.576 8  21598392.644        1242.101
 -16461785.746 5  -3257679.748 5  24646494.175        2230.752
 -15283805.259 7 -11915057.621 5  22344449.290        2713.205
 -20752728.999 8 -14374655.848 9  21222829.210         489.887
 -14060624.703 7 -10107590.182 6  22327630.924       -1699.587
 -12577850.679 6  -9810117.532 5  23249352.847       -2627.855
 93  5 10  6 22 30.0020000  0  7 26 17 22  3 23 21 28                0.002526080
  -3313661.551 6  -2591316.592 5  24179047.113        2567.185
 -14588379.094 8 -11375830.524 8  21605507.947        1250.665
 -16394735.135 5  -3205432.530 5  24659253.760        2239.028
 -15202160.725 7 -11851438.539 5  22359985.636        2729.526
 -20737847.569 8 -14363059.947 9  21225660.842         502.165
 -14111461.766 7 -10147203.466 6  22317956.970       -1689.437
 -12656534.705 7  -9871429.725 5  23234380.001       -2617.726
 93  5 10  6 23  0.0020000  0  7 26 17 22  3 23 21 28                0.002530730
  -3236438.644 6  -2531142.882 5  24193742.391        2581.151
 -14550720.217 8 -11346485.964 8  21612674.157        1260.105
 -16327437.811 5  -3152993.045 5  24672059.456        2247.398
 -15120018.476 7 -11787431.623 5  22375616.843        2746.423
 -20722592.505 8 -14351172.883 9  21228563.571         514.762
 -14161981.855 7 -10186569.765 6  22308343.185       -1678.497
 -12734895.867 7  -9932490.397 5  23219468.656       -2606.157
 93  5 10  6 23 30.0020000  0  7 26 17 22  3 23 21 28                0.002535380
  -3158795.347 6  -2470641.589 5  24208517.551        2595.023
 -14512778.785 8 -11316921.238 8  21619893.988        1269.378
 -16259897.285 5  -3100364.107 5  24684912.374        2255.457
 -15037377.148 7 -11723035.799 5  22391343.126        2762.830
 -20706969.731 8 -14338999.306 9  21231536.434         526.784
 -14212175.587 7 -10225681.738 6  22298791.729       -1667.684
 -12812908.840 7  -9993279.735 5  23204623.393       -2594.585
 93  5 10  6 24  0.0020000  0  7 26 17 22  3 23 21 28                0.002540020
  -3080734.245 6  -2409814.737 5  24223371.936        2608.937
 -14474556.178 8 -11287137.396 8  21627167.543        1278.806
 -16192103.632 5  -3047537.911 5  24697813.579        2263.939
 -14954240.627 7 -11658254.121 5  22407163.381        2779.316
 -20690994.308 8 -14326550.920 9  21234576.319         538.218
 -14262045.047 7 -10264541.050 6  22289302.117       -1656.987
 -12890567.780 7 -10053793.170 5  23189845.285       -2582.737
 93  5 10  6 24 30.0020000  0  7 26 17 22  3 23 21 28                0.002544670
  -3002264.568 6  -2348669.482 5  24238304.011        2622.251
 -14436053.806 8 -11257135.564 8  21634494.171        1287.812
 -16124057.959 5  -2994515.306 5  24710762.891        2272.322
 -14870610.929 7 -11593088.155 5  22423077.667        2795.734
 -20674682.711 8 -14313840.593 9  21237680.469         549.182
 -14311595.306 7 -10303151.629 6  22279873.165       -1646.437
 -12967865.716 7 -10114025.351 5  23175135.947       -2570.210
 93  5 10  6 25  0.0020000  0  7 26 17 22  3 23 21 28                0.002549330
  -2923391.038 6  -2287209.536 5  24253313.255        2636.142
 -14397290.918 8 -11226930.744 8  21641870.604        1296.306
 -16055761.578 5  -2941297.332 5  24723759.509        2280.997
 -14786486.618 7 -11527536.764 5  22439086.115        2812.263
 -20658041.852 8 -14300873.692 9  21240847.177         560.232
 -14360829.483 7 -10341515.907 6  22270504.062       -1636.026
 -13044769.791 7 -10173950.603 5  23160501.439       -2556.867
 93  5 10  6 25 30.0020000  0  7 26 17 22  3 23 21 28                0.002554000
  -2844102.493 6  -2225426.254 5  24268401.502        2649.652
 -14358279.213 8 -11196532.024 8  21649294.315        1304.406
 -15987206.792 5  -2887878.106 5  24736804.569        2289.569
 -14701870.333 7 -11461602.015 5  22455188.107        2828.586
 -20641065.606 8 -14287645.455 9  21244077.802         571.661
 -14409762.534 7 -10379645.549 6  22261192.168       -1626.124
 -13121284.602 7 -10233572.542 5  23145941.208       -2544.129
 93  5 10  6 26  0.0020000  0  7 26 17 22  3 23 21 28                0.002558690
  -2764414.506 6  -2163331.684 5  24283565.364        2662.879
 -14319021.359 8 -11165941.502 8  21656764.734        1312.927
 -15918389.386 5  -2834254.125 5  24749900.421        2298.204
 -14616764.367 7 -11395285.703 5  22471383.364        2844.886
 -20623745.402 8 -14274149.202 9  21247373.719         583.243
 -14458401.478 7 -10417546.009 6  22251936.457       -1616.401
 -13197417.411 7 -10292896.818 5  23131453.569       -2531.235
 93  5 10  6 26 30.0020000  0  7 26 17 22  3 23 21 28                0.002563400
  -2684325.876 6  -2100924.917 5  24298805.840        2676.239
 -14279502.196 8 -11135147.363 8  21664284.968        1321.600
 -15849313.972 5  -2780429.168 5  24763045.056        2306.759
 -14531169.886 7 -11328588.750 5  22487671.322        2861.144
 -20606067.621 8 -14260374.309 9  21250737.591         595.144
 -14506743.011 7 -10455214.715 6  22242737.373       -1606.428
 -13273158.240 7 -10351915.624 5  23117040.606       -2518.128
 93  5 10  6 27  0.0020000  0  8 26 17 22  3 23 21  1 28             0.002568210
  -2603843.788 6  -2038211.516 5  24314121.351        2689.349
 -14239713.678 8 -11104143.332 8  21671856.475        1331.139
 -15779975.069 5  -2726398.896 5  24776240.062        2315.963
 -14445090.009 7 -11261513.537 5  22504051.768        2877.267
 -20588030.176 8 -14246319.173 9  21254169.905         607.399
 -14554788.696 7 -10492652.917 6  22233594.632       -1596.588
  -1824724.65415  -1087414.58215  25366258.442       -3496.258
 -13348509.902 7 -10410631.231 5  23102701.792       -2505.450
 93  5 10  6 27 30.0020000  0  8 26 17 22  3 23 21  1 28             0.002572930
  -2522972.999 6  -1975195.280 5  24329510.594        2702.058
 -14199631.479 8 -11072910.474 8  21679484.124        1340.861
 -15710363.194 5  -2672155.894 5  24789486.618        2324.849
 -14358525.327 7 -11194060.559 5  22520524.447        2893.456
 -20569625.795 8 -14231978.109 9  21257672.051         619.386
 -14602535.418 7 -10529858.127 6  22224508.822       -1586.290
  -1929614.412 5  -1169146.635 5  25346298.910       -3496.391
 -13423481.523 7 -10469050.685 5  23088435.308       -2492.497
 93  5 10  6 28  0.0020000  0  8 26 17 22  3 23 21  1 28             0.002577660
  -2441704.675 6  -1911869.262 5  24344975.525        2715.775
 -14159257.475 8 -11041450.227 8  21687167.136        1350.588
 -15640478.766 5  -2617700.481 5  24802784.715        2333.949
 -14271473.664 7 -11126228.127 5  22537089.657        2909.642
 -20550873.535 8 -14217365.958 9  21261240.552         630.667
 -14649960.262 7 -10566812.540 6  22215484.110       -1575.421
  -2034502.907 5  -1250877.731 5  25326339.238       -3496.256
 -13498056.987 7 -10527161.420 5  23074243.675       -2479.108
 93  5 10  6 28 30.0020000  0  8 26 17 22  3 23 21  1 28             0.002582400
  -2360027.954 6  -1848225.002 5  24360517.926        2729.429
 -14118607.144 8 -11009774.662 8  21694902.769        1359.450
 -15570327.421 5  -2563037.112 5  24816133.890        2342.984
 -14183939.688 7 -11058019.888 5  22553747.068        2925.859
 -20531787.193 8 -14202493.492 9  21264872.496         641.692
 -14697057.955 7 -10603512.011 6  22206521.832       -1564.230
  -2139383.099 5  -1332602.368 5  25306381.099       -3495.553
 -13572234.825 7 -10584962.328 5  23060127.716       -2465.932
 93  5 10  6 29  0.0020000  0  8 26 17 22  3 23 21  1 28             0.002587170
  -2277949.550 6  -1784267.773 5  24376136.833        2742.475
 -14077695.250 8 -10977895.271 8  21702688.061        1367.933
 -15499911.359 5  -2508167.527 5  24829533.052        2351.343
 -14095921.738 7 -10989434.488 5  22570496.322        2941.741
 -20512369.565 8 -14187362.883 9  21268567.538         652.856
 -14743817.094 7 -10639947.703 6  22197623.635       -1552.871
  -2244236.135 5  -1414305.894 5  25286428.381       -3494.805
 -13646018.389 7 -10642456.007 5  23046087.227       -2452.916
 93  5 10  6 29 30.0020000  0  8 26 17 22  3 23 21  1 28             0.002591940
  -2195478.179 6  -1720004.343 5  24391830.328        2755.472
 -14036539.529 8 -10945825.904 8  21710519.710        1375.691
 -15429257.251 5  -2453112.382 5  24842978.501        2358.785
 -14007422.402 7 -10920473.982 5  22587337.243        2957.789
 -20492619.731 8 -14171973.414 9  21272325.747         663.618
 -14790224.158 7 -10676109.023 6  22188792.580       -1541.021
  -2349063.661 5  -1495989.535 5  25266480.140       -3493.806
 -13719407.690 7 -10699642.484 5  23032121.832       -2439.684
 93  5 10  6 30  0.0020000  0  8 26 17 22  3 23 21  1 28             0.002596720
  -2112619.547 6  -1655439.113 5  24407597.946        2768.181
 -13995145.134 8 -10913570.540 8  21718396.767        1383.916
 -15358381.651 5  -2397884.629 5  24856465.916        2365.978
 -13918443.380 7 -10851139.732 5  22604269.230        2973.706
 -20472542.101 8 -14156328.514 9  21276146.472         674.866
 -14836278.973 7 -10711995.891 6  22180028.717       -1529.588
  -2453863.266 5  -1577651.382 5  25246537.101       -3493.046
 -13792402.267 7 -10756521.376 5  23018231.510       -2426.753
 93  5 10  6 30 30.0020000  0  7 26 17 22  3 23 21 28                0.002601470
  -2029394.688 6  -1590588.549 5  24423434.906        2779.783
 -13953497.459 8 -10881117.820 8  21726321.851        1392.506
 -15287294.286 5  -2342491.911 5  24869993.188        2372.882
 -13828984.889 7 -10781431.855 5  22621292.505        2989.756
 -20452114.032 8 -14140410.547 9  21280033.909         686.736
 -14881994.061 7 -10747618.032 6  22171329.488       -1518.437
 -13865007.667 7 -10813096.969 6  23004415.156       -2413.813
 93  5 10  6 31  0.0020000  0  7 26 17 22  3 23 21 28                0.002606220
  -1945826.803 6  -1525470.653 5  24439337.486        2791.317
 -13911587.139 8 -10848460.443 8  21734297.050        1401.509
 -15216002.301 5  -2286939.759 5  24883559.726        2379.816
 -13739048.876 7 -10711351.837 5  22638406.886        3005.626
 -20431332.182 8 -14124216.915 9  21283988.731         698.670
 -14927387.385 7 -10782989.436 6  22162691.409       -1508.025
 -13937224.197 7 -10869369.585 6  22990672.938       -2400.693
 93  5 10  6 31 30.0020000  0  8 26 17 22  3 23 21  1 28             0.002610980
  -1861913.285 6  -1460083.463 5  24455305.513        2802.977
 -13869403.182 8 -10815589.831 8  21742324.243        1410.886
 -15144499.766 5  -2231223.526 5  24897165.859        2386.955
 -13648637.656 7 -10640901.568 5  22655611.596        3021.474
 -20410198.170 8 -14107748.852 9  21288010.489         710.207
 -14972477.192 7 -10818124.327 6  22154110.997       -1498.140
     -6981.43515    -19054.30711  25186739.317       -3490.807
 -14009045.100 7 -10925333.917 6  22977006.030       -2387.434
 93  5 10  6 32  0.0020000  0  8 26 17 22  3 23 21  1 28             0.002615700
  -1777645.111 6  -1394419.901 5  24471341.354        2815.113
 -13826928.534 8 -10782492.716 8  21750406.966        1420.944
 -15072771.086 5  -2175331.020 5  24910815.348        2395.021
 -13557751.624 6 -10570081.340 5  22672906.665        3037.449
 -20388713.395 8 -14091007.489 9  21292098.916         722.241
 -15017275.662 7 -10853032.213 6  22145586.039       -1488.325
   -111697.066 5   -100651.328 1  25166812.414       -3490.013
 -14080468.891 7 -10980988.830 6  22963414.500       -2373.929
 93  5 10  6 32 30.0020000  0  8 26 17 22  3 23 21  1 28             0.002620430
  -1693014.360 6  -1328473.802 5  24487446.166        2827.227
 -13784160.936 8 -10749167.325 8  21758545.362        1430.215
 -15000807.602 5  -2119255.647 5  24924509.312        2402.776
 -13466388.343 7 -10498889.198 5  22690292.577        3053.266
 -20366872.799 8 -14073988.853 9  21296255.021         733.784
 -15061783.059 7 -10887713.292 6  22137116.483       -1478.722
   -216389.854 5   -182230.007 2  25146889.888       -3489.559
 -14151481.660 7 -11036323.448 6  22949901.044       -2360.202
 93  5 10  6 33  0.0020000  0  8 26 17 22  3 23 21  1 28             0.002625170
  -1608003.846 6  -1262231.765 5  24503622.896        2840.393
 -13741117.149 8 -10715626.722 8  21766736.342        1439.308
 -14928615.633 5  -2063002.203 5  24938247.404        2410.148
 -13374554.549 7 -10427330.412 5  22707767.847        3068.797
 -20344696.120 8 -14056708.334 9  21300475.209         744.740
 -15105998.089 7 -10922166.555 6  22128702.368       -1468.838
   -321076.378 5   -263803.792 3  25126968.692       -3489.364
 -14222082.382 7 -11091337.026 6  22936466.144       -2346.498
 93  5 10  6 33 30.0020000  0  8 26 17 22  3 23 21  1 28             0.002629920
  -1522582.276 6  -1195669.487 5  24519878.065        2854.438
 -13697805.461 8 -10681877.371 8  21774978.626        1448.112
 -14856198.222 5  -2006573.035 5  24952027.772        2417.654
 -13282252.602 6 -10355406.846 5  22725332.288        3084.453
 -20322184.964 8 -14039167.180 9  21304759.003         755.928
 -15149901.423 7 -10956376.945 6  22120347.951       -1457.992
   -425739.918 5   -345359.685 4  25107051.181       -3488.228
 -14292266.498 7 -11146025.913 6  22923110.730       -2332.401
 93  5 10  6 34  0.0020000  0  8 26 17 22  3 23 21  1 28             0.002634720
  -1436736.144 6  -1128776.337 5  24536213.984        2868.667
 -13654227.508 8 -10647920.523 8  21783271.344        1456.958
 -14783555.716 5  -1949968.502 5  24965850.989        2425.240
 -13189477.424 6 -10283114.536 5  22742986.907        3100.370
 -20299333.027 8 -14021360.483 9  21309107.732         767.686
 -15193473.545 7 -10990329.230 6  22112056.681       -1446.690
   -530358.525 5   -426880.549 5  25087142.392       -3486.382
 -14362022.948 7 -11200381.592 6  22909836.782       -2317.825
 93  5 10  6 34 30.0020000  0  8 26 17 22  3 23 21  1 28             0.002639540
  -1350471.404 6  -1061556.994 5  24552629.515        2882.325
 -13610398.543 8 -10613768.090 8  21791611.740        1464.936
 -14710695.262 5  -1893194.218 5  24979716.101        2432.180
 -13096232.217 7 -10210455.965 5  22760731.102        3115.784
 -20276129.501 8 -14003279.823 9  21313523.134         779.224
 -15236711.136 7 -11024020.832 6  22103828.828       -1435.719
   -634931.850 5   -508366.146 5  25067242.754       -3485.060
 -14431345.817 7 -11254399.415 6  22896644.854       -2303.758
 93  5 10  6 35  0.0020000  0  8 26 17 22  3 23 21  1 28             0.002644380
  -1263797.258 6   -994018.662 5  24569123.069        2895.642
 -13566321.071 8 -10579422.011 8  21799999.305        1473.572
 -14637621.724 5  -1836253.796 5  24993621.357        2439.237
 -13002521.209 7 -10137434.406 5  22778563.891        3131.302
 -20252577.793 8 -13984927.846 9  21318004.831         790.895
 -15279607.677 7 -11057446.712 6  22095666.010       -1424.216
   -739448.618 5   -589807.610 5  25047354.013       -3482.661
 -14500246.758 7 -11308088.449 6  22883533.239       -2289.629
 93  5 10  6 35 30.0020000  0  8 26 17 22  3 23 21  1 28             0.002649240
  -1176746.358 6   -926186.758 5  24585688.053        2907.462
 -13521985.568 8 -10544874.891 8  21808436.234        1482.286
 -14564340.062 5  -1779151.144 5  25007566.459        2446.036
 -12908347.498 7 -10064052.336 5  22796484.455        3146.626
 -20228673.508 8 -13966301.139 9  21322553.643         802.534
 -15322165.134 7 -11090608.353 6  22087567.455       -1413.074
   -843890.846 5   -671191.078 5  25027479.247       -3480.304
 -14568719.648 7 -11361443.944 6  22870503.211       -2275.274
 93  5 10  6 36  0.0020000  0  8 26 17 22  3 23 21  1 28             0.002654100
  -1089360.960 5   -858094.203 5  24602317.122        2918.277
 -13477377.627 8 -10510115.454 8  21816924.937        1491.616
 -14490871.616 5  -1721903.117 5  25021546.410        2452.125
 -12813714.633 7  -9990312.470 5  22814492.363        3162.072
 -20204429.045 8 -13947409.357 9  21327166.901         813.843
 -15364397.615 7 -11123516.773 7  22079530.828       -1402.283
   -948265.834 5   -752522.152 5  25007617.449       -3478.035
 -14636766.014 7 -11414467.097 6  22857554.256       -2260.958
 93  5 10  6 36 30.0020000  0  8 26 17 22  3 23 21  1 28             0.002658950
  -1001654.490 5   -789751.444 5  24619006.955        2928.753
 -13432491.504 8 -10475139.263 8  21825466.315        1500.829
 -14417218.230 5  -1664510.894 5  25035562.766        2458.040
 -12718622.248 6  -9916214.525 5  22832587.908        3177.180
 -20179857.933 8 -13928263.034 9  21331842.474         824.076
 -15406310.020 7 -11156175.784 7  22071555.330       -1391.788
  -1052568.549 5   -833796.854 5  24987768.869       -3475.461
 -14704381.906 7 -11467154.786 6  22844687.423       -2246.752
 93  5 10  6 37  0.0020000  0  8 26 17 22  3 23 21  1 28             0.002663790
   -913636.309 5   -721165.820 5  24635756.099        2939.021
 -13387324.021 8 -10439943.828 8  21834061.235        1510.384
 -14343394.865 5  -1606986.171 5  25049611.037        2463.613
 -12623072.619 6  -9841760.300 5  22850770.477        3192.555
 -20154990.376 8 -13908885.739 9  21336574.647         833.857
 -15447904.791 7 -11188587.265 7  22063640.128       -1381.233
  -1156786.991 5   -915005.939 5  24967936.816       -3472.616
 -14771560.795 7 -11519501.974 6  22831903.683       -2231.631
 93  5 10  6 37 30.0020000  0  8 26 17 22  3 23 21  1 28             0.002668620
   -825312.493 5   -652342.016 5  24652563.876        2949.396
 -13341871.680 8 -10404526.421 8  21842710.497        1519.774
 -14269406.325 5  -1549332.813 5  25063691.047        2469.042
 -12527065.360 6  -9766949.495 5  22869040.051        3207.749
 -20129830.034 8 -13889280.274 9  21341362.582         843.501
 -15489190.934 7 -11220758.278 7  22055783.509       -1371.183
  -1260933.082 5   -996158.610 5  24948118.307       -3470.473
 -14838284.186 7 -11571494.227 6  22819206.841       -2216.552
 93  5 10  6 38  0.0020000  0  8 26 17 22  3 23 21  1 28             0.002673450
   -736659.232 5   -583261.514 5  24669433.984        2960.735
 -13296140.693 8 -10368891.891 7  21851412.532        1528.730
 -14195250.720 5  -1491549.295 5  25077802.340        2474.897
 -12430603.227 6  -9691784.225 5  22887396.307        3222.785
 -20104379.201 8 -13869448.463 9  21346205.659         853.337
 -15530177.299 7 -11252695.700 7  22047984.229       -1361.296
  -1365016.274 5  -1077262.309 5  24928311.936       -3468.409
 -14904555.819 7 -11623134.435 6  22806596.214       -2201.572
 93  5 10  6 38 30.0020000  0  8 26 17 22  3 23 21  1 28             0.002678300
   -647662.539 6   -513913.393 5  24686369.262        2972.374
 -13250147.036 8 -10333052.675 7  21860164.913        1537.629
 -14120905.124 5  -1433617.654 5  25091949.939        2481.269
 -12333687.965 6  -9616265.841 5  22905838.628        3237.988
 -20078624.348 8 -13849379.756 9  21351106.668         863.821
 -15570868.625 7 -11284403.211 7  22040240.939       -1351.484
  -1469034.779 5  -1158315.619 5  24908517.734       -3466.155
 -14970375.012 7 -11674422.110 6  22794071.242       -2186.441
 93  5 10  6 39  0.0020000  0  8 26 17 22  3 23 21  1 28             0.002683160
   -558321.246 6   -444296.782 5  24703370.077        2984.011
 -13203889.182 8 -10297007.601 7  21868967.748        1546.446
 -14046376.028 5  -1375543.099 5  25106132.451        2487.656
 -12236323.805 6  -9540397.687 5  22924366.478        3252.913
 -20052547.012 8 -13829059.761 9  21356069.132         874.962
 -15611268.410 7 -11315883.545 7  22032552.812       -1341.709
  -1572998.673 5  -1239326.390 5  24888733.588       -3464.755
 -15035746.888 7 -11725361.227 6  22781631.195       -2171.667
 93  5 10  6 39 30.0020000  0  8 26 17 22  3 23 21  1 28             0.002688020
   -468622.097 6   -374401.304 5  24720438.945        2996.081
 -13157361.705 8 -10260752.431 7  21877821.748        1555.309
 -13971641.820 5  -1317308.736 5  25120353.751        2494.594
 -12138513.818 6  -9464182.161 5  22942979.355        3267.479
 -20026122.514 8 -13808469.256 9  21361097.619         886.617
 -15651373.433 7 -11347134.205 7  22024921.014       -1331.935
  -1676922.451 5  -1320305.889 5  24868957.528       -3463.519
 -15100688.149 7 -11775964.793 6  22769272.950       -2157.779
 93  5 10  6 40  0.0020000  0  8 26 17 22  3 23 21  1 28             0.002692900
   -378559.697 6   -304222.728 5  24737577.751        3007.867
 -13110567.845 8 -10224289.693 7  21886726.404        1564.234
 -13896704.267 5  -1258915.812 5  25134613.738        2501.198
 -12040265.276 6  -9387624.882 5  22961675.362        3282.104
 -19999347.416 8 -13787605.545 9  21366192.723         898.228
 -15691174.458 7 -11378147.967 7  22017347.218       -1321.481
  -1780805.451 5  -1401253.579 5  24849189.736       -3462.034
 -15165209.453 7 -11826241.148 6  22756994.950       -2143.713
 93  5 10  6 40 30.0020000  0  8 26 17 22  3 23 21  1 28             0.002697780
   -288152.214 6   -233775.294 5  24754781.889        3019.245
 -13063505.307 8 -10187617.583 7  21895682.115        1573.363
 -13821575.435 5  -1200373.931 5  25148909.846        2507.219
 -11941577.510 6  -9310725.337 5  22980454.901        3296.771
 -19972227.272 8 -13766472.975 9  21371353.430         909.700
 -15730649.840 7 -11408907.989 7  22009835.339       -1310.192
  -1884643.226 5  -1482166.065 5  24829429.827       -3460.369
 -15229300.482 7 -11876182.186 6  22744798.904       -2129.114
 93  5 10  6 41  0.0020000  0  8 26 17 22  3 23 21  1 28             0.002702650
   -197402.123 6   -163060.908 5  24772050.884        3030.702
 -13016164.885 8 -10150728.973 7  21904690.728        1582.719
 -13746271.821 5  -1141695.877 5  25163240.019        2513.138
 -11842451.147 6  -9233484.047 5  22999318.206        3311.428
 -19944768.681 8 -13745076.667 9  21376578.702         920.810
 -15769780.940 7 -11439399.721 7  22002388.984       -1298.590
  -1988430.134 5  -1563038.883 5  24809680.390       -3458.631
 -15292954.281 7 -11925782.533 6  22732686.229       -2114.352
 93  5 10  6 41 30.0020000  0  8 26 17 22  3 23 21  1 28             0.002707520
   -106317.482 6    -92085.830 5  24789383.534        3041.530
 -12968542.739 8 -10113620.791 7  21913752.875        1592.169
 -13670800.115 5  -1082886.753 5  25177601.900        2518.192
 -11742886.420 6  -9155901.189 5  23018264.831        3326.047
 -19916989.012 8 -13723430.180 9  21381865.084         931.139
 -15808568.682 7 -11469623.934 7  21995007.972       -1287.222
  -2092152.831 5  -1643861.697 5  24789942.298       -3456.061
 -15356156.429 7 -11975030.962 6  22720659.085       -2098.906
 93  5 10  6 42  0.0020000  0  8 26 17 22  3 23 21  1 28             0.002712390
    -14921.139 6    -20867.893 5  24806775.879        3051.427
 -12920636.738 8 -10076291.456 7  21922868.735        1601.678
 -13595187.458 5  -1023967.797 5  25191991.135        2522.656
 -11642882.684 6  -9077976.211 5  23037294.983        3340.661
 -19888907.501 8 -13701548.485 9  21387208.881         940.855
 -15847019.760 7 -11499585.786 7  21987691.119       -1276.279
  -2195788.857 5  -1724616.965 5  24770221.314       -3452.932
 -15418887.585 7 -12023912.371 6  22708721.720       -2083.083
 93  5 10  6 42 30.0020000  0  8 26 17 22  3 23 21  1 28             0.002717250
     76768.137 6     50578.321 5  24824223.731        3061.087
 -12872440.681 8 -10038736.091 7  21932040.285        1611.307
 -13519441.724 5   -964945.211 5  25206405.506        2527.162
 -11542442.792 6  -8999711.376 5  23056408.002        3355.003
 -19860538.936 8 -13679443.106 9  21392607.135         950.304
 -15885157.484 7 -11529303.471 7  21980434.023       -1266.376
  -2299330.538 5  -1805298.755 5  24750518.114       -3450.067
 -15481142.624 7 -12072422.777 6  22696875.031       -2067.381
 93  5 10  6 43  0.0020000  0  8 26 17 22  3 23 21  1 28             0.002722100
    168750.004 6    122252.572 5  24841726.847        3071.024
 -12823952.192 8 -10000952.866 7  21941267.405        1621.052
 -13443552.369 5   -905810.717 5  25220847.028        2532.244
 -11441570.193 6  -8921109.399 5  23075603.570        3369.471
 -19831887.896 8 -13657117.625 9  21398059.201         959.589
 -15923005.664 7 -11558795.555 7  21973231.619       -1257.092
  -2402783.455 5  -1885911.391 5  24730831.522       -3447.020
 -15542926.374 7 -12120565.958 6  22685118.100       -2051.488
 93  5 10  6 43 30.0020000  0  8 26 17 22  3 23 21  1 28             0.002726960
    261034.103 6    194162.238 5  24859288.129        3081.263
 -12775172.356 8  -9962942.606 7  21950549.939        1630.772
 -13367509.906 5   -846556.855 5  25235317.643        2537.227
 -11340264.935 6  -8842170.265 5  23094881.090        3383.878
 -19802956.216 8 -13634573.469 9  21403564.780         969.142
  14826500.31417     -8617.07811  21966081.337       -1247.593
  -2506145.492 5  -1966453.153 5  24711161.879       -3443.987
 -15604229.356 7 -12168334.493 6  22673452.605       -2035.540
 93  5 10  6 44  0.0020000  0  8 26 17 22  3 23 21  1 28             0.002731830
    353631.841 6    266316.376 5  24876908.953        3091.984
 -12726104.590 8  -9924707.997 7  21959887.195        1640.307
 -13291317.264 5   -787186.009 5  25249816.555        2542.491
 -11238529.258 6  -8762895.721 5  23114240.982        3398.159
 -19773731.514 8 -13611800.980 9  21409126.110         979.125
  14789221.150 7    -37667.759 1  21958987.680       -1237.718
  -2609420.890 5  -2046927.400 5  24691509.015       -3441.206
 -15665054.663 7 -12215730.835 6  22661877.770       -2019.580
 93  5 10  6 44 30.0020000  0  8 26 17 22  3 23 21  1 28             0.002736720
    446562.694 5    338730.008 5  24894593.322        3103.596
 -12676761.136 7  -9886258.557 7  21969276.895        1649.215
 -13214958.862 5   -727685.991 5  25264347.226        2548.235
 -11136366.720 6  -8683288.588 5  23133681.731        3412.469
 -19744207.591 8 -13588795.329 9  21414744.421         989.458
  14752244.622 7    -66492.951 1  21951951.320       -1227.173
  -2712615.914 5  -2127339.029 5  24671871.543       -3438.376
 -15725404.455 7 -12262756.635 6  22650393.537       -2003.583
 93  5 10  6 45  0.0020000  0  8 26 17 22  3 23 21  1 28             0.002741640
    539849.956 6    411421.407 5  24912345.511        3115.582
 -12627159.036 7  -9847607.578 7  21978716.032        1657.579
 -13138427.845 5   -668051.462 5  25278910.506        2553.812
 -11033774.520 6  -8603346.651 5  23153204.676        3426.748
 -19714367.719 8 -13565543.495 9  21420422.860         999.953
  14715592.118 7    -95056.018 1  21944976.490       -1216.340
  -2815721.795 6  -2207681.261 5  24652251.060       -3435.210
 -15785267.838 7 -12309403.423 6  22639001.745       -1987.335
 93  5 10  6 45 30.0020000  0  8 26 17 22  3 23 21  1 28             0.002746590
    633499.088 5    484394.765 5  24930166.469        3127.315
 -12577298.587 7  -9808755.275 7  21988204.124        1666.290
 -13061735.875 5   -608291.537 5  25293504.640        2558.975
 -10930752.192 6  -8523069.547 5  23172809.161        3441.047
 -19684203.382 8 -13542038.810 9  21426162.955        1010.791
  14679282.657 7   -123346.626 4  21938067.003       -1204.382
  -2918713.370 5  -2287934.362 5  24632652.631       -3431.164
 -15844640.577 7 -12355667.883 6  22627703.636       -1971.075
 93  5 10  6 46  0.0020000  0  7 26 17 22  3 23  1 28                0.002751530
    727490.344 6    557634.716 5  24948052.142        3138.700
 -12527178.361 7  -9769700.566 7  21997741.741        1675.167
 -12984891.505 5   -548412.892 5  25308127.237        2564.302
 -10827300.954 6  -8442458.211 5  23192495.371        3455.567
 -19653719.648 8 -13518285.252 9  21431963.640        1021.399
  -3021578.895 5  -2368089.216 5  24613078.155       -3426.479
 -15903524.585 7 -12401551.534 6  22616498.512       -1954.433
 93  5 10  6 46 30.0020000  0  8 26 17 22  3 23 21  1 28             0.002756540
    821801.637 5    631124.061 5  24965998.681        3148.681
 -12476803.533 7  -9730447.452 7  22007327.784        1683.323
 -12907891.350 5   -488412.738 5  25322780.200        2568.966
 -10723419.463 6  -8361511.621 5  23212263.214        3469.688
 -19622929.819 8 -13494293.192 9  21437822.705        1031.321
    168686.36417    -19361.96211  21924449.789       -1181.166
  -3124311.364 5  -2448140.512 5  24593528.621       -3422.401
 -15961914.193 7 -12447049.916 6  22605387.367       -1938.153
 93  5 10  6 47  0.0020000  0  8 26 17 22  3 23 21  1 28             0.002761520
    916405.252 5    704841.150 5  24984000.779        3158.024
 -12426170.499 7  -9690993.158 7  22016962.833        1692.344
 -12830765.350 5   -428314.603 5  25337456.782        2572.820
 -10619112.708 6  -8280233.671 5  23232111.975        3483.828
 -19591845.951 8 -13470072.003 9  21443737.859        1040.855
     20765.93117    -13539.53511  21917738.475       -1170.046
  -3226921.333 5  -2528096.254 5  24574002.632       -3418.311
 -16019815.077 7 -12492167.494 6  22594369.133       -1922.006
 93  5 10  6 47 30.0020000  0  8 26 17 22  3 23 21  1 28             0.002766490
   1011273.093 5    778764.190 5  25002053.289        3166.338
 -12375262.889 7  -9651324.889 7  22026650.247        1701.356
 -12753523.628 5   -368126.342 5  25352155.392        2576.479
 -10514382.327 6  -8198625.594 5  23252041.555        3497.817
 -19560479.610 8 -13445630.705 9  21449706.677        1050.104
    -14165.084 7    -40762.476 1  21911091.438       -1158.857
  -3329413.549 6  -2607960.282 5  24554498.815       -3414.921
 -16077235.910 7 -12536910.995 6  22583442.298       -1905.993
 93  5 10  6 48  0.0020000  0  8 26 17 22  3 23 21  1 28             0.002771430
   1106392.625 5    852883.260 5  25020153.867        3174.950
 -12324084.477 7  -9611445.605 7  22036388.995        1710.475
 -12676171.626 5   -307852.046 5  25366874.783        2580.117
 -10409231.400 6  -8116689.824 5  23272051.016        3511.902
 -19528831.378 8 -13420969.751 9  21455729.106        1059.782
    -48773.460 7    -67723.201 1  21904505.915       -1148.572
  -3431811.473 6  -2687750.835 5  24535013.380       -3411.724
 -16134167.168 7 -12581273.006 6  22572608.528       -1889.592
 93  5 10  6 48 30.0020000  0  8 26 17 22  3 23 21  1 28             0.002776360
   1201771.369 5    927204.413 5  25038304.166        3183.747
 -12272637.404 7  -9571356.996 7  22046178.778        1719.367
 -12598718.009 5   -247498.597 5  25381613.876        2583.348
 -10303664.798 6  -8034430.171 5  23292139.918        3525.634
 -19496890.400 8 -13396080.688 9  21461807.211        1069.600
    -83088.717 7    -94457.481 3  21897975.736       -1139.150
  -3534124.220 6  -2767475.025 5  24515543.532       -3409.079
 -16190611.826 7 -12625255.841 6  22561867.416       -1873.333
 93  5 10  6 49  0.0020000  0  8 26 17 22  3 23 21  1 28             0.002781280
   1297426.063 5   1001740.513 5  25056506.660        3193.272
 -12220912.094 7  -9531051.557 7  22056021.774        1729.076
 -12521160.435 5   -187064.277 5  25396372.370        2587.337
 -10197684.858 6  -7951848.439 5  23312307.355        3539.475
 -19464647.839 8 -13370956.610 9  21467942.733        1080.015
   -117112.205 7   -120969.326 5  21891501.249       -1129.122
  -3636349.354 6  -2847130.888 5  24496090.430       -3405.724
 -16246563.341 7 -12668854.416 6  22551220.094       -1856.691
 93  5 10  6 49 30.0020000  0  8 26 17 22  3 23 21  1 28             0.002786200
   1393370.519 6   1076502.449 5  25074764.462        3203.278
 -12168898.052 7  -9490521.153 7  22065919.860        1738.614
 -12443471.033 5   -126527.057 5  25411155.958        2591.856
 -10091289.645 6  -7868943.104 5  23332553.668        3553.376
 -19432085.034 8 -13345583.007 9  21474139.274        1090.898
   -150841.938 7   -147252.241 6  21885082.901       -1119.449
  -3738462.322 6  -2926699.363 5  24476658.841       -3401.717
 -16302002.791 7 -12712053.977 6  22540670.218       -1839.135
 93  5 10  6 50  0.0020000  0  8 26 17 22  3 23 21  1 28             0.002791140
   1489624.592 5   1151505.603 5  25093081.325        3213.612
 -12116599.216 7  -9449768.804 7  22075872.272        1747.901
 -12365649.648 5    -65887.025 5  25425965.226        2596.157
  -9984482.966 6  -7785717.114 5  23352878.388        3566.775
 -19399202.665 8 -13319960.382 9  21480396.741        1101.032
   -184285.533 7   -173312.196 6  21878718.797       -1110.056
  -3840449.320 6  -3006169.738 5  24457251.203       -3397.457
 -16356919.190 7 -12754845.973 6  22530220.023       -1822.193
 93  5 10  6 50 30.0020000  0  8 26 17 22  3 23 21  1 28             0.002796100
   1586185.292 6   1226747.755 5  25111455.801        3223.686
 -12064027.351 7  -9408803.719 7  22085876.316        1756.896
 -12287698.444 5     -5145.968 5  25440799.042        2600.661
  -9877275.292 6  -7702178.703 5  23373279.484        3580.116
 -19366022.764 8 -13294105.921 9  21486710.859        1110.826
   -217428.108 7   -199137.543 6  21872411.896       -1099.324
  -3942302.908 6  -3085536.120 5  24437869.278       -3392.885
 -16411332.560 7 -12797245.988 6  22519865.611       -1805.292
 93  5 10  6 51  0.0020000  0  8 26 17 22  3 23 21  1 28             0.002801070
   1683026.663 6   1302208.556 5  25129884.353        3232.652
 -12011205.296 7  -9367643.667 7  22095928.067        1765.009
 -12209639.580 5     55679.082 5  25455653.174        2603.668
  -9769691.211 6  -7618346.994 5  23393751.914        3592.277
 -19332577.631 8 -13268044.787 9  21493075.384        1119.305
   -250254.762 7   -224716.742 6  21866165.048       -1088.813
  -4044031.954 6  -3164805.430 5  24418511.208       -3388.798
 -16465258.615 7 -12839266.285 6  22509604.016       -1789.472
 93  5 10  6 51 30.0020000  0  8 26 17 22  3 23 21  1 28             0.002806040
   1780146.738 6   1377886.595 5  25148365.498        3242.055
 -11958128.017 7  -9326284.773 7  22106028.515        1773.436
 -12131482.693 5    116580.541 5  25470525.476        2606.663
  -9661728.887 6  -7534220.555 5  23414296.510        3604.995
 -19298862.935 8 -13241773.592 9  21499491.193        1128.323
   -282757.332 7   -250043.408 7  21859980.040       -1077.891
  -4145624.257 6  -3243968.205 5  24399178.630       -3384.234
 -16518698.586 7 -12880907.816 6  22499434.873       -1773.295
 93  5 10  6 52  0.0020000  0  8 26 17 22  3 23 21  1 28             0.002811010
   1877548.546 5   1453784.117 5  25166900.307        3251.404
 -11904793.942 7  -9284725.753 7  22116177.688        1782.271
 -12053237.889 5    177550.442 4  25485415.576        2609.827
  -9553383.142 6  -7449795.284 5  23434913.872        3617.860
 -19264879.192 8 -13215292.778 9  21505957.877        1137.367
   -314921.493 7   -275106.378 7  21853859.276       -1066.352
  -4247082.810 6  -3323026.800 5  24379871.624       -3379.669
 -16571661.792 7 -12922177.844 6  22489356.232       -1757.538
 93  5 10  6 52 30.0020000  0  8 26 17 22  3 23 21  1 28             0.002815980
   1975222.364 5   1529893.613 5  25185486.547        3260.001
 -11851196.701 7  -9242961.684 7  22126376.620        1790.884
 -11974904.984 5    238588.979 4  25500321.890        2612.355
  -9444653.535 6  -7365070.958 5  23455604.534        3630.413
 -19230620.531 8 -13188597.716 9  21512476.991        1146.458
   -346751.538 7   -299909.003 7  21847802.301       -1055.901
  -4348413.617 6  -3401985.757 5  24360588.935       -3375.838
 -16624150.191 7 -12963077.888 6  22479367.658       -1741.560
 93  5 10  6 53  0.0020000  0  8 26 17 22  3 23 21  1 28             0.002820930
   2073150.123 6   1606200.957 5  25204121.890        3268.435
 -11797331.284 7  -9200988.620 7  22136626.780        1800.087
 -11896502.235 5    299682.045 5  25515241.081        2614.584
  -9335549.607 6  -7280054.941 5  23476366.190        3642.921
 -19196095.435 8 -13161695.061 9  21519047.094        1155.253
   -378287.744 7   -324482.655 7  21841801.206       -1046.662
  -4449626.017 6  -3480852.499 5  24341328.620       -3371.823
 -16676157.408 7 -13003602.990 6  22469470.749       -1725.649
 93  5 10  6 53 30.0020000  0  8 26 17 22  3 23 21  1 28             0.002825870
   2171325.349 5   1682701.121 5  25222804.105        3276.405
 -11743192.343 7  -9158802.446 7  22146929.000        1808.891
 -11818023.278 5    360834.442 4  25530175.412        2617.291
  -9226069.711 6  -7194745.963 5  23497199.628        3655.395
 -19161311.933 8 -13134591.028 9  21525666.082        1163.407
   -409558.828 7   -348849.717 7  21835850.094       -1038.025
  -4550726.940 6  -3559632.393 5  24322089.640       -3368.491
 -16727690.315 7 -13043758.480 6  22459664.509       -1709.888
 93  5 10  6 54  0.0020000  0  8 26 17 22  3 23 21  1 28             0.002830810
   2269734.391 5   1759383.501 5  25241531.093        3283.920
 -11688793.056 7  -9116413.392 7  22157280.945        1817.576
 -11739467.133 5    422046.929 4  25545123.878        2619.674
  -9116220.201 6  -7109148.935 5  23518103.497        3667.569
 -19126292.228 8 -13107302.965 9  21532329.928        1171.077
   -440564.754 7   -373010.167 7  21829949.740       -1029.282
  -4651723.146 6  -3638330.681 5  24302870.815       -3364.777
 -16778746.261 7 -13083542.331 6  22449949.003       -1693.764
 93  5 10  6 54 30.0020000  0  9 26 17 31 22  3 23 21  1 28          0.002835740
   2368359.380 5   1836234.156 5  25260298.618        3290.941
 -11634140.489 7  -9073826.988 7  22167680.891        1825.848
  -3005443.06015  -2351597.70015  25467533.734       -3010.627
 -11660843.577 5    483312.034 4  25560085.362        2621.831
  -9006006.096 6  -7023267.868 5  23539076.572        3679.705
 -19091047.924 8 -13079839.877 9  21539036.726        1178.321
   -471309.682 7   -396967.244 7  21824099.250       -1020.425
  -4752610.031 6  -3716943.802 5  24283672.804       -3361.008
 -16829307.354 7 -13122940.598 6  22440327.574       -1676.978
 93  5 10  6 55  0.0020000  0  9 26 17 31 22  3 23 21  1 28          0.002840660
   2467200.536 5   1913253.166 5  25279107.558        3298.534
 -11579239.611 7  -9031047.084 7  22178128.283        1834.111
  -3095662.720 5  -2421898.794 5  25450365.464       -3003.913
 -11582157.348 5    544625.910 4  25575059.761        2624.052
  -8895429.764 6  -6937104.531 5  23560118.358        3691.824
 -19055593.264 8 -13052212.874 9  21545783.595        1185.576
   -501779.312 7   -420709.793 7  21818301.185       -1010.809
  -4853375.330 6  -3795462.120 5  24264497.644       -3356.581
 -16879363.551 7 -13161945.424 6  22430802.249       -1660.072
 93  5 10  6 55 30.0020000  0  9 26 17 31 22  3 23 21  1 28          0.002845570
   2566267.743 5   1990448.421 5  25297959.307        3305.993
 -11524097.576 7  -8988079.270 7  22188621.805        1841.989
  -3185679.270 5  -2492041.530 5  25433236.145       -2997.095
 -11503401.054 5    605994.384 4  25590046.266        2626.377
  -8784491.845 6  -6850659.420 5  23581229.226        3703.802
 -19019910.332 8 -13024407.990 9  21552573.824        1193.311
   -531953.665 7   -444222.274 7  21812559.378       -1000.730
  -4954006.599 6  -3873876.062 5  24245348.148       -3352.155
 -16928910.021 7 -13200553.050 6  22421374.036       -1642.857
 93  5 10  6 56  0.0020000  0  9 26 17 31 22  3 23 21  1 28          0.002850460
   2665558.771 5   2067818.071 5  25316853.685        3313.496
 -11468725.280 7  -8944932.039 7  22199158.802        1849.573
  -3275495.743 5  -2562028.372 5  25416144.061       -2990.649
 -11424589.380 5    667406.034 4  25605043.542        2627.878
  -8673200.172 6  -6763938.626 5  23602407.179        3715.355
 -18983990.021 8 -12996418.141 9  21559409.172        1201.372
   -561828.105 7   -467501.030 7  21806874.525        -991.128
  -5054497.264 6  -3952180.439 5  24226225.203       -3347.329
 -16977936.212 7 -13238755.282 6  22412044.665       -1625.508
 93  5 10  6 56 30.0020000  0  9 26 17 31 22  3 23 21  1 28          0.002855340
   2765079.890 5   2145366.953 5  25335792.008        3321.354
 -11413120.705 7  -8901603.800 7  22209739.908        1857.420
  -3365113.986 5  -2631860.796 5  25399090.529       -2983.908
 -11345721.869 5    728861.186 4  25620051.226        2629.947
  -8561561.619 6  -6676947.565 5  23623651.540        3726.968
 -18947828.238 8 -12968240.143 9  21566290.457        1209.439
   -591420.845 7   -490560.292 7  21801243.133        -981.783
  -5154851.124 6  -4030378.199 5  24207128.711       -3342.827
 -17026441.714 7 -13276551.768 6  22402814.424       -1608.382
 93  5 10  6 57  0.0020000  0  9 26 17 31 22  3 23 21  1 28          0.002860210
   2864835.808 5   2223098.779 5  25354774.743        3329.023
 -11357275.268 7  -8858087.886 7  22220366.761        1865.668
  -3454531.029 5  -2701536.395 5  25382075.505       -2977.083
 -11266791.455 5    790365.314 4  25635071.877        2632.069
  -8449577.745 6  -6589687.448 5  23644961.134        3738.522
 -18911413.264 8 -12939864.840 9  21573220.012        1218.489
   -620740.525 7   -513406.785 7  21795663.826        -972.874
  -5255073.044 6  -4108473.136 5  24188056.669       -3338.489
 -17074441.359 7 -13313954.077 6  22393680.347       -1591.500
 93  5 10  6 57 30.0020000  0  9 26 17 31 22  3 23 21  1 28          0.002865070
   2964811.730 5   2301002.123 5  25373799.301        3335.984
 -11301180.441 7  -8814377.643 7  22231041.200        1874.029
  -3543740.880 5  -2771050.652 5  25365099.375       -2970.205
 -11187803.461 5    851914.419 4  25650103.001        2633.845
  -8337246.957 6  -6502156.986 5  23666336.937        3749.993
 -18874722.749 8 -12911274.849 9  21580201.867        1227.384
   -649794.179 7   -536045.983 7  21790135.032        -963.965
  -5355173.962 6  -4186473.833 5  24169008.143       -3334.849
 -17121936.922 7 -13350963.606 6  22384642.465       -1574.732
 93  5 10  6 58  0.0020000  0  9 26 17 31 22  3 23 21  1 28          0.002869910
   3065002.697 5   2379073.027 5  25392865.155        3343.331
 -11244823.692 7  -8770463.309 7  22241765.487        1883.187
  -3632733.226 5  -2840395.332 5  25348165.185       -2962.736
 -11108759.269 5    913507.113 4  25665144.094        2635.717
  -8224565.116 6  -6414352.971 5  23687779.734        3761.862
 -18837762.341 8 -12882474.535 9  21587235.187        1236.553
   -678572.948 7   -558470.995 7  21784658.564        -954.602
  -5455160.776 6  -4264385.575 5  24149981.354       -3330.835
 -17168919.307 7 -13387573.257 6  22375702.024       -1557.338
 93  5 10  6 58 30.0020000  0  9 26 17 31 22  3 23 21  1 28          0.002874740
   3165412.336 5   2457314.300 5  25411972.477        3350.490
 -11188188.772 7  -8726332.215 7  22252542.805        1892.488
  -3721503.112 5  -2909566.646 5  25331272.561       -2955.167
 -11029663.430 5    975140.246 4  25680195.412        2637.253
  -8111531.266 6  -6326274.673 5  23709289.823        3773.522
 -18800534.569 8 -12853465.896 9  21594319.465        1245.367
   -707068.110 7   -580675.005 7  21779236.089        -944.969
  -5555031.329 6  -4342206.750 5  24130976.653       -3327.003
 -17215383.459 7 -13423779.085 6  22366859.934       -1540.195
 93  5 10  6 59  0.0020000  0  9 26 17 31 22  3 23 21  1 28          0.002879550
   3266032.783 5   2535719.818 5  25431119.930        3357.523
 -11131274.444 7  -8681983.406 7  22263373.147        1901.849
  -3810050.629 5  -2978564.756 5  25314422.680       -2947.876
 -10950532.794 5   1036800.476 5  25695253.427        2638.070
  -7998150.933 6  -6237926.408 5  23730865.188        3784.975
 -18763038.181 8 -12824247.929 9  21601455.033        1254.322
   -735266.803 8   -602647.994 7  21773870.382        -934.871
  -5654781.805 6  -4419934.374 5  24111994.913       -3322.928
 -17261324.900 7 -13459577.611 6  22358117.269       -1522.449
 93  5 10  6 59 30.0020000  0  8 26 17 31  3 23 21  1 28             0.002884360
   3366872.921 5   2614296.525 5  25450309.565        3365.248
 -11074084.339 7  -8637419.692 7  22274256.403        1910.900
  -3898377.871 5  -3047391.146 5  25297613.923       -2940.456
  -7884430.928 6  -6149313.462 5  23752505.233        3796.267
 -18725294.122 8 -12794836.980 9  21608637.701        1261.902
   -763160.640 7   -624383.447 7  21768562.350        -924.596
  -5754403.673 6  -4497561.770 5  24093037.320       -3318.360
 -17306734.329 7 -13494961.585 6  22349475.990       -1504.699
 93  5 10  7  0  0.0020000  0  8 26 17 31  3 23 21  1 28             0.002889130
   3467951.953 5   2693059.363 5  25469544.419        3373.281
 -11016620.973 7  -8592643.061 7  22285191.483        1920.006
  -3986482.138 5  -3116043.809 5  25280848.615       -2933.071
  -7770373.389 6  -6060437.465 5  23774209.290        3807.365
 -18687324.094 8 -12765249.954 9  21615863.120        1269.520
   -790744.664 8   -645877.490 7  21763313.262        -914.439
  -5853871.660 6  -4575069.276 5  24074109.233       -3312.815
 -17351604.729 7 -13529925.529 6  22340937.451       -1486.749
 93  5 10  7  0 30.0020000  0  8 26 17 31  3 23 21  1 28             0.002893900
   3569261.924 5   2772002.189 5  25488822.675        3380.403
 -10958889.535 7  -8547657.543 7  22296177.508        1928.537
  -4074364.168 6  -3184523.421 5  25264125.374       -2925.712
  -7655984.326 6  -5971303.157 5  23795976.927        3818.251
 -18649126.532 8 -12735485.636 9  21623131.806        1276.958
   -818026.712 8   -667136.208 7  21758121.396        -904.406
  -5953173.526 6  -4652447.320 5  24055212.655       -3307.337
 -17395945.915 7 -13564477.103 6  22332499.831       -1469.441
 93  5 10  7  1  0.0020000  0  8 26 17 31  3 23 21  1 28             0.002898650
   3670770.672 5   2851099.834 5  25508139.189        3386.791
 -10900913.474 7  -8502481.399 6  22307210.099        1936.636
  -4162031.159 5  -3252835.288 5  25247443.001       -2918.492
  -7541275.272 6  -5881919.544 5  23817805.044        3828.892
 -18610707.881 8 -12705549.036 9  21630442.388        1284.375
   -845014.407 7   -688165.598 7  21752985.741        -894.782
  -6052309.590 6  -4729696.144 5  24036347.802       -3301.509
 -17439780.924 7 -13598634.251 7  22324158.535       -1452.888
 93  5 10  7  1 30.0020000  0  8 26 17 31  3 23 21  1 28             0.002903390
   3772459.347 6   2930337.727 5  25527490.179        3392.387
 -10842701.671 7  -8457121.571 6  22318287.242        1944.262
  -4249478.333 6  -3320975.950 5  25230802.564       -2911.256
  -7426247.323 6  -5792287.393 5  23839694.399        3839.505
 -18572069.725 8 -12675441.388 9  21637794.997        1291.668
   -871725.328 7   -708979.278 7  21747903.001        -885.855
  -6151259.074 6  -4806799.602 5  24017518.519       -3294.980
 -17483124.865 7 -13632408.749 7  22315910.406       -1436.540
 93  5 10  7  2  0.0020000  0  8 26 17 31  3 23 21  1 28             0.002908110
   3874307.547 5   3009699.946 5  25546871.180        3397.536
 -10784258.376 7  -8411581.359 6  22329408.621        1952.031
  -4336697.984 6  -3388939.351 5  25214205.317       -2903.388
  -7310897.226 6  -5702404.237 5  23861645.094        3850.311
 -18533197.644 8 -12645151.481 9  21645191.935        1299.924
   -898163.969 8   -729580.809 7  21742871.861        -876.745
  -6250014.771 6  -4883752.082 5  23998725.778       -3288.690
 -17525972.590 7 -13665796.587 7  22307756.932       -1419.981
 93  5 10  7  2 30.0020000  0  8 26 17 31  3 23 21  1 28             0.002912820
   3976311.370 5   3089183.390 5  25566282.099        3403.032
 -10725586.554 7  -8365863.078 6  22340573.214        1959.563
  -4423681.228 6  -3456718.458 5  25197652.897       -2895.271
  -7195221.280 6  -5612267.136 5  23883657.670        3861.285
 -18494080.797 8 -12614670.830 9  21652635.742        1307.870
   -924329.155 8   -749969.270 7  21737892.901        -867.461
  -6348585.149 6  -4960560.142 5  23979968.384       -3282.596
 -17568321.422 7 -13698795.683 7  22299698.171       -1403.079
 93  5 10  7  3  0.0020000  0  8 26 17 31  3 23 21  1 28             0.002917530
   4078496.050 5   3168807.816 5  25585727.443        3409.549
 -10666684.174 7  -8319965.133 6  22351781.792        1967.423
  -4510415.671 5  -3524303.794 5  25181147.686       -2886.869
  -7079212.287 6  -5521870.630 5  23905733.437        3872.500
 -18454731.115 8 -12584008.755 9  21660123.968        1315.480
   -950214.961 8   -770140.012 7  21732966.809        -858.250
  -6446973.484 6  -5037226.345 5  23961245.784       -3276.632
 -17610150.576 7 -13731389.811 7  22291738.271       -1385.276
 93  5 10  7  3 30.0020000  0  8 26 17 31  3 23 21  1 28             0.002922230
   4180891.249 5   3248596.260 5  25605212.510        3416.765
 -10607540.251 7  -8273878.976 6  22363036.504        1975.517
  -4596894.819 6  -3591690.097 5  25164691.225       -2878.280
  -6962868.308 6  -5431212.992 5  23927873.349        3883.529
 -18415158.924 8 -12553173.309 9  21667654.125        1322.649
   -975823.091 8   -790094.393 7  21728093.663        -848.805
  -6545190.767 6  -5113759.270 5  23942555.593       -3271.405
 -17651431.982 7 -13763557.158 7  22283882.420       -1366.794
 93  5 10  7  4  0.0020000  0  8 26 17 31  3 23 21  1 28             0.002926930
   4283520.361 5   3328567.037 5  25624741.840        3425.285
 -10548147.398 7  -8227598.840 6  22374338.778        1984.016
  -4683116.829 5  -3658876.098 5  25148283.531       -2869.619
  -6846192.845 6  -5340297.021 5  23950076.098        3894.674
 -18375361.304 8 -12522162.181 9  21675227.402        1330.520
  -1001132.136 8   -809815.734 7  21723277.597        -838.358
  -6643266.373 6  -5190181.777 5  23923892.387       -3266.928
 -17692151.819 7 -13795286.904 7  22276133.784       -1347.755
 93  5 10  7  4 30.0020000  0  8 26 17 31  3 23 21  1 28             0.002931640
   4386408.196 5   3408739.340 5  25644321.077        3433.947
 -10488496.290 7  -8181117.485 6  22385690.090        1992.949
  -4769074.113 5  -3725855.805 5  25131926.097       -2860.791
  -6729183.781 6  -5249121.223 5  23972342.019        3905.793
 -18335329.323 8 -12490968.441 9  21682845.329        1338.387
  -1026127.612 8   -829292.729 7  21718521.076        -827.823
  -6741198.923 6  -5266492.843 5  23905256.554       -3261.793
 -17732293.632 7 -13826566.231 7  22268495.046       -1328.166
 93  5 10  7  5  0.0020000  0  8 26 17 31  3 23 21  1 28             0.002936350
   4489548.748 5   3489108.595 5  25663947.715        3442.058
 -10428565.130 7  -8134417.893 6  22397094.764        2002.554
  -4854763.803 6  -3792626.957 5  25115620.254       -2851.889
  -6611842.417 6  -5157686.443 5  23994671.491        3916.765
 -18295057.038 8 -12459587.453 9  21690508.783        1346.680
  -1050805.292 8   -848522.080 7  21713825.062        -817.438
  -6838972.745 6  -5342680.200 5  23886650.674       -3256.252
 -17771847.321 7 -13857387.300 7  22260968.041       -1308.686
 93  5 10  7  5 30.0020000  0  8 26 17 31  3 23 21  1 28             0.002941060
   4592927.713 5   3569663.611 5  25683620.301        3449.763
 -10368338.864 7  -8087488.354 6  22408555.539        2012.549
  -4940183.265 5  -3859187.648 5  25099365.447       -2842.650
  -6494171.379 6  -5065994.721 5  24017063.643        3927.838
 -18254526.274 8 -12428005.064 9  21698221.554        1355.478
  -1075170.975 8   -867508.329 7  21709188.600        -806.921
  -6936564.732 6  -5418725.874 5  23868079.624       -3249.876
 -17810814.927 7 -13887751.666 7  22253552.786       -1289.109
 93  5 10  7  6  0.0020000  0  8 26 17 31  3 23 21  1 28             0.002945770
   4696529.340 5   3650392.163 5  25703334.902        3456.747
 -10307818.832 7  -8040329.912 6  22420072.246        2022.122
  -5025328.546 5  -3925534.607 5  25083162.677       -2833.623
  -6376172.085 6  -4974047.281 5  24039518.058        3938.579
 -18213727.840 8 -12396214.099 9  21705985.378        1364.248
  -1099228.526 8   -886254.461 7  21704610.651        -796.996
  -7033953.190 6  -5494612.962 5  23849547.153       -3242.676
 -17849195.790 7 -13917658.831 7  22246249.292       -1269.628
 93  5 10  7  6 30.0020000  0  8 26 17 31  3 23 21  1 28             0.002950480
   4800326.796 5   3731273.229 5  25723086.591        3462.704
 -10247004.681 7  -7992942.269 6  22431644.565        2032.119
  -5110198.362 5  -3991666.900 5  25067012.841       -2824.468
  -6257848.571 6  -4881847.201 5  24062034.126        3949.325
 -18172676.331 8 -12364225.909 9  21713797.221        1372.449
  -1123000.768 8   -904778.280 7  21700086.674        -787.875
  -7131115.842 6  -5570324.119 5  23831057.652       -3235.002
 -17886995.574 7 -13947113.209 7  22239056.281       -1250.549
 93  5 10  7  7  0.0020000  0  8 26 17 31  3 23 21  1 28             0.002955200
   4904296.434 5   3812288.389 5  25742871.961        3468.637
 -10185891.349 7  -7945321.523 6  22443274.074        2041.997
  -5194792.843 5  -4057584.761 5  25050915.108       -2815.064
  -6139205.495 6  -4789398.079 5  24084610.809        3959.946
 -18131382.597 8 -12332048.995 9  21721655.292        1380.547
  -1146496.754 8   -923086.843 7  21695615.658        -778.511
  -7228054.614 6  -5645860.779 5  23812610.875       -3227.564
 -17924234.968 7 -13976130.928 7  22231969.707       -1232.066
 93  5 10  7  7 30.0020000  0  8 26 17 31  3 23 21  1 28             0.002959910
   5008438.505 5   3893437.973 5  25762689.571        3474.138
 -10124490.662 7  -7897476.840 6  22454958.155        2051.330
  -5279111.209 5  -4123287.321 5  25034869.922       -2806.126
  -6020247.559 6  -4696703.627 5  24107248.001        3970.356
 -18089853.758 8 -12299688.866 9  21729557.931        1387.984
  -1169716.734 8   -941180.339 7  21691197.408        -769.305
  -7324770.741 6  -5721223.969 5  23794206.095       -3220.201
 -17960922.614 7 -14004718.704 7  22224988.410       -1213.738
 93  5 10  7  8  0.0020000  0  8 26 17 31  3 23 21  1 28             0.002964610
   5112742.499 5   3974713.760 5  25782538.131        3479.530
 -10062815.141 7  -7849418.021 6  22466694.670        2060.368
  -5363154.811 5  -4188775.888 5  25018876.915       -2796.818
  -5900981.125 6  -4603768.785 5  24129943.783        3980.493
 -18048097.597 8 -12267151.606 9  21737503.780        1395.684
  -1192653.488 8   -959053.135 7  21686832.757        -759.684
  -7421269.848 6  -5796418.067 5  23775843.196       -3213.070
 -17997061.643 7 -14032879.004 7  22218111.622       -1195.592
 93  5 10  7  8 30.0020000  0  8 26 17 31  3 23 21  1 28             0.002969300
   5217209.391 5   4056116.424 5  25802418.464        3484.947
 -10000864.407 7  -7801144.731 6  22478483.588        2069.560
  -5446920.016 5  -4254047.491 5  25002936.932       -2787.456
  -5781407.716 6  -4510594.779 5  24152697.733        3990.808
 -18006113.572 8 -12234436.801 9  21745493.059        1403.267
  -1215296.957 8   -976697.384 8  21682524.060        -749.885
  -7517559.474 6  -5871448.925 5  23757519.632       -3206.181
 -18032659.786 7 -14060617.823 7  22211337.602       -1177.569
 93  5 10  7  9  0.0020000  0  7 17 31  3 23 21  1 28                0.002973970
  -9938651.795 7  -7752667.399 6  22490322.503        2077.925
  -5530409.003 5  -4319103.798 5  24987049.304       -2778.265
  -5661534.764 6  -4417187.282 5  24175508.662        4000.657
 -17963907.372 8 -12201548.865 9  21753524.639        1410.501
  -1237644.015 8   -994110.689 8  21678271.435        -740.022
  -7613644.901 6  -5946320.605 5  23739235.214       -3199.361
 -18067715.045 7 -14087933.600 7  22204666.838       -1159.209
 93  5 10  7  9 30.0020000  0  7 17 31  3 23 21  1 28                0.002978660
  -9876190.018 7  -7703995.905 6  22502208.714        2086.181
  -5613615.248 5  -4383939.850 5  24971215.830       -2768.800
  -5541360.530 6  -4323545.073 5  24198377.145        4010.670
 -17921478.960 8 -12168487.777 9  21761598.361        1417.974
  -1259697.457 8  -1011295.180 8  21674074.651        -730.178
  -7709512.607 6  -6021022.728 5  23720992.051       -3191.952
 -18102202.883 7 -14114807.250 7  22198103.942       -1139.967
 93  5 10  7 10  0.0020000  0  7 17 31  3 23 21  1 28                0.002983330
  -9813489.183 7  -7655138.130 6  22514140.054        2093.957
  -5696535.909 5  -4448553.343 5  24955437.077       -2759.296
  -5420887.768 6  -4229670.282 5  24221302.244        4020.560
 -17878828.221 8 -12135253.452 9  21769714.480        1425.283
  -1281452.745 8  -1028247.355 8  21669934.757        -720.155
  -7805171.422 6  -6095562.027 5  23702788.731       -3185.356
 -18136117.935 7 -14141234.571 7  22191650.031       -1121.061
 93  5 10  7 10 30.0020000  0  7 17 31  3 23 21  1 28                0.002988000
  -9750544.065 7  -7606090.024 6  22526117.792        2102.370
  -5779164.030 5  -4512938.823 5  24939713.654       -2749.401
  -5300114.356 6  -4135561.129 5  24244284.804        4030.636
 -17835970.033 8 -12101857.477 9  21777870.333        1431.835
  -1302907.137 8  -1044965.083 8  21665851.984        -710.133
  -7900622.446 6  -6169939.418 5  23684625.056       -3178.185
 -18169460.023 7 -14167215.415 7  22185305.334       -1101.689
 93  5 10  7 11  0.0020000  0  7 17 31  3 23 21  1 28                0.002992670
  -9687350.954 7  -7556848.658 6  22538143.048        2110.509
  -5861497.587 6  -4577094.873 5  24924045.900       -2739.639
  -5179043.740 6  -4041220.422 5  24267324.074        4040.397
 -17792922.780 8 -12068314.159 9  21786062.103        1437.992
  -1324059.228 8  -1061447.205 8  21661826.641        -700.215
  -7995858.509 6  -6244149.340 5  23666502.062       -3171.110
 -18202218.056 7 -14192741.167 7  22179071.509       -1082.266
 93  5 10  7 11 30.0020000  0  7 17 31  3 23 21  1 28                0.002997320
  -9623907.355 7  -7507412.112 6  22550216.000        2119.032
  -5943536.372 6  -4641021.218 5  24908434.429       -2729.761
  -5057680.851 6  -3946652.001 5  24290418.601        4050.165
 -17749682.968 8 -12034620.807 9  21794290.515        1444.567
  -1344913.900 8  -1077697.604 8  21657857.975        -690.059
  -8090886.141 6  -6318196.810 5  23648419.159       -3164.091
 -18234397.416 7 -14217815.995 7  22172947.769       -1063.194
 93  5 10  7 12  0.0030000  0  7 17 31  3 23 21  1 28                0.003001970
  -9560199.520 7  -7457769.670 6  22562339.209        2128.022
  -6025280.228 6  -4704717.721 5  24892878.990       -2719.704
  -4936023.728 6  -3851854.353 5  24313569.335        4059.714
 -17706248.964 8 -12000776.140 9  21802555.874        1450.882
  -1365463.566 8  -1093710.322 8  21653947.554        -680.107
  -8185709.527 6  -6392085.135 5  23630374.901       -3157.313
 -18266010.827 7 -14242449.832 7  22166932.083       -1044.290
 93  5 10  7 12 30.0030000  0  7 17 31  3 23 21  1 28                0.003006620
  -9496225.262 7  -7407919.639 6  22574513.321        2136.906
  -6106722.978 6  -4768179.607 5  24877381.039       -2709.789
  -4814084.576 6  -3756836.865 5  24336773.440        4069.218
 -17662620.945 8 -11966780.287 9  21810857.827        1457.859
  -1385729.033 8  -1109501.609 8  21650091.323        -671.009
  -8280313.155 6  -6465802.231 5  23612372.444       -3149.647
 -18297050.663 7 -14266636.721 7  22161025.292       -1024.963
 93  5 10  7 13  0.0030000  0  7 17 31  3 23 21  1 28                0.003011270
  -9431984.508 7  -7357861.912 6  22586737.957        2145.831
  -6187864.643 6  -4831406.818 5  24861940.380       -2699.667
  -4691862.522 6  -3661598.951 5  24360031.784        4078.682
 -17618764.201 8 -11932606.221 9  21819203.600        1466.063
  -1405725.617 8  -1125083.354 8  21646286.118        -662.346
  -8374683.361 6  -6539337.434 5  23594414.367       -3141.537
 -18327512.568 7 -14290373.278 7  22155228.486       -1005.927
 93  5 10  7 13 30.0030000  0  7 17 31  3 23 21  1 28                0.003015920
  -9367477.441 7  -7307596.693 6  22599013.389        2154.832
  -6268706.518 6  -4894400.521 5  24846556.843       -2689.670
  -4569363.690 6  -3566145.356 5  24383342.647        4087.915
 -17574655.563 8 -11898235.875 9  21827597.129        1474.496
  -1425465.328 8  -1140464.955 8  21642529.719        -653.481
  -8468808.072 6  -6612681.334 5  23576502.916       -3133.253
 -18357411.266 7 -14313670.981 7  22149539.034        -987.166
 93  5 10  7 14  0.0030000  0  7 17 31  3 23 21  1 28                0.003020560
  -9302700.207 7  -7257120.955 6  22611340.085        2163.818
  -6349244.360 6  -4957157.280 5  24831231.084       -2679.448
  -4446588.772 6  -3470476.630 5  24406706.031        4096.967
 -17530305.845 8 -11863677.677 9  21836036.546        1482.273
  -1444944.417 8  -1155643.466 8  21638823.054        -645.169
  -8562678.364 6  -6685827.000 5  23558640.321       -3124.684
 -18386738.988 7 -14336523.743 7  22143958.317        -967.890
 93  5 10  7 14 30.0030000  0  7 17 31  3 23 21  1 28                0.003025210
  -9237647.943 7  -7206430.894 6  22623718.977        2172.992
  -6429475.828 6  -5019675.262 5  24815963.222       -2669.250
  -4323540.845 5  -3374595.152 5  24430121.061        4105.919
 -17485717.030 8 -11828933.147 9  21844521.622        1490.150
  -1464173.782 8  -1170627.388 8  21635163.977        -636.651
  -8656282.931 6  -6758765.614 5  23540827.875       -3115.724
 -18415487.245 7 -14358925.000 7  22138487.604        -948.705
 93  5 10  7 15  0.0030000  0  7 17 31  3 23 21  1 28                0.003029860
  -9172308.809 7  -7155517.303 6  22636152.278        2182.751
  -6509397.285 6  -5081951.801 5  24800754.464       -2658.842
  -4200221.631 6  -3278502.405 5  24453587.828        4115.060
 -17440901.766 8 -11794012.179 9  21853049.669        1497.392
  -1483129.678 8  -1185398.213 8  21631556.765        -627.066
  -8749622.362 6  -6831497.614 5  23523066.079       -3107.093
 -18443661.149 7 -14380878.694 7  22133126.554        -929.384
 93  5 10  7 15 30.0030000  0  7 17 31  3 23 21  1 28                0.003034500
  -9106682.463 7  -7104379.915 6  22648640.485        2192.105
  -6589000.832 6  -5143980.529 5  24785606.279       -2648.069
  -4076628.109 6  -3182195.777 5  24477107.268        4124.171
 -17395881.780 8 -11758931.683 9  21861616.676        1503.707
  -1501789.008 8  -1199937.946 8  21628005.913        -616.899
  -8842712.111 6  -6904035.054 5  23505351.534       -3099.111
 -18471239.637 7 -14402368.432 7  22127878.739        -909.166
 93  5 10  7 16  0.0030000  0  7 17 31  3 23 21  1 28                0.003039140
  -9040778.557 7  -7053026.250 6  22661181.760        2201.591
  -6668283.713 6  -5205759.330 5  24770519.438       -2637.210
  -3952762.894 6  -3085677.492 5  24500677.772        4133.343
 -17350677.032 8 -11723707.219 9  21870218.792        1510.210
  -1520150.211 8  -1214245.384 8  21624511.783        -606.988
  -8935568.190 6  -6976390.422 5  23487681.237       -3091.140
 -18498205.391 7 -14423380.717 7  22122747.161        -888.387
 93  5 10  7 16 30.0030000  0  7 17 31  3 23 21  1 28                0.003043780
  -8974586.463 7  -7001448.020 6  22673778.080        2211.122
  -6747233.072 5  -5267278.340 5  24755495.546       -2625.968
  -3828618.643 6  -2988941.825 5  24524301.669        4142.723
 -17305262.119 8 -11688318.983 9  21878861.140        1517.486
  -1538190.369 8  -1228302.644 8  21621078.739        -595.545
  -9028176.891 6  -7048553.022 5  23470058.578       -3082.796
 -18524545.521 7 -14443905.501 7  22117734.782        -867.496
 93  5 10  7 17  0.0030000  0  7 17 31  3 23 21  1 28                0.003048410
  -8908123.285 7  -6949658.542 6  22686425.763        2219.667
  -6825846.353 5  -5328535.412 5  24740535.812       -2614.911
  -3704197.910 6  -2891990.594 5  24547978.157        4151.777
 -17259635.437 8 -11652765.739 9  21887543.708        1524.343
  -1555897.772 8  -1242100.630 8  21617709.250        -584.941
  -9120544.744 6  -7120527.951 5  23452481.544       -3075.036
 -18550265.178 7 -14463946.797 7  22112840.569        -847.061
 93  5 10  7 17 30.0030000  0  7 17 31  3 23 21  1 28                0.003053030
  -8841414.352 7  -6897677.605 6  22699120.029        2227.817
  -6904126.517 5  -5389532.899 5  24725639.582       -2603.726
  -3579508.499 6  -2794830.069 5  24571706.055        4160.649
 -17213802.337 8 -11617051.646 9  21896265.411        1531.259
  -1573298.079 8  -1255659.308 8  21614398.064        -575.031
  -9212673.066 6  -7192316.246 5  23434950.233       -3066.763
 -18575373.941 7 -14483512.084 7  22108062.397        -826.955
 93  5 10  7 18  0.0030000  0  7 17 31  3 23 21  1 28                0.003057650
  -8774449.415 7  -6845497.141 6  22711862.984        2236.433
  -6982071.309 5  -5450269.144 5  24710807.068       -2592.587
  -3454553.638 6  -2697462.763 5  24595484.065        4169.431
 -17167755.073 8 -11581170.666 9  21905027.934        1538.579
  -1590405.954 8  -1268990.131 8  21611142.586        -565.388
  -9304544.587 6  -7263904.387 5  23417467.713       -3058.012
 -18599891.858 7 -14502616.943 7  22103396.888        -807.600
 93  5 10  7 18 30.0030000  0  7 17 31  3 23 21  1 28                0.003062270
  -8707235.695 7  -6793122.845 6  22724653.232        2244.436
  -7059680.305 6  -5510743.626 5  24696038.036       -2581.295
  -3329337.751 5  -2599892.004 5  24619312.187        4178.110
 -17121489.058 8 -11545119.230 9  21913832.099        1545.801
  -1607222.113 8  -1282093.633 8  21607942.863        -555.879
  -9396151.500 6  -7335286.385 5  23400035.461       -3049.239
 -18623830.139 7 -14521270.155 7  22098841.709        -788.431
 93  5 10  7 19  0.0030000  0  7 17 31  3 23 21  1 28                0.003066890
  -8639779.657 7  -6740559.713 6  22737489.713        2252.715
  -7136950.678 5  -5570954.328 5  24681334.575       -2570.080
  -3203863.860 6  -2502120.177 5  24643188.809        4186.613
 -17075011.598 8 -11508903.041 9  21922676.447        1552.708
  -1623771.931 8  -1294989.573 8  21604793.621        -547.336
  -9487497.399 6  -7406464.985 5  23382652.868       -3040.519
 -18647191.320 7 -14539473.683 7  22094396.189        -768.873
 93  5 10  7 19 30.0030000  0  7 17 31  3 23 21  1 28                0.003071510
  -8572070.722 7  -6687799.524 6  22750374.183        2261.491
  -7213878.366 6  -5630898.021 5  24666696.188       -2558.439
  -3078132.599 6  -2404147.825 4  24667115.080        4195.196
 -17028323.394 8 -11472522.636 8  21931560.786        1559.922
  -1640053.214 8  -1307676.310 8  21601695.426        -537.922
  -9578582.120 6  -7477440.069 5  23365319.824       -3031.564
 -18669956.386 8 -14557212.689 7  22090064.076        -748.720
 93  5 10  7 20  0.0030000  0  7 17 31  3 23 21  1 28                0.003076140
  -8504095.643 7  -6634831.958 6  22763309.341        2270.202
  -7290462.432 6  -5690573.860 5  24652122.855       -2547.023
  -2952148.734 6  -2305978.725 4  24691088.866        4203.460
 -16981417.578 8 -11435972.656 8  21940486.627        1567.039
  -1656046.917 8  -1320138.940 8  21598651.644        -528.189
  -9669399.797 6  -7548207.057 5  23348037.551       -3022.695
 -18692117.025 8 -14574480.725 7  22085847.205        -728.555
 93  5 10  7 20 30.0030000  0  7 17 31  3 23 21  1 28                0.003080750
  -8435859.149 7  -6581660.691 6  22776294.550        2278.911
  -7366701.808 6  -5749981.174 5  24637614.816       -2535.573
  -2825916.214 5  -2207615.727 4  24715110.350        4211.720
 -16934300.096 8 -11399257.750 8  21949452.720        1573.927
  -1671746.540 8  -1332372.401 8  21595663.963        -518.618
  -9759947.712 6  -7618763.827 5  23330806.839       -3013.848
 -18713667.484 8 -14591273.307 7  22081746.416        -708.315
 93  5 10  7 21  0.0030000  0  7 17 31  3 23 21  1 28                0.003085370
  -8367344.547 7  -6528272.728 6  22789332.763        2288.631
  -7442591.871 6  -5809116.332 5  24623173.272       -2523.816
  -2699435.107 5  -2109059.109 4  24739178.827        4220.100
 -16886981.683 8 -11362386.271 8  21958457.356        1580.472
  -1687151.047 8  -1344375.922 8  21592732.344        -508.334
  -9850222.213 6  -7689107.545 6  23313628.192       -3004.510
 -18734611.663 8 -14607593.443 7  22077760.805        -688.054
 93  5 10  7 21 30.0030000  0  7 17 31  3 23 21  1 28                0.003089980
  -8298534.899 7  -6474654.827 6  22802426.817        2298.720
  -7518124.499 6  -5867972.872 5  24608799.933       -2511.629
  -2572703.236 5  -2010307.095 4  24763295.144        4228.556
 -16839461.802 8 -11325357.795 8  21967499.817        1587.598
  -1702231.210 8  -1356126.688 8  21589862.827        -497.142
  -9940207.884 6  -7759226.236 5  23296504.167       -2994.314
 -18754953.565 8 -14623444.278 7  22073889.607        -668.065
 93  5 10  7 22  0.0030000  0  7 17 31  3 23 21  1 28                0.003094600
  -8229426.115 7  -6420803.840 6  22815577.626        2308.454
  -7593296.995 6  -5926548.844 5  24594495.288       -2499.752
  -2445722.772 5  -1911361.276 4  24787458.847        4236.611
 -16791737.407 8 -11288169.969 8  21976581.558        1593.936
  -1716994.452 8  -1367630.518 8  21587053.614        -487.107
 -10029886.077 6  -7829105.323 6  23279439.059       -2984.304
 -18774704.856 8 -14638834.909 7  22070131.093        -648.607
 93  5 10  7 22 30.0030000  0  7 17 31  3 23 21  1 28                0.003099220
  -8160027.532 7  -6366727.059 6  22828783.602        2318.206
  -7668110.640 6  -5984845.204 5  24580258.402       -2487.735
  -2318500.300 5  -1812226.954 4  24811668.560        4244.835
 -16743828.037 8 -11250838.015 8  21985698.508        1600.180
  -1731462.168 8  -1378904.069 8  21584300.729        -477.218
 -10119269.628 6  -7898754.820 6  23262430.173       -2974.473
 -18793865.981 8 -14653765.671 7  22066484.810        -628.656
 93  5 10  7 23  0.0030000  0  7 17 31  3 23 21  1 28                0.003103840
  -8090341.048 7  -6312425.909 6  22842044.433        2327.618
  -7742560.086 6  -6042857.741 5  24566091.311       -2475.659
  -2191035.724 5  -1712904.031 4  24835924.403        4252.716
 -16695733.228 8 -11213361.557 8  21994850.602        1606.304
  -1745635.012 8  -1389947.850 8  21581603.837        -467.604
 -10208359.257 6  -7968175.292 6  23245477.221       -2964.698
 -18812424.257 8 -14668226.663 7  22062953.265        -608.311
 93  5 10  7 23 30.0030000  0  7 17 31  3 23 21  1 28                0.003108470
  -8020375.451 7  -6257907.275 6  22855358.517        2336.658
  -7816642.370 6  -6100584.213 5  24551994.085       -2463.251
  -2063331.921 5  -1613394.586 4  24860225.292        4260.662
 -16647439.538 8 -11175730.126 8  22004040.619        1613.114
  -1759522.160 8  -1400768.996 8  21578961.186        -458.450
 -10297151.791 6  -8037364.236 6  23228580.298       -2954.906
 -18830356.905 7 -14682200.164 7  22059540.779        -587.117
 93  5 10  7 24  0.0030000  0  7 17 31  3 23 21  1 28                0.003113110
  -7950138.959 7  -6203177.548 6  22868724.140        2345.658
  -7890352.185 6  -6158020.407 5  24537967.568       -2450.705
  -1935388.060 5  -1513698.173 4  24884572.380        4268.705
 -16598950.123 8 -11137946.179 8  22013267.943        1619.457
  -1773145.962 8  -1411384.954 8  21576368.709        -449.870
 -10385653.446 6  -8106326.521 6  23211739.007       -2945.490
 -18847646.130 8 -14695672.280 7  22056250.387        -565.505
 93  5 10  7 24 30.0030000  0  7 17 31  3 23 21  1 28                0.003117760
  -7879638.604 7  -6148242.244 6  22882140.055        2354.396
  -7963687.576 6  -6215164.817 5  24524012.373       -2438.194
  -1807207.595 5  -1413817.455 4  24908964.472        4276.499
 -16550269.851 8 -11100013.509 8  22022531.649        1626.108
  -1786513.649 8  -1421801.327 8  21573825.003        -441.249
 -10473880.977 7  -8175075.254 6  23194949.580       -2936.028
 -18864291.383 8 -14708642.626 7  22053082.948        -544.179
 93  5 10  7 25  0.0030000  0  7 17 31  3 23 21  1 28                0.003122420
  -7808867.899 7  -6093096.241 6  22895607.321        2363.766
  -8036645.148 6  -6272014.880 5  24510129.002       -2425.526
  -1678792.366 5  -1313753.626 4  24933400.997        4284.357
 -16501380.431 8 -11061917.867 8  22031834.798        1633.196
  -1799617.177 8  -1432011.885 8  21571331.437        -432.274
 -10561810.372 6  -8243591.630 6  23178217.052       -2925.838
 -18880293.067 8 -14721111.482 7  22050037.946        -522.523
 93  5 10  7 25 30.0030000  0  7 17 31  3 23 21  1 28                0.003127090
  -7737822.507 7  -6037736.209 5  22909126.923        2372.636
  -8109225.639 6  -6328571.122 5  24496317.571       -2413.114
  -1550147.232 5  -1213510.739 4  24957881.409        4291.785
 -16452287.180 8 -11023663.402 8  22041176.951        1639.650
  -1812452.352 8  -1442013.312 8  21568888.728        -423.322
 -10649444.081 6  -8311877.603 6  23161540.589       -2916.238
 -18895659.582 8 -14733085.393 7  22047113.931        -501.844
 93  5 10  7 26  0.0030000  0  7 17 31  3 23 21  1 28                0.003131750
  -7666508.979 7  -5982167.243 5  22922697.345        2381.780
  -8181431.730 6  -6384835.557 5  24482576.687       -2400.451
  -1421281.665 5  -1113096.096 4  24982403.709        4299.042
 -16403005.593 8 -10985262.169 8  22050554.859        1646.005
  -1825014.838 8  -1451802.266 8  21566498.454        -414.010
 -10736784.001 7  -8379934.680 6  23144920.534       -2906.085
 -18910411.954 8 -14744580.758 7  22044306.685        -481.447
 93  5 10  7 26 30.0030000  0  7 17 31  3 23 21  1 28                0.003136420
  -7594923.457 7  -5926386.330 5  22936319.497        2390.633
  -8253264.888 6  -6440809.482 5  24468907.630       -2388.160
  -1292201.745 5  -1012514.366 4  25006966.665        4306.021
 -16353533.396 8 -10946712.430 8  22059969.043        1652.078
  -1837292.036 8  -1461368.919 8  21564162.150        -404.387
 -10823807.126 7  -8447744.872 6  23128360.738       -2895.293
 -18924555.416 8 -14755601.644 7  22041615.516        -461.336
 93  5 10  7 27  0.0030000  0  7 17 31  3 23 21  1 28                0.003141070
  -7523068.737 7  -5870395.659 5  22949992.920        2399.508
  -8324723.777 6  -6496491.701 5  24455309.507       -2375.701
  -1162912.021 5   -911769.290 3  25031569.832        4312.972
 -16303882.428 8 -10908023.385 8  22069417.160        1657.723
  -1849274.346 8  -1470705.783 8  21561881.900        -394.524
 -10910504.075 7  -8515300.899 6  23111862.928       -2884.855
 -18938086.248 8 -14766145.164 7  22039040.669        -440.862
 93  5 10  7 27 30.0030000  0  7 17 31  3 23 21  1 28                0.003145720
  -7450952.109 7  -5814200.902 5  22963716.278        2408.120
  -8395803.102 6  -6551878.163 5  24441783.505       -2363.073
  -1033411.642 5   -810859.961 3  25056213.200        4320.056
 -16254057.679 8 -10869198.904 8  22078898.667        1663.904
  -1860962.550 8  -1479813.490 8  21559657.780        -384.824
 -10996886.144 7  -8582611.585 6  23095425.049       -2873.901
 -18951004.600 8 -14776211.418 7  22036582.390        -420.400
 93  5 10  7 28  0.0030000  0  7 17 31  3 23 21  1 28                0.003150370
  -7378573.610 7  -5757802.079 5  22977489.855        2417.068
  -8466494.420 6  -6606962.340 5  24428331.148       -2349.786
   -903697.633 5   -709784.172 4  25080897.547        4327.179
 -16204043.057 8 -10830226.484 8  22088416.287        1670.440
  -1872361.815 8  -1488696.039 8  21557488.291        -375.247
 -11082922.164 7  -8649652.628 6  23079053.082       -2862.050
 -18963300.242 8 -14785792.457 7  22034242.919        -399.335
 93  5 10  7 28 30.0030000  0  7 17 31  3 23 21  1 28                0.003155010
  -7305933.406 7  -5701199.343 5  22991312.805        2425.514
  -8536797.502 6  -6661743.910 5  24414953.124       -2337.051
   -773774.422 5   -608545.404 3  25105620.876        4334.079
 -16153833.922 8 -10791102.492 8  22097970.953        1676.859
  -1883474.741 8  -1497355.467 8  21555373.893        -365.697
 -11168620.690 7  -8716430.644 6  23062745.325       -2851.413
 -18974965.814 8 -14794882.523 7  22032022.989        -378.367
 93  5 10  7 29  0.0030000  0  7 17 31  3 23 21  1 28                0.003159650
  -7233034.561 7  -5644395.060 5  23005184.882        2434.603
  -8606710.927 6  -6716221.918 5  24401649.083       -2323.779
   -643646.417 5   -507147.063 4  25130383.320        4341.113
 -16103423.392 8 -10751821.578 8  22107563.631        1684.064
  -1894307.120 8  -1505796.279 8  21553312.312        -356.389
 -11254009.432 7  -8782967.320 6  23046496.302       -2841.056
 -18985997.494 8 -14803478.650 7  22029924.211        -356.945
 93  5 10  7 29 30.0030000  0  7 17 31  3 23 21  1 28                0.003164300
  -7159852.240 7  -5587369.895 5  23019111.091        2444.292
  -8676221.976 6  -6770386.386 5  24388421.468       -2310.199
   -513306.048 5   -405583.183 4  25155186.195        4348.056
 -16052790.043 8 -10712367.022 8  22117198.901        1691.484
  -1904858.711 8  -1514018.298 8  21551304.462        -346.991
 -11339080.617 7  -8849256.534 6  23030307.561       -2830.303
 -18996385.392 8 -14811573.124 7  22027947.678        -335.370
 93  5 10  7 30  0.0030000  0  7 17 31  3 23 21  1 28                0.003168950
  -7086376.656 7  -5530116.202 5  23033092.551        2454.200
  -8745325.656 6  -6824233.351 5  24375271.752       -2296.573
   -382753.016 5   -303853.643 4  25180029.669        4355.182
 -16001943.573 8 -10672746.398 8  22126874.625        1698.218
  -1915124.006 8  -1522017.230 8  21549351.275        -337.243
 -11423834.561 7  -8915298.526 6  23014179.294       -2820.162
 -19006122.694 8 -14819160.641 7  22026094.383        -313.663
 93  5 10  7 30 30.0030000  0  7 17 31  3 23 21  1 28                0.003173620
  -7012602.942 7  -5472630.218 5  23047131.052        2464.077
  -8814015.934 6  -6877758.233 5  24362200.276       -2282.747
   -251987.054 5   -201958.291 4  25204914.096        4362.209
 -15950899.144 8 -10632971.548 8  22136587.898        1704.660
  -1925091.217 8  -1529783.907 8  21547454.328        -327.345
 -11508288.989 7  -8981107.143 6  22998107.912       -2810.064
 -19015205.964 8 -14826238.533 7  22024366.028        -291.966
 93  5 10  7 31  0.0030000  0  7 17 31  3 23 21  1 28                0.003178310
  -6938522.480 7  -5414905.188 5  23061228.355        2474.456
  -8882287.223 6  -6930956.646 5  24349208.418       -2268.707
   -121007.715 5    -99896.505 4  25229838.179        4369.328
 -15899669.158 8 -10593052.091 8  22146336.811        1710.457
  -1934761.648 8  -1537319.311 8  21545614.151        -317.435
 -11592426.840 7  -9046669.075 6  22982096.955       -2799.077
 -19023642.762 8 -14832812.664 7  22022760.500        -270.709
 93  5 10  7 31 30.0030000  0  7 17 31  3 23 21  1 28                0.003183010
  -6864147.729 7  -5356950.839 5  23075381.557        2483.659
  -8950140.022 6  -6983828.933 5  24336296.301       -2254.756
     10179.914 5      2327.502 4  25254802.201        4376.122
 -15848277.090 8 -10553006.335 8  22156116.339        1715.590
  -1944126.353 8  -1544616.478 8  21543831.946        -307.036
 -11676226.852 7  -9111967.730 6  22966150.476       -2787.618
 -19031449.766 8 -14838896.044 7  22021274.947        -249.890
 93  5 10  7 32  0.0030000  0  7 17 31  3 23 21  1 28                0.003187720
  -6789506.678 7  -5298788.997 5  23089585.701        2492.423
  -9017575.804 6  -7036376.268 5  24323463.910       -2240.954
    141568.378 5    104708.061 4  25279804.866        4382.783
 -15796730.295 8 -10512840.029 8  22165925.389        1720.845
  -1953182.750 8  -1551673.424 8  21542108.329        -296.818
 -11759679.373 7  -9176995.664 6  22950269.959       -2775.873
 -19038636.596 7 -14844496.182 7  22019907.365        -229.301
 93  5 10  7 32 30.0030000  0  7 17 31  3 23 21  1 28                0.003192430
  -6714603.476 7  -5240422.873 5  23103839.257        2501.200
  -9084591.377 6  -7088596.205 5  24310711.047       -2226.871
    273156.249 5    207243.915 4  25304845.265        4389.479
 -15745017.200 8 -10472544.127 8  22175765.986        1726.802
  -1961935.215 8  -1558493.528 8  21540442.783        -286.714
 -11842776.250 7  -9241746.454 6  22934457.085       -2763.819
 -19045205.269 8 -14849614.646 7  22018657.262        -208.723
 93  5 10  7 33  0.0030000  0  7 17 31  3 23 21  1 28                0.003197150
  -6639434.275 7  -5181849.471 5  23118143.203        2509.836
  -9151179.644 6  -7140483.150 5  24298039.770       -2212.562
    404945.836 5    309937.017 4  25329924.592        4396.230
 -15693117.623 8 -10432102.902 8  22185642.260        1733.171
  -1970382.115 8  -1565075.531 8  21538835.335        -276.482
 -11925509.481 7  -9306213.886 6  22918713.654       -2751.881
 -19051155.284 7 -14854251.032 7  22017525.164        -187.876
 93  5 10  7 33 30.0030000  0  7 17 31  3 23 21  1 28                0.003201880
  -6564017.771 7  -5123083.375 5  23132494.485        2518.057
  -9217341.084 6  -7192037.488 5  24285449.498       -2198.290
    536930.436 5    412782.043 4  25355040.275        4402.512
 -15641021.565 8 -10391508.588 8  22195555.876        1739.815
  -1978528.475 8  -1571423.350 8  21537285.207        -266.820
 -12007892.056 7  -9370408.061 6  22903036.668       -2740.395
 -19056470.516 7 -14858392.777 7  22016513.494        -166.372
 93  5 10  7 34  0.0030000  0  7 17 31  3 23 21  1 28                0.003206620
  -6488335.887 7  -5064110.507 5  23146896.165        2527.494
  -9283076.226 6  -7243259.731 5  24272940.607       -2184.175
    669105.198 5    515775.224 4  25380192.377        4408.802
 -15588728.691 8 -10350760.931 8  22205506.967        1746.255
  -1986394.188 8  -1577552.474 8  21535788.194        -257.608
 -12089936.946 7  -9434339.120 6  22887424.007       -2729.426
 -19061134.480 7 -14862027.045 7  22015625.889        -144.631
 93  5 10  7 34 30.0030000  0  7 17 31  3 23 21  1 28                0.003211360
  -6412362.446 7  -5004910.447 5  23161353.410        2537.422
  -9348384.137 6  -7294148.975 5  24260512.826       -2169.745
    801465.983 5    618913.445 4  25405380.261        4414.999
 -15536245.848 8 -10309865.215 8  22215494.134        1752.630
  -1993979.924 8  -1583463.454 9  21534344.633        -248.012
 -12171652.115 7  -9498013.269 6  22871874.191       -2718.246
 -19065138.771 7 -14865147.292 7  22014863.817        -122.367
 93  5 10  7 35  0.0030000  0  7 17 31  3 23 21  1 28                0.003216120
  -6336084.367 7  -4945472.977 5  23175868.893        2547.599
  -9413256.962 6  -7344699.187 5  24248167.927       -2155.203
    934015.372 5    722198.475 4  25430602.982        4421.260
 -15483570.884 8 -10268819.805 8  22225517.694        1758.964
  -2001269.719 8  -1589143.802 9  21532957.643        -238.139
 -12253023.046 7  -9561419.149 6  22856389.832       -2706.587
 -19068466.148 7 -14867740.056 7  22014230.724         -99.513
 93  5 10  7 35 30.0030000  0  7 17 31  3 23 21  1 28                0.003220890
  -6259502.305 7  -4885798.651 5  23190442.148        2557.934
  -9477698.519 6  -7394913.429 5  24235905.161       -2141.063
   1066743.654 5    825623.045 4  25455860.825        4426.946
 -15430712.943 8 -10227631.815 7  22235576.081        1764.643
  -2008270.293 8  -1594598.811 9  21531625.537        -228.651
 -12334043.682 7  -9624552.100 6  22840972.376       -2694.825
 -19071116.114 7 -14869804.983 7  22013726.384         -77.417
 93  5 10  7 36  0.0030000  0  7 17 31  3 23 21  1 28                0.003225650
  -6182617.311 7  -4825888.291 5  23205073.110        2567.642
  -9541724.996 6  -7444804.192 5  24223721.294       -2127.377
   1199630.327 5    929170.929 4  25481148.092        4431.963
 -15377696.435 8 -10186320.281 7  22245664.778        1769.931
  -2014993.346 8  -1599837.555 9  21530346.171        -219.449
 -12414716.140 7  -9687413.738 6  22825620.752       -2683.232
 -19073130.606 7 -14871374.726 7  22013343.097         -56.873
 93  5 10  7 36 30.0030000  0  7 17 31  3 23 21  1 28                0.003230390
  -6105464.821 6  -4765769.474 5  23219754.829        2575.682
  -9605342.489 6  -7494376.203 5  24211615.394       -2113.771
   1332663.893 5   1032833.329 4  25506463.704        4436.762
 -15324516.023 8 -10144881.007 7  22255784.811        1775.563
  -2021440.675 8  -1604861.453 9  21529119.372        -210.390
 -12495042.889 7  -9750005.987 6  22810334.834       -2671.788
 -19074532.658 7 -14872467.242 7  22013076.365         -36.671
 93  5 10  7 37  0.0030000  0  7 17 31  3 23 21  1 28                0.003235120
  -6028080.126 6  -4705469.728 5  23234480.083        2583.244
  -9668553.464 6  -7543631.533 5  24199586.936       -2100.252
   1465836.734 5   1136604.326 4  25531806.034        4441.258
 -15271162.179 8 -10103306.604 7  22265937.681        1781.395
  -2027620.556 8  -1609676.946 9  21527943.354        -201.717
 -12575022.181 7  -9812327.497 6  22795115.250       -2660.022
 -19075338.157 7 -14873094.911 7  22012923.002         -16.960
 93  5 10  7 37 30.0030000  0  7 17 31  3 23 21  1 28                0.003239840
  -5950460.910 6  -4644987.242 5  23249250.324        2591.377
  -9731347.526 6  -7592561.960 5  24187637.468       -2085.999
   1599154.529 5   1240488.111 4  25557175.534        4446.329
 -15217626.470 8 -10061590.475 7  22276125.079        1787.545
  -2033536.728 8  -1614286.944 9  21526817.685        -192.632
 -12654640.156 7  -9874367.463 6  22779964.399       -2647.717
 -19075554.863 7 -14873263.798 7  22012882.100           2.486
 93  5 10  7 38  0.0030000  0  7 17 31  3 23 21  1 28                0.003244550
  -5872605.200 6  -4584320.467 5  23264065.928        2598.969
  -9793712.271 6  -7641157.836 5  24175769.719       -2071.542
   1732624.737 5   1344490.781 4  25582574.117        4451.518
 -15163900.748 8 -10019726.287 7  22286348.922        1794.255
  -2039176.510 8  -1618681.587 9  21525744.378        -183.352
 -12733877.877 7  -9936111.117 6  22764885.836       -2634.942
 -19075184.955 7 -14872975.557 7  22012952.270          22.355
 93  5 10  7 38 30.0030000  0  7 17 31  3 23 21  1 28                0.003249260
  -5794519.186 6  -4523474.240 5  23278925.475        2606.991
  -9855637.097 6  -7689410.978 5  24163986.048       -2056.750
   1866252.621 5   1448616.181 4  25608002.780        4456.869
 -15109970.111 8  -9977702.433 7  22296611.678        1801.035
  -2044528.752 8  -1622852.173 9  21524725.861        -173.452
 -12812730.307 7  -9997554.550 6  22749880.955       -2621.820
 -19074201.815 7 -14872209.479 7  22013139.202          43.221
 93  5 10  7 39  0.0030000  0  7 17 31  3 23 21  1 28                0.003253970
  -5716174.064 6  -4462426.120 5  23293834.097        2616.062
  -9917114.480 6  -7737315.397 5  24152287.240       -2041.779
   2000039.950 5   1552866.018 4  25633461.827        4462.025
 -15055846.297 8  -9935528.049 7  22306911.087        1806.922
  -2049584.944 8  -1626792.069 9  21523763.709        -163.696
 -12891184.575 7 -10058687.738 6  22734951.650       -2608.555
 -19072588.896 7 -14870952.684 7  22013446.158          64.415
 93  5 10  7 39 30.0030000  0  7 17 31  3 23 21  1 28                0.003258680
  -5637553.834 6  -4401163.611 5  23308794.908        2625.176
  -9978142.750 6  -7784869.864 5  24140673.870       -2026.835
   2133984.447 5   1657238.107 4  25658950.839        4467.249
 -15001557.518 8  -9893225.110 7  22317241.985        1812.268
  -2054348.860 8  -1630504.216 9  21522857.085        -153.897
 -12969245.269 7 -10119514.222 6  22720096.853       -2595.653
 -19070337.631 7 -14869198.480 7  22013874.631          85.730
 93  5 10  7 40  0.0030000  0  7 17 31  3 23 21  1 28                0.003263400
  -5558668.467 6  -4339694.528 5  23323806.286        2633.698
 -10038722.206 6  -7832074.647 5  24129145.844       -2012.020
   2268080.576 5   1761728.500 4  25684468.855        4471.910
 -14947113.694 8  -9850801.360 7  22327602.343        1816.980
  -2058825.028 8  -1633992.138 9  21522005.357        -144.901
 -13046926.519 7 -10180045.051 6  22705314.808       -2583.590
 -19067432.575 7 -14866934.791 7  22014427.439         107.803
 93  5 10  7 40 30.0030000  0  7 17 31  3 23 21  1 28                0.003268110
  -5479528.461 6  -4278027.010 5  23338866.051        2642.285
 -10098864.674 6  -7878938.905 5  24117701.032       -1997.579
   2402310.962 5   1866323.387 4  25710011.939        4476.419
 -14892545.661 8  -9808280.835 7  22337986.214        1820.661
  -2063049.745 8  -1637284.136 9  21521201.553        -136.993
 -13124264.358 7 -10240308.285 6  22690597.696       -2572.329
 -19063864.222 7 -14864154.288 7  22015106.388         129.919
 93  5 10  7 41  0.0030000  0  7 17 31  3 23 21  1 28                0.003272820
  -5400134.395 6  -4216161.518 5  23353973.786        2650.628
 -10158572.379 6  -7925464.344 5  24106339.068       -1983.010
   2536668.956 5   1971017.841 4  25735578.990        4480.544
 -14837876.359 8  -9765681.396 7  22348389.533        1823.839
  -2067052.898 8  -1640403.482 9  21520439.710        -129.944
 -13201264.467 7 -10300308.334 6  22675945.159       -2561.045
 -19059641.317 7 -14860863.703 7  22015910.072         151.688
 93  5 10  7 41 30.0030000  0  6 17 31 23 21  1 28                   0.003277420
  -5320494.876 6  -4154104.758 5  23369128.828        2658.781
 -10217843.261 6  -7971649.464 5  24095060.311       -1968.326
 -14783105.347 8  -9723002.697 7  22358811.896        1827.895
  -2070842.381 8  -1643356.333 9  21519718.749        -122.536
 -13277929.395 7 -10360047.221 6  22661356.380       -2549.677
 -19054758.983 8 -14857059.304 7  22016839.138         173.852
 93  5 10  7 42  0.0030000  0  6 17 31 23 21  1 28                   0.003282140
  -5240603.860 6  -4091852.032 5  23384331.725        2667.503
 -10276669.001 6  -8017487.667 5  24083865.935       -1953.372
 -14728199.033 8  -9680218.562 7  22369260.152        1832.623
  -2074408.285 8  -1646134.960 9  21519040.178        -115.112
 -13354240.959 7 -10419510.762 6  22646834.871       -2537.669
 -19049208.172 7 -14852734.009 7  22017895.467         196.148
 93  5 10  7 42 30.0030000  0  6 17 31 23 21  1 28                   0.003286880
  -5160441.295 6  -4029387.737 5  23399586.582        2676.681
 -10335041.345 6  -8062972.599 5  24072758.236       -1938.220
 -14673140.431 8  -9637315.780 7  22379737.610        1837.996
  -2077737.210 8  -1648728.944 9  21518406.769        -106.672
 -13430181.559 7 -10478685.233 7  22632383.917       -2524.885
 -19042996.018 7 -14847893.375 7  22019077.720         217.770
 93  5 10  7 43  0.0030000  0  6 17 31 23 21  1 28                   0.003291630
  -5079996.616 6  -3966703.595 5  23414894.592        2686.353
 -10392954.881 6  -8108100.036 5  24061737.788       -1922.650
 -14617910.892 8  -9594279.777 7  22390247.643        1844.063
  -2080792.092 8  -1651109.373 9  21517825.629         -96.877
 -13505732.044 7 -10537555.714 7  22618007.189       -2511.629
 -19036144.747 7 -14842554.735 7  22020381.538         239.030
 93  5 10  7 43 30.0030000  0  6 17 31 23 21  1 28                   0.003296380
  -4999260.066 6  -3903792.025 5  23430258.071        2696.103
 -10450400.439 6  -8152862.794 5  24050806.035       -1906.982
 -14562487.010 8  -9551092.361 7  22400794.524        1850.998
  -2083544.370 8  -1653254.019 9  21517301.961         -86.577
 -13580882.348 7 -10596114.393 7  22603706.451       -2498.244
 -19028653.947 7 -14836717.757 7  22021807.010         260.161
 93  5 10  7 44  0.0030000  0  6 17 31 23 21  1 28                   0.003301130
  -4918234.820 6  -3840655.474 5  23445676.534        2705.635
 -10507380.692 6  -8197262.957 5  24039963.059       -1891.545
 -14506863.935 8  -9507749.705 7  22411379.085        1857.136
  -2086000.474 8  -1655167.874 9  21516834.557         -76.947
 -13655639.421 7 -10654366.622 7  22589480.718       -2485.422
 -19020546.685 7 -14830400.426 7  22023349.773         280.589
 93  5 10  7 44 30.0030000  0  6 17 31 23 21  1 28                   0.003305890
  -4836931.321 6  -3777302.112 5  23461147.927        2714.552
 -10563898.171 6  -8241302.561 5  24029208.266       -1876.191
 -14451063.887 8  -9464269.170 7  22421997.634        1862.856
  -2088160.018 8  -1656850.638 9  21516423.539         -66.978
 -13730016.179 7 -10712322.530 7  22575327.296       -2472.787
 -19011827.972 7 -14823606.632 7  22025009.042         300.722
 93  5 10  7 45  0.0030000  0  6 17 31 23 21  1 28                   0.003310630
  -4755365.796 6  -3713744.585 5  23476669.701        2722.948
 -10619953.614 6  -8284982.110 5  24018541.169       -1861.024
 -14395095.524 8  -9420657.465 7  22432647.852        1868.168
  -2090026.882 8  -1658305.348 9  21516068.305         -57.784
 -13804010.614 7 -10769980.527 7  22561246.444       -2460.123
 -19002498.556 7 -14816336.967 7  22026784.494         321.308
 93  5 10  7 45 30.0030000  0  6 17 31 23 21  1 28                   0.003315350
  -4673560.702 6  -3650000.362 5  23492236.522        2730.535
 -10675553.849 6  -8328306.937 5  24007960.675       -1845.963
 -14338972.403 8  -9376925.168 7  22443327.817        1873.147
  -2091633.485 8  -1659557.261 9  21515762.526         -49.506
 -13877621.944 7 -10827339.952 7  22547238.632       -2447.459
 -18992546.992 7 -14808582.514 7  22028678.133         342.021
 93  5 10  7 46  0.0030000  0  6 17 31 23 21  1 28                   0.003320060
  -4591540.100 6  -3586088.215 5  23507844.606        2737.490
 -10730710.912 6  -8371286.477 5  23997464.588       -1831.163
 -14282718.587 8  -9333091.042 7  22454032.618        1876.955
  -2093003.711 8  -1660624.970 9  21515501.817         -41.665
 -13950860.496 7 -10884408.949 7  22533301.810       -2435.044
 -18981979.152 7 -14800347.850 7  22030689.092         362.668
 93  5 10  7 46 30.0030000  0  6 17 31 23 21  1 28                   0.003324740
  -4509306.246 6  -3522009.912 5  23523493.410        2744.773
 -10785424.496 6  -8413920.410 5  23987052.749       -1816.393
 -14226355.866 8  -9289172.055 7  22464757.973        1880.534
  -2094129.083 8  -1661501.896 9  21515287.626         -33.542
 -14023722.698 7 -10941184.672 7  22519436.438       -2422.467
 -18970795.751 7 -14791633.504 7  22032817.267         382.789
 93  5 10  7 47  0.0030000  0  6 17 31 23 21  1 28                   0.003329400
  -4426852.813 6  -3457760.490 5  23539183.469        2751.994
 -10839694.969 6  -8456209.071 5  23976725.298       -1801.656
 -14169893.760 8  -9245175.643 7  22475502.432        1883.499
  -2095025.127 8  -1662200.128 9  21515117.145         -26.174
 -14096204.578 7 -10997664.038 7  22505643.427       -2409.723
 -18959008.924 7 -14782448.988 7  22035060.275         403.006
 93  5 10  7 47 30.0030000  0  6 17 31 23 21  1 28                   0.003334040
  -4344188.054 6  -3393346.419 5  23554914.060        2759.105
 -10893526.035 6  -8498155.344 5  23966481.739       -1787.024
 -14113348.123 8  -9201114.113 7  22486262.853        1886.282
  -2095698.201 8  -1662724.593 9  21514989.221         -18.640
 -14168308.409 7 -11053848.812 7  22491922.486       -2397.399
 -18946618.282 7 -14772793.940 7  22037418.083         423.039
 93  5 10  7 48  0.0030000  0  6 17 31 23 21  1 28                   0.003338680
  -4261295.816 6  -3328755.089 5  23570688.118        2767.198
 -10946910.044 6  -8539753.267 5  23956323.245       -1771.871
 -14056720.613 8  -9156988.801 7  22497038.774        1888.928
  -2096139.158 8  -1663068.210 9  21514905.302         -10.578
 -14240041.318 7 -11109744.578 7  22478272.056       -2384.863
 -18933625.698 7 -14762669.861 7  22039890.472         443.051
 93  5 10  7 48 30.0030000  0  6 17 31 23 21  1 28                   0.003343320
  -4178153.881 6  -3263969.192 5  23586509.770        2775.553
 -10999835.945 6  -8580994.205 5  23946251.675       -1756.520
 -14000001.925 8  -9112792.414 7  22507832.042        1892.506
  -2096328.054 8  -1663215.413 9  21514869.187          -2.087
 -14311392.271 7 -11165342.698 7  22464694.654       -2371.896
 -18920035.488 7 -14752080.114 7  22042476.480         462.997
 93  5 10  7 49  0.0030000  0  6 17 31 23 21  1 28                   0.003347940
  -4094775.414 6  -3198998.962 5  23602376.074        2783.064
 -11052299.417 6  -8621874.828 5  23936268.095       -1741.033
 -13943170.629 8  -9068508.319 7  22518646.566        1896.235
  -2096266.659 8  -1663167.575 9  21514880.839           6.307
 -14382352.363 7 -11220636.269 7  22451191.573       -2358.766
 -18905841.333 7 -14741019.741 7  22045177.392         483.373
 93  5 10  7 49 30.0030000  0  6 17 31 23 21  1 28                   0.003352550
  -4011164.954 6  -3133847.993 5  23618286.902        2791.097
 -11104299.030 6  -8662394.011 5  23926372.899       -1725.630
 -13886215.483 8  -9024127.688 7  22529484.752        1900.752
  -2095952.836 8  -1662923.039 9  21514940.448          14.512
 -14452921.448 7 -11275625.123 7  22437762.790       -2346.010
 -18891035.850 7 -14729483.006 7  22047994.791         503.519
 93  5 10  7 50  0.0030000  0  6 17 31 23 21  1 28                   0.003357140
  -3927313.467 6  -3068509.186 5  23634243.287        2798.848
 -11155841.096 6  -8702556.623 5  23916564.670       -1710.585
 -13829132.023 8  -8979647.091 7  22540347.321        1904.947
  -2095395.966 8  -1662489.127 9  21515046.532          22.771
 -14523118.914 7 -11330324.414 7  22424404.306       -2333.711
 -18875640.442 7 -14717486.591 7  22050924.423         522.791
